[[{"header":{"parameterUnit":"m.s-1","parameterCategory":1,"la1":31.0,"la2":29.5877,"lo1":-88.7671,"lo2":-86.6584,"dy":0.0162,"dx":0.0185,"nx":115,"ny":88,"refTime":"2023-08-26T06:00:00:Z","depth":0,"parameterNumber":2,"parameterNumberName":"U-component_of_WINDS"},"data":[0.0,0.0,0.0,0.0,0.0,0.0,0.0,0.0,0.0,0.0,0.0,0.0,0.0,0.0,0.0,0.0,0.0,0.0,0.0,0.0,0.0,0.0,0.0,0.0,0.0,0.0,0.0,0.0,0.0,0.0,0.0,0.0,0.0,0.0,0.0,0.0,0.0,0.0,0.0,0.0,0.0,0.0,0.0,0.0,0.0,0.0,0.0,0.0,0.0,0.0,0.0,0.0,0.0,0.0,0.0,0.0,0.0,0.0,0.0,0.0,0.0,0.0,0.0,0.0,0.0,0.0,0.0,0.0,0.0,0.0,0.0,0.0,0.0,0.0,0.0,0.0,0.0,0.0,0.0,0.0,0.0,0.0,0.0,0.0,0.0,0.0,0.0,0.0,0.0,0.0,0.0,0.0,0.0,0.0,0.0,0.0,0.0,0.0,0.0,0.0,0.0,0.0,0.0,0.0,0.0,0.0,0.0,0.0,0.0,0.0,0.0,0.0,0.0,0.0,0.0,0.0,0.0,0.0,0.0,0.0,0.0,0.0,0.0,0.0,0.0,0.0,0.0,0.0,0.0,0.0,0.0,0.0,0.0,0.0,0.0,0.0,0.0,0.0,0.0,0.0,0.0,0.0,0.0,0.0,0.0,0.0,0.0,0.0,0.0,0.0,0.0,0.0,0.0,0.0,0.0,0.0,0.0,0.0,0.0,0.0,0.0,0.0,0.0,0.0,0.0,0.0,0.0,0.0,0.0,0.0,0.0,0.0,0.0,0.0,0.0,0.0,0.0,0.0,0.0,0.0,0.0,0.0,0.0,0.0,0.0,0.0,0.0,0.0,0.0,0.0,0.0,0.0,0.0,0.0,0.0,0.0,0.0,0.0,0.0,0.0,0.0,0.0,0.0,0.0,0.0,0.0,0.0,0.0,0.0,0.0,0.0,0.0,0.0,0.0,0.0,0.0,0.0,0.0,0.0,0.0,0.0,0.0,0.0,0.0,0.0,0.0,0.0,0.0,0.0,0.0,0.0,0.0,0.0,0.0,0.0,0.0,0.0,0.0,0.0,0.0,0.0,0.0,0.0,0.0,0.0,0.0,0.0,0.0,0.0,0.0,0.0,0.0,0.0,0.0,0.0,0.0,0.0,0.0,0.0,0.0,0.0,0.0,0.0,0.0,0.0,0.0,0.0,0.0,0.0,0.0,0.0,0.0,0.0,0.0,0.0,0.0,0.0,0.0,0.0,0.0,0.0,0.0,0.0,0.0,0.0,0.0,0.0,0.0,0.0,0.0,0.0,0.0,0.0,0.0,0.0,0.0,0.0,0.0,0.0,0.0,0.0,0.0,0.0,0.0,0.0,0.0,0.0,0.0,0.0,0.0,0.0,0.0,0.0,0.0,0.0,0.0,0.0,0.0,0.0,0.0,0.0,0.0,0.0,0.0,0.0,0.0,0.0,0.0,0.0,0.0,0.0,0.0,0.0,0.0,0.0,0.0,0.0,0.0,0.0,0.0,0.0,0.0,0.0,0.0,0.0,0.0,0.0,0.0,0.0,0.0,0.0,0.0,0.0,0.0,0.0,0.0,0.0,0.0,0.0,0.0,0.0,0.0,0.0,0.0,0.0,0.0,0.0,0.0,0.0,0.0,0.0,0.0,0.0,0.0,0.0,0.0,0.0,0.0,0.0,0.0,0.0,0.0,0.0,0.0,0.0,0.0,0.0,0.0,0.0,0.0,0.0,0.0,0.0,0.0,0.0,0.0,0.0,0.0,0.0,0.0,0.0,0.0,0.0,0.0,0.0,0.0,0.0,0.0,0.0,0.0,0.0,0.0,0.0,0.0,0.0,0.0,0.0,0.0,0.0,0.0,0.0,0.0,0.0,0.0,0.0,0.0,0.0,0.0,0.0,0.0,0.0,0.0,0.0,0.0,0.0,0.0,0.0,0.0,0.0,0.0,0.0,0.0,0.0,0.0,0.0,0.0,0.0,0.0,0.0,0.0,0.0,0.0,0.0,0.0,0.0,0.0,0.0,0.0,0.0,0.0,0.0,0.0,0.0,0.0,0.0,0.0,0.0,0.0,0.0,0.0,0.0,0.0,0.0,0.0,0.0,0.0,0.0,0.0,0.0,0.0,0.0,0.0,0.0,0.0,0.0,0.0,0.0,0.0,0.0,0.0,0.0,0.0,0.0,0.0,0.0,0.0,0.0,0.0,0.0,0.0,0.0,0.0,0.0,0.0,0.0,0.0,0.0,0.0,0.0,0.0,0.0,0.0,0.0,0.0,0.0,0.0,0.0,0.0,0.0,0.0,0.0,0.0,0.0,0.0,0.0,0.0,0.0,0.0,0.0,0.0,0.0,0.0,0.0,0.0,0.0,0.0,0.0,0.0,0.0,0.0,0.0,0.0,0.0,0.0,0.0,0.0,0.0,0.0,0.0,0.0,0.0,0.0,0.0,0.0,0.0,0.0,0.0,0.0,0.0,0.0,0.0,0.0,0.0,0.0,0.0,0.0,0.0,0.0,0.0,0.0,0.0,0.0,0.0,0.0,0.0,0.0,0.0,0.0,0.0,0.0,0.0,0.0,0.0,0.0,0.0,0.0,0.0,0.0,0.0,0.0,0.0,0.0,0.0,0.0,0.0,0.0,0.0,0.0,0.0,0.0,0.0,0.0,0.0,0.0,0.0,0.0,0.0,0.0,0.0,0.0,0.0,0.0,0.0,0.0,0.0,0.0,0.0,0.0,0.0,0.0,0.0,0.0,0.0,0.0,0.0,0.0,0.0,0.0,0.0,0.0,0.0,0.0,0.0,0.0,0.0,0.0,0.0,0.0,0.0,0.0,0.0,0.0,0.0,0.0,0.0,0.0,0.0,0.0,0.0,0.0,0.0,0.0,0.0,0.0,0.0,0.0,0.0,0.0,0.0,0.0,0.0,0.0,0.0,0.0,0.0,0.0,0.0,0.0,0.0,0.0,0.0,0.0,0.0,0.0,0.0,0.0,0.0,0.0,0.0,0.0,0.0,0.0,0.0,0.0,0.0,0.0,0.0,0.0,0.0,0.0,0.0,0.0,0.0,0.0,0.0,0.0,0.0,0.0,0.0,0.0,0.0,0.0,0.0,0.0,0.0,0.0,0.0,0.0,0.0,0.0,0.0,0.0,0.0,0.0,0.0,0.0,0.0,0.0,0.0,0.0,0.0,0.0,0.0,0.0,0.0,0.0,0.0,0.0,0.0,0.0,0.0,0.0,0.0,0.0,0.0,0.0,0.0,0.0,0.0,0.0,0.0,0.0,0.0,0.0,0.0,0.0,0.0,0.0,0.0,0.0,0.0,0.0,0.0,0.0,0.0,0.0,0.0,0.0,0.0,0.0,0.0,0.0,0.0,0.0,0.0,0.0,0.0,0.0,0.0,0.0,0.0,0.0,0.0,0.0,0.0,0.0,0.0,0.0,0.0,0.0,0.0,0.0,0.0,0.0,0.0,0.0,0.0,0.0,0.0,0.0,0.0,0.0,0.0,0.0,0.0,0.0,0.0,0.0,0.0,0.0,0.0,0.0,0.0,0.0,0.0,0.0,0.0,0.0,0.0,0.0,0.0,0.0,0.0,0.0,0.0,0.0,0.0,0.0,0.0,0.0,0.0,0.0,0.0,0.0,0.0,0.0,0.0,0.0,0.0,0.0,0.0,0.0,0.0,0.0,0.0,0.0,0.0,0.0,0.0,0.0,0.0,0.0,0.0,0.0,0.0,0.0,0.0,0.0,0.0,0.0,0.0,0.0,0.0,0.0,0.0,0.0,0.0,0.0,0.0,0.0,0.0,0.0,0.0,0.0,0.0,0.0,0.0,0.0,0.0,0.0,0.0,0.0,0.0,0.0,0.0,0.0,0.0,0.0,0.0,0.0,0.0,0.0,0.0,0.0,0.0,0.0,0.0,0.0,0.0,0.0,0.0,0.0,0.0,0.0,0.0,0.0,0.0,0.0,0.0,0.0,0.0,0.0,0.0,0.0,0.0,0.0,0.0,0.0,0.0,0.0,0.0,0.0,0.0,0.0,0.0,0.0,0.0,0.0,0.0,0.0,0.0,0.0,0.0,0.0,0.0,0.0,0.0,0.0,0.0,0.0,0.0,0.0,0.0,0.0,0.0,0.0,0.0,0.0,0.0,0.0,0.0,0.0,0.0,0.0,0.0,0.0,0.0,0.0,0.0,0.0,0.0,0.0,0.0,0.0,0.0,0.0,0.0,0.0,0.0,0.0,0.0,0.0,0.0,0.0,0.0,0.0,0.8208,0.0,0.0,0.0,0.0,0.0,0.0,0.0,0.0,0.0,0.0,0.0,0.0,0.0,0.0,0.0,0.0,0.0,0.0,0.0,0.0,0.0,0.0,0.0,0.0,0.0,0.0,0.0,0.0,0.0,0.0,0.0,0.0,0.0,0.0,0.0,0.0,0.0,0.0,0.0,0.0,0.0,0.0,0.0,0.0,0.0,0.0,0.0,0.0,0.0,0.0,0.0,0.0,0.0,0.0,0.0,0.0,0.0,0.0,0.0,0.0,0.0,0.0,0.0,0.0,0.0,0.0,0.0,0.0,0.0,0.0,0.0,0.0,0.0,0.0,0.0,0.0,0.0,0.0,0.0,0.0,0.0,0.0,0.0,0.0,0.0,0.0,0.0,0.0,0.0,0.0,0.0,0.0,0.0,0.0,0.0,0.0,0.0,0.0,0.0,0.0,0.0,0.0,0.0,0.0,0.0,0.0,0.0,0.0,0.0,0.0,0.9173,0.8741,0.9153,0.9251,0.8954,0.0,0.0,0.0,0.0,0.0,0.0,0.0,0.0,0.0,0.0,0.0,0.0,0.0,0.0,0.0,0.0,0.0,0.0,0.0,0.0,0.0,0.0,0.0,0.0,0.0,0.0,0.0,0.0,0.0,0.0,0.0,0.0,0.0,0.0,0.0,0.0,0.0,0.0,0.0,0.0,0.0,0.0,0.0,0.0,0.0,0.0,0.0,0.0,0.0,0.0,0.0,0.0,0.0,0.0,0.0,0.0,0.0,0.0,0.0,0.0,0.0,0.0,0.0,0.0,0.0,0.0,0.0,0.0,0.0,0.0,0.0,0.0,0.0,0.0,0.0,0.0,0.0,0.0,0.0,0.0,0.0,0.0,0.0,0.0,0.0,0.0,0.0,0.0,0.0,0.0,0.0,0.0,0.0,0.0,0.0,0.0,0.0,0.0,0.0,0.0,0.0,0.0,0.0,0.0,0.0,0.0,0.0,0.0,0.0,0.0,0.0,0.0,0.9692,0.994,0.9968,0.0,0.0,0.0,0.0,0.0,0.0,0.0,0.0,0.0,0.0,0.0,0.0,0.0,0.0,0.0,0.0,0.0,0.0,0.0,0.0,0.0,0.0,0.0,0.0,0.0,0.0,0.0,0.0,0.0,0.0,0.0,0.0,0.0,0.0,0.0,0.0,0.0,0.0,0.0,0.0,0.0,0.0,0.0,0.0,0.0,0.0,0.0,0.0,0.0,0.0,0.0,0.0,0.0,0.0,0.0,0.0,0.0,0.0,0.0,0.0,0.0,0.0,0.0,0.0,0.0,0.0,0.0,0.0,0.0,0.0,0.0,0.0,0.0,0.0,0.0,0.0,0.0,0.0,0.0,0.0,0.0,0.0,0.0,0.0,0.0,0.0,0.0,0.0,0.0,0.0,0.0,0.0,0.0,0.0,0.0,0.0,0.0,0.0,0.0,0.0,0.0,0.0,0.0,0.0,0.0,0.0,0.0,0.0,0.0,0.0,0.9906,1.0838,1.0526,0.0,1.0932,0.0,0.0,0.0,0.0,0.0,0.0,0.0,0.0,0.0,0.0,0.0,0.0,0.0,0.0,0.0,0.0,0.0,0.0,0.0,0.0,0.0,0.0,0.0,0.0,0.0,0.0,0.0,0.0,0.0,0.0,0.0,0.0,0.0,0.0,0.0,0.0,0.0,0.0,0.0,0.0,0.0,0.0,0.0,0.0,0.0,0.0,0.0,0.0,0.0,0.0,0.0,0.0,0.0,0.0,0.0,0.0,0.0,0.0,0.0,0.0,0.0,0.0,0.0,0.0,0.0,0.0,0.0,0.0,0.0,0.0,0.0,0.0,0.0,0.0,0.0,0.0,0.0,0.0,0.0,0.0,0.0,0.0,0.0,0.0,0.0,0.0,0.0,0.0,0.0,0.0,0.0,0.0,0.0,0.0,0.0,0.0,0.0,0.0,0.0,0.0,0.0,0.0,0.0,0.0,0.0,0.0,0.0,0.0,0.0,0.0,1.0188,1.0329,1.0784,1.1097,0.0,0.0,0.0,0.0,0.0,0.0,0.0,0.0,0.0,0.0,0.0,0.0,0.0,0.0,0.0,0.0,0.0,0.0,0.0,0.0,0.0,0.0,0.0,0.0,0.0,0.0,0.0,0.0,0.0,0.0,0.0,0.0,0.0,0.0,0.0,0.0,0.0,0.0,0.0,0.0,0.0,0.0,0.0,0.0,0.0,0.0,0.0,0.0,0.0,0.0,0.0,0.0,0.0,0.0,0.0,0.0,0.0,0.0,0.0,0.0,0.0,0.0,0.0,0.0,0.0,0.0,0.0,0.0,0.0,0.0,0.0,0.0,0.0,0.0,0.0,0.0,0.0,0.0,0.0,0.0,0.0,0.0,0.0,0.0,0.0,0.0,0.0,0.0,0.0,0.0,0.0,0.0,0.0,0.0,0.0,0.0,0.0,0.0,0.0,0.0,0.0,0.0,0.0,0.0,0.0,0.0,0.0,0.0,0.0,0.0,1.0278,1.0519,1.0598,1.1367,1.1702,1.1489,0.0,0.0,0.0,0.0,0.0,0.0,0.0,0.0,0.0,0.0,0.0,0.0,0.0,0.0,0.0,0.0,0.0,0.0,0.0,0.0,0.0,0.0,0.0,0.0,0.0,0.0,0.0,0.0,0.0,0.0,0.0,0.0,0.0,0.0,0.0,0.0,0.0,0.0,0.0,0.0,0.0,0.0,0.0,0.0,0.0,0.0,0.0,0.0,0.0,0.0,0.0,0.0,0.0,0.0,0.0,0.0,0.0,0.0,0.0,0.0,0.0,0.0,0.0,0.0,0.0,0.0,0.0,0.0,0.0,0.0,0.0,0.0,0.0,0.0,0.0,0.0,0.0,0.0,0.0,0.0,0.0,0.0,0.0,0.0,0.0,0.0,0.0,0.0,0.0,0.0,0.0,0.0,0.0,0.0,0.0,0.0,0.0,0.0,0.0,0.0,0.0,0.0,0.0,0.0,0.0,0.0,0.0,0.0,1.0738,1.0423,1.0924,1.2373,1.251,1.2417,0.0,0.0,0.0,0.0,0.0,0.0,0.0,0.0,0.0,0.0,0.0,0.0,0.0,0.0,0.0,0.0,0.0,0.0,0.0,0.0,0.0,0.0,0.0,0.0,0.0,0.0,0.0,0.0,0.0,0.0,0.0,0.0,0.0,0.0,0.0,0.0,0.0,0.0,0.0,0.0,0.0,0.0,0.0,0.0,0.0,0.0,0.0,0.0,0.0,0.0,0.0,0.0,0.0,0.0,0.0,0.0,0.0,0.0,0.0,0.0,0.0,0.0,0.0,0.0,0.0,0.0,0.0,0.0,0.0,0.0,0.0,0.0,0.0,0.0,0.0,0.0,0.0,0.0,0.0,0.0,0.0,0.0,0.0,0.0,0.0,0.0,0.0,0.0,0.0,0.0,0.0,0.0,0.0,0.0,0.0,0.0,0.0,0.0,0.0,0.0,0.0,0.0,0.0,0.0,0.0,0.0,0.0,0.0,0.0,0.9482,0.9857,1.0817,1.2327,1.2087,1.2073,0.0,0.0,0.0,0.0,0.0,0.0,0.0,0.0,0.0,0.0,0.0,0.0,0.0,0.0,0.0,0.0,0.0,0.0,0.0,0.0,0.0,0.0,0.0,0.0,0.0,0.0,0.0,0.0,0.0,0.0,0.0,0.0,0.0,0.0,0.0,0.0,0.0,0.0,0.0,0.0,0.0,0.0,0.0,0.0,0.0,0.0,0.0,0.0,0.0,0.0,0.0,0.0,0.0,0.0,0.0,0.0,0.0,0.0,0.0,0.0,0.0,0.0,0.0,0.0,0.0,0.0,0.0,0.0,0.0,0.0,0.0,0.0,0.0,0.0,0.0,0.0,0.0,0.0,0.0,0.0,0.0,0.0,0.0,0.0,0.0,0.0,0.0,0.0,0.0,0.0,0.0,0.0,0.0,0.0,0.0,0.0,0.0,0.0,0.0,0.0,0.0,0.0,0.0,0.0,0.0,0.0,0.0,0.0,0.0,0.9659,0.0,1.1272,1.2112,1.1885,1.1885,0.0,0.0,0.0,0.0,0.0,0.0,0.0,0.0,0.0,0.0,0.0,0.0,0.0,0.0,0.0,0.0,0.0,0.0,0.0,0.0,0.0,0.0,0.0,0.0,0.0,0.0,0.0,0.0,0.0,0.0,0.0,0.0,0.0,0.0,0.0,0.0,0.0,0.0,0.0,0.0,0.0,0.0,0.0,0.0,0.0,0.0,0.0,0.0,0.0,0.0,0.0,0.0,0.0,0.0,0.0,0.0,0.0,0.0,0.0,0.0,0.0,0.0,0.0,0.0,0.0,0.0,0.0,0.0,0.0,0.0,0.0,0.0,0.0,0.0,0.0,0.0,0.0,0.0,0.0,0.0,0.0,0.0,0.0,0.0,0.0,0.0,0.0,0.0,0.0,0.0,0.0,0.0,0.0,0.0,0.0,0.0,0.0,0.0,0.0,0.0,0.0,0.0,0.0,0.0,0.0,0.0,0.0,0.0,1.1296,1.156,1.2148,1.2265,1.193,1.2085,1.1969,0.0,0.0,0.0,0.0,0.0,0.0,0.0,0.0,0.0,0.0,0.0,0.0,0.0,0.0,0.0,0.0,0.0,0.0,0.0,0.0,0.0,0.0,0.0,0.0,0.0,0.0,0.0,0.0,0.0,0.0,0.0,0.0,0.0,0.0,0.0,0.0,0.0,0.0,0.0,0.0,0.0,0.0,0.0,0.0,0.0,0.0,0.0,0.0,0.0,0.0,0.0,0.0,0.0,0.0,0.0,0.0,0.0,0.0,0.0,0.0,0.0,0.0,0.0,0.0,0.0,0.0,0.0,0.0,0.0,0.0,0.0,0.0,0.0,0.0,0.0,0.0,0.0,0.0,0.0,0.0,0.0,0.0,0.0,0.0,0.0,0.0,0.0,0.0,0.0,0.0,0.0,0.0,0.0,0.0,0.0,0.0,0.0,0.0,0.0,0.0,0.0,0.0,0.0,0.0,0.0,0.0,0.0,0.0,0.0,1.1264,1.1136,1.1563,1.2528,1.2017,1.202,0.0,0.0,0.0,0.0,0.0,0.0,0.0,0.0,0.0,0.0,0.0,0.0,0.0,0.0,0.0,0.0,0.0,0.0,0.0,0.0,0.0,0.0,0.0,0.0,0.0,0.0,0.0,0.0,0.0,0.0,0.0,0.0,0.0,0.0,0.0,0.0,0.0,0.0,0.0,0.0,0.0,0.0,0.0,0.0,0.0,0.0,0.0,0.0,0.0,0.0,0.0,0.0,0.0,0.0,0.0,0.0,0.0,0.0,0.0,0.0,0.0,0.0,0.0,0.0,0.0,0.0,0.0,0.0,0.0,0.0,0.0,0.0,0.0,0.0,0.0,0.0,0.0,0.0,0.0,0.0,0.0,0.0,0.0,0.0,0.0,0.0,0.0,0.0,0.0,0.0,0.0,0.0,0.0,0.0,0.0,0.0,0.0,0.0,0.0,0.0,0.0,0.0,0.0,0.0,0.0,0.0,0.0,0.0,0.0,1.31,1.2574,1.2628,1.3298,1.3093,1.2811,1.2426,0.0,0.0,0.0,0.0,0.0,0.0,0.0,0.0,0.0,0.0,0.0,0.0,0.0,0.0,0.0,0.0,0.0,0.0,0.0,0.0,0.0,0.0,0.0,0.0,0.0,0.0,0.0,0.0,0.0,0.0,0.0,0.0,0.0,0.0,0.0,0.0,0.0,0.0,0.0,0.0,0.0,0.0,0.0,0.0,0.0,0.0,0.0,0.0,0.0,0.0,0.0,0.0,0.0,0.0,0.0,0.0,0.0,0.0,0.0,0.0,0.0,0.0,0.0,0.0,0.0,0.0,0.0,0.0,0.0,0.0,0.0,0.0,0.0,0.0,0.0,0.0,0.0,0.0,0.0,0.0,0.0,0.0,0.0,0.0,0.0,0.0,0.0,0.0,0.0,0.0,0.0,0.0,0.0,0.0,0.0,0.0,0.0,0.0,0.0,0.0,0.0,0.0,0.0,0.0,0.0,0.0,0.0,0.0,1.6662,1.6173,1.5424,1.4432,1.5118,1.422,0.0,0.0,0.0,0.0,0.0,0.0,0.0,0.0,0.0,0.0,0.0,0.0,0.0,0.0,0.0,0.0,0.0,0.0,0.0,0.0,0.0,0.0,0.0,0.0,0.0,0.0,0.0,0.0,0.0,0.0,0.0,0.0,0.0,0.0,0.0,0.0,0.0,0.0,0.0,0.0,0.0,0.0,0.0,0.0,0.0,0.0,0.0,0.0,0.0,0.0,0.0,0.0,0.0,0.0,0.0,0.0,0.0,0.0,0.0,0.0,0.0,0.0,0.0,0.0,0.0,0.0,0.0,0.0,0.0,0.0,0.0,0.0,0.0,0.0,0.0,0.0,0.0,0.0,0.0,0.0,0.0,0.0,0.0,0.0,0.0,0.0,0.0,0.0,0.0,0.0,0.0,0.0,0.0,0.0,0.0,0.0,0.0,0.0,0.0,0.0,0.0,0.0,0.0,0.0,0.0,0.0,0.0,0.0,0.0,1.8988,2.0065,1.991,1.8526,1.6846,1.5516,0.0,0.0,0.0,0.0,0.0,0.0,0.0,0.0,0.0,0.0,0.0,0.0,0.0,0.0,0.0,0.0,0.0,0.0,0.0,0.0,0.0,0.0,0.0,0.0,0.0,0.0,0.0,0.0,0.0,0.0,0.0,0.0,0.0,0.0,0.0,0.0,0.0,0.0,0.0,0.0,0.0,0.0,0.0,0.0,0.0,0.0,0.0,0.0,0.0,0.0,0.0,0.0,0.0,0.0,0.0,0.0,0.0,0.0,0.0,0.0,0.0,0.0,0.0,0.0,0.0,0.0,0.0,0.0,0.0,0.0,0.0,0.0,0.0,0.0,0.0,0.0,0.0,0.0,0.0,0.0,0.0,0.0,0.0,0.0,0.0,0.0,0.0,0.0,0.0,0.0,0.0,0.0,0.0,0.0,0.0,0.0,0.0,0.0,0.0,0.0,0.0,0.0,0.0,0.0,0.0,0.0,0.0,0.0,1.7634,2.0252,2.2294,2.33,2.3257,2.0334,1.767,0.0,0.0,0.0,0.0,0.0,0.0,0.0,0.0,0.0,0.0,0.0,0.0,0.0,0.0,0.0,0.0,0.0,0.0,0.0,0.0,0.0,0.0,0.0,0.0,0.0,0.0,0.0,0.0,0.0,0.0,0.0,0.0,0.0,0.0,0.0,0.0,0.0,0.0,0.0,0.0,0.0,0.0,0.0,0.0,0.0,0.0,0.0,0.0,0.0,0.0,0.0,0.0,0.0,0.0,0.0,0.0,0.0,0.0,0.0,0.0,0.0,0.0,0.0,0.0,0.0,0.0,0.0,0.0,0.0,0.0,0.0,0.0,0.0,0.0,0.0,0.0,0.0,0.0,0.0,0.0,0.0,0.0,0.0,0.0,0.0,0.0,0.0,0.0,0.0,0.0,0.0,0.0,0.0,0.0,0.0,0.0,0.0,0.0,0.0,0.0,0.0,0.0,0.0,0.0,0.0,0.0,0.0,0.0,1.8802,2.1065,2.3529,2.5733,2.7466,2.4076,1.9957,0.0,0.0,0.0,0.0,0.0,0.0,0.0,0.0,0.0,0.0,0.0,0.0,0.0,0.0,0.0,0.0,0.0,0.0,0.0,0.0,0.0,0.0,0.0,0.0,0.0,0.0,0.0,0.0,0.0,0.0,0.0,0.0,0.0,0.0,0.0,0.0,0.0,0.0,0.0,0.0,0.0,0.0,0.0,0.0,0.0,0.0,0.0,0.0,0.0,0.0,0.0,0.0,0.0,0.0,0.0,0.0,0.0,0.0,0.0,0.0,0.0,0.0,0.0,0.0,0.0,0.0,0.0,0.0,0.0,0.0,0.0,0.0,0.0,0.0,0.0,0.0,0.0,0.0,0.0,0.0,0.0,0.0,0.0,0.0,0.0,0.0,0.0,0.0,0.0,0.0,0.0,0.0,0.0,0.0,0.0,0.0,0.0,0.0,0.0,0.0,0.0,0.0,0.0,0.0,0.0,0.0,0.0,0.0,2.0364,2.3617,2.5308,2.684,2.8169,2.3054,1.9514,0.0,0.0,0.0,0.0,0.0,0.0,0.0,0.0,0.0,0.0,0.0,0.0,0.0,0.0,0.0,0.0,0.0,0.0,0.0,0.0,0.0,0.0,0.0,0.0,0.0,0.0,0.0,0.0,0.0,0.0,0.0,0.0,0.0,0.0,0.0,0.0,0.0,0.0,0.0,0.0,0.0,0.0,0.0,0.0,0.0,0.0,0.0,0.0,1.1877,0.0,0.0,0.0,0.0,0.0,0.0,0.0,0.0,0.0,0.0,0.0,0.0,0.0,0.0,0.0,0.0,0.0,0.0,0.0,0.0,0.0,0.0,0.0,0.0,0.0,0.0,0.0,0.0,0.0,0.0,0.0,0.0,0.0,0.0,0.0,0.0,0.0,0.0,0.0,0.0,0.0,0.0,0.0,0.0,0.0,0.0,0.0,0.0,0.0,0.0,0.0,0.0,0.0,0.0,0.0,0.0,0.0,0.0,0.0,2.0714,2.3973,2.5728,2.7225,2.8244,2.369,2.0367,0.0,0.0,0.0,0.0,0.0,0.0,0.0,0.0,0.0,0.0,0.0,0.0,0.0,0.0,0.0,0.0,0.0,0.0,0.0,0.0,0.0,0.0,0.0,0.0,0.0,0.0,0.0,0.0,0.0,0.0,0.0,0.0,0.0,0.0,0.0,0.0,0.0,0.0,0.0,0.0,0.0,0.0,0.0,0.0,0.0,0.0,0.0,0.0,0.0,0.0,0.0,0.0,0.0,0.0,0.0,0.0,0.0,0.0,0.0,0.0,0.0,0.0,0.0,0.0,0.0,0.0,0.0,0.0,0.0,0.0,0.0,0.0,0.0,0.0,0.0,0.0,0.0,0.0,0.0,0.0,0.0,0.0,0.0,0.0,0.0,0.0,0.0,0.0,0.0,0.0,0.0,0.0,0.0,0.0,0.0,0.0,0.0,0.0,0.0,0.0,0.0,0.0,0.0,0.0,0.0,0.0,0.0,1.8138,2.0807,2.3952,2.5835,2.7353,2.8465,2.486,2.163,1.9121,0.0,0.0,0.0,0.0,0.0,0.0,0.0,0.0,0.0,0.0,0.0,0.0,0.0,0.0,0.0,0.0,0.0,0.0,0.0,0.0,0.0,0.0,0.0,0.0,0.0,0.0,0.0,0.0,0.0,0.0,0.0,0.0,0.0,0.0,0.0,0.0,0.0,0.0,1.0427,1.0725,0.0,0.0,0.0,0.0,0.0,0.0,0.0,0.0,1.2546,0.0,0.0,0.0,0.0,0.0,0.0,0.0,0.0,0.0,0.0,0.0,0.0,0.0,0.0,0.0,0.0,0.0,0.0,0.0,0.0,0.0,0.0,0.0,0.0,0.0,0.0,0.0,0.0,0.0,0.0,0.0,0.0,0.0,0.0,0.0,0.0,0.0,0.0,0.0,0.0,0.0,0.0,0.0,0.0,0.0,0.0,0.0,0.0,0.0,0.0,0.0,0.0,0.0,0.0,0.0,0.0,1.7645,1.917,2.1922,2.5898,2.6934,2.7775,2.8387,2.5236,2.2473,2.0389,0.0,0.0,0.0,0.0,0.0,0.0,0.0,0.0,0.0,0.0,0.0,0.0,0.0,0.0,0.0,0.0,0.0,0.0,0.0,0.0,0.0,0.0,0.0,0.0,0.0,0.0,0.0,0.0,0.0,0.0,0.0,0.0,0.0,0.0,0.0,0.0,0.0,0.0,0.0,1.0714,1.0986,0.0,0.0,0.0,0.0,0.0,0.0,0.0,0.0,1.3387,0.0,0.0,0.0,0.0,0.0,0.0,0.0,0.0,0.0,0.0,0.0,0.0,0.0,0.0,0.0,0.0,0.0,0.0,0.0,0.0,0.0,0.0,0.0,0.0,0.0,0.0,0.0,0.0,0.0,0.0,0.0,0.0,0.0,0.0,0.0,0.0,0.0,0.0,0.0,0.0,0.0,0.0,0.0,0.0,0.0,0.0,0.0,0.0,0.0,0.0,0.0,0.0,0.0,0.0,0.0,1.8253,2.0365,2.2935,2.5955,2.7055,2.7585,2.747,2.4976,2.2517,0.0,0.0,0.0,0.0,0.0,0.0,0.0,0.0,0.0,0.0,0.0,0.0,0.0,0.0,0.0,0.0,0.0,0.0,0.0,0.0,0.0,0.0,0.0,0.0,0.0,0.0,0.0,0.0,0.0,0.0,0.0,0.0,0.0,0.0,0.0,0.0,0.0,0.0,0.0,0.0,1.1319,1.1538,1.3061,0.0,0.0,0.0,0.0,0.0,0.0,1.3936,1.4163,0.0,0.0,0.0,0.0,0.0,0.0,0.0,0.0,0.0,0.0,0.0,0.0,0.0,0.0,0.0,0.0,0.0,0.0,0.0,0.0,0.0,0.0,0.0,0.0,0.0,0.0,0.0,0.0,0.0,0.0,0.0,0.0,0.0,0.0,0.0,0.0,0.0,0.0,0.0,0.0,0.0,0.0,0.0,0.0,0.0,0.0,0.0,0.0,0.0,0.0,0.0,0.0,0.0,0.0,0.0,1.8732,2.1382,2.3614,2.536,2.6716,2.7078,2.639,2.4193,2.2024,0.0,0.0,0.0,0.0,0.0,0.0,0.0,0.0,0.0,0.0,0.0,0.0,0.0,0.0,0.0,0.0,0.0,0.0,0.0,0.0,0.0,0.0,0.0,0.0,0.0,0.0,0.0,0.0,0.0,0.0,0.0,0.0,0.0,0.0,0.0,0.0,0.0,0.0,0.0,0.0,0.0,1.2288,1.3598,1.3496,0.0,0.0,0.0,0.0,1.4113,1.4552,0.0,0.0,0.0,0.0,0.0,0.0,0.0,0.0,0.0,0.0,0.0,0.0,0.0,0.0,0.0,0.0,0.0,0.0,0.0,0.0,0.0,0.0,0.0,0.0,0.0,0.0,0.0,0.0,0.0,0.0,0.0,0.0,0.0,0.0,0.0,0.0,0.0,0.0,0.0,0.0,0.0,0.0,0.0,0.0,0.0,0.0,0.0,0.0,0.0,0.0,0.0,0.0,0.0,0.0,0.0,0.0,1.9484,2.1768,2.3548,2.4706,2.6019,2.6393,2.5704,2.2687,2.0897,0.0,0.0,0.0,0.0,0.0,0.0,0.0,0.0,0.0,0.0,0.0,0.0,0.0,0.0,0.0,0.0,0.0,0.0,0.0,0.0,0.0,0.0,0.0,0.0,0.0,0.0,0.0,0.0,0.0,0.0,0.0,0.0,0.0,0.0,0.0,0.0,0.0,0.0,0.0,0.0,0.0,1.2809,1.4578,1.4198,1.3835,0.0,0.0,1.4918,1.4792,1.5481,0.0,0.0,0.0,0.0,0.0,0.0,0.0,0.0,0.0,0.0,0.0,0.0,0.0,0.0,0.0,0.0,0.0,0.0,0.0,0.0,0.0,0.0,0.0,0.0,0.0,0.0,0.0,0.0,0.0,0.0,0.0,0.0,0.0,0.0,0.0,0.0,0.0,0.0,0.0,0.0,0.0,0.0,0.0,0.0,0.0,0.0,0.0,0.0,0.0,0.0,0.0,0.0,0.0,0.0,0.0,1.8853,1.9673,2.2812,2.4503,2.4646,2.5914,2.6093,2.5053,2.2223,2.0518,0.0,0.0,0.0,0.0,0.0,0.0,0.0,0.0,0.0,0.0,0.0,0.0,0.0,0.0,0.0,0.0,0.0,0.0,0.0,0.0,0.0,0.0,0.0,0.0,0.0,0.0,0.0,0.0,0.0,0.0,0.0,0.0,0.0,0.0,0.0,0.0,0.0,0.0,0.0,0.0,0.0,0.0,1.525,1.5093,0.0,0.0,0.0,1.5345,1.5115,0.0,0.0,0.0,0.0,0.0,0.0,0.0,0.0,0.0,0.0,0.0,0.0,0.0,0.0,0.0,0.0,0.0,0.0,0.0,0.0,0.0,0.0,0.0,0.0,0.0,0.0,0.0,0.0,0.0,0.0,0.0,0.0,0.0,0.0,0.0,0.0,0.0,0.0,0.0,0.0,0.0,0.0,0.0,0.0,0.0,0.0,0.0,0.0,0.0,0.0,0.0,0.0,0.0,0.0,0.0,0.0,0.0,2.0176,2.3735,2.5364,2.4877,2.5824,2.5857,2.4844,2.2477,0.0,0.0,0.0,0.0,0.0,0.0,0.0,0.0,0.0,0.0,0.0,0.0,0.0,0.0,0.0,0.0,0.0,0.0,0.0,0.0,0.0,0.0,0.0,0.0,0.0,0.0,0.0,1.1492,0.0,0.0,0.0,0.0,0.0,0.0,0.0,0.0,0.0,0.0,0.0,0.0,0.0,0.0,1.5066,1.5584,1.5783,1.5856,0.0,0.0,1.5799,1.5613,1.6514,1.7035,0.0,0.0,0.0,0.0,0.0,0.0,0.0,0.0,0.0,0.0,0.0,0.0,0.0,0.0,0.0,0.0,0.0,0.0,0.0,0.0,0.0,0.0,0.0,0.0,0.0,0.0,0.0,0.0,0.0,0.0,0.0,0.0,0.0,0.0,0.0,0.0,0.0,0.0,0.0,0.0,0.0,0.0,0.0,0.0,0.0,0.0,0.0,0.0,0.0,0.0,0.0,0.0,0.0,0.0,2.0926,2.164,2.4216,2.5585,2.5555,2.5618,2.5618,2.5513,2.3606,2.2239,0.0,0.0,0.0,0.0,0.0,0.0,0.0,0.0,0.0,0.0,0.0,0.0,0.0,0.0,0.0,0.0,0.0,0.0,0.0,0.0,0.0,0.0,0.0,0.0,0.0,0.0,0.0,0.0,0.0,0.0,0.0,0.0,0.0,0.0,0.0,0.0,0.0,0.0,0.0,0.0,0.0,1.4958,1.5461,1.5997,1.6413,0.0,1.6481,1.6415,1.6572,1.7321,1.7773,1.7275,0.0,0.0,0.0,0.0,0.0,0.0,0.0,0.0,0.0,0.0,0.0,0.0,0.0,0.0,0.0,0.0,0.0,0.0,0.0,0.0,0.0,0.0,0.0,0.0,0.0,0.0,0.0,0.0,0.0,0.0,0.0,0.0,0.0,0.0,0.0,0.0,0.0,0.0,0.0,0.0,0.0,0.0,0.0,0.0,0.0,0.0,0.0,0.0,0.0,0.0,0.0,0.0,0.0,2.1021,2.1727,2.4272,2.56,2.563,2.6004,2.6019,2.5603,2.4073,2.2757,0.0,0.0,0.0,0.0,0.0,0.0,0.0,0.0,0.0,0.0,0.0,0.0,0.0,0.0,0.0,0.0,0.0,0.0,0.0,0.0,0.0,0.0,0.0,0.0,0.0,0.0,0.0,0.0,1.4833,1.517,1.5374,0.0,0.0,0.0,0.0,0.0,0.0,0.0,0.0,0.0,0.0,1.4022,1.4945,1.5441,0.0,0.0,1.627,1.6416,1.5962,1.6619,1.6762,1.5539,1.5314,0.0,0.0,0.0,0.0,0.0,0.0,0.0,0.0,0.0,0.0,0.0,0.0,0.0,0.0,0.0,0.0,0.0,0.0,0.0,0.0,0.0,0.0,0.0,0.0,0.0,0.0,0.0,0.0,0.0,0.0,0.0,0.0,0.0,0.0,0.0,0.0,0.0,0.0,0.0,0.0,0.0,0.0,0.0,0.0,0.0,0.0,0.0,0.0,0.0,0.0,0.0,0.0,2.1284,2.1867,2.4511,2.5989,2.6198,2.6465,2.6467,2.6195,2.5102,2.3969,0.0,0.0,0.0,0.0,0.0,0.0,0.0,0.0,0.0,0.0,0.0,0.0,0.0,0.0,0.0,0.0,0.0,0.0,0.0,0.0,0.0,0.0,0.0,0.0,0.0,0.0,0.0,0.0,1.5753,1.6007,1.6193,0.0,0.0,0.0,0.0,0.0,0.0,0.0,0.0,0.0,0.0,1.36,1.4187,1.4635,1.4939,1.5018,1.5534,1.579,1.5454,1.603,1.6174,1.5141,0.0,0.0,0.0,0.0,0.0,0.0,0.0,0.0,0.0,0.0,0.0,0.0,0.0,0.0,0.0,0.0,0.0,0.0,0.0,0.0,0.0,0.0,0.0,0.0,0.0,0.0,0.0,1.5554,0.0,0.0,1.464,0.0,0.0,0.0,0.0,0.0,0.0,0.0,0.0,0.0,0.0,0.0,0.0,0.0,0.0,0.0,0.0,0.0,0.0,0.0,0.0,0.0,0.0,2.1858,2.2223,2.5081,2.6869,2.748,2.6941,2.6914,2.7465,2.6896,2.6198,2.5468,0.0,0.0,0.0,0.0,0.0,0.0,0.0,0.0,0.0,0.0,0.0,0.0,0.0,0.0,0.0,0.0,0.0,0.0,0.0,0.0,0.0,0.0,0.0,0.0,0.0,0.0,1.5082,1.5869,1.6699,0.0,0.0,0.0,0.0,0.0,0.0,0.0,0.0,0.0,1.2772,1.357,1.3948,1.3152,1.3603,1.4114,1.4363,1.4289,1.4457,1.5235,1.5776,1.6297,0.0,0.0,0.0,0.0,0.0,0.0,0.0,0.0,0.0,0.0,0.0,0.0,0.0,0.0,0.0,0.0,0.0,0.0,0.0,0.0,0.0,0.0,0.0,0.0,0.0,0.0,0.0,1.7522,1.6928,0.0,0.0,0.0,0.0,0.0,0.0,0.0,0.0,0.0,0.0,0.0,2.0078,2.0612,0.0,0.0,0.0,0.0,0.0,0.0,0.0,0.0,0.0,0.0,0.0,0.0,2.2234,2.3307,2.5458,2.6929,2.757,2.739,2.7375,2.7585,2.739,2.6734,2.5618,0.0,0.0,0.0,0.0,0.0,0.0,0.0,0.0,0.0,0.0,0.0,0.0,0.0,0.0,0.0,0.0,0.0,0.0,0.0,0.0,0.0,0.0,0.0,0.0,0.0,1.635,0.0,0.0,0.0,0.0,0.0,0.0,0.0,0.0,0.0,0.0,1.3881,1.3417,1.2341,1.2267,1.2155,1.1742,1.2403,1.3172,0.0,0.0,0.0,0.0,0.0,0.0,0.0,0.0,0.0,0.0,0.0,0.0,0.0,0.0,1.5294,1.6606,1.695,1.7019,1.7033,0.0,0.0,0.0,0.0,0.0,0.0,0.0,0.0,0.0,0.0,0.0,0.0,0.0,0.0,1.9271,1.8723,1.8812,0.0,0.0,0.0,0.0,0.0,0.0,0.0,0.0,2.0384,2.1445,2.2103,2.2981,2.3385,2.3422,2.3647,2.2485,0.0,0.0,0.0,0.0,0.0,0.0,0.0,0.0,2.276,2.3491,2.5754,2.7165,2.757,2.7585,2.7585,2.7585,2.7585,2.7195,2.633,2.5016,2.374,0.0,0.0,0.0,0.0,0.0,0.0,0.0,0.0,0.0,0.0,0.0,0.0,0.0,0.0,0.0,0.0,0.0,0.0,0.0,0.0,0.0,0.0,0.0,1.688,0.0,0.0,0.0,0.0,0.0,0.0,0.0,0.0,0.0,1.3694,1.3507,1.302,1.1939,1.1807,1.1607,1.0953,0.0,0.0,0.0,0.0,0.0,0.0,0.0,1.3581,1.2801,1.3411,1.3918,1.3818,1.4085,1.4339,1.4347,0.0,0.0,1.6098,1.6247,1.6262,1.6262,1.5419,1.462,1.4367,1.3629,1.2884,0.0,0.0,0.0,0.0,1.9437,0.0,0.0,0.0,2.0624,2.0674,0.0,2.1202,0.0,0.0,0.0,0.0,1.7991,1.9205,0.0,0.0,2.4107,2.5307,2.4889,2.6093,2.6704,2.6614,2.5435,2.4825,2.4698,2.4225,2.3465,0.0,0.0,0.0,0.0,0.0,2.3464,2.3041,2.6051,2.7645,2.7675,2.766,2.7615,2.76,2.7585,2.7585,2.754,2.6318,2.5644,2.5531,2.3195,0.0,0.0,0.0,0.0,0.0,0.0,0.0,0.0,0.0,0.0,0.0,0.0,0.0,0.0,0.0,0.0,0.0,0.0,0.0,0.0,1.6932,0.0,0.0,0.0,0.0,0.0,0.0,0.0,0.0,0.0,1.381,1.298,1.2879,1.2532,1.1563,0.0,0.0,0.0,0.0,1.2043,1.0975,1.1326,1.1762,1.1797,1.2601,1.3493,1.424,0.0,0.0,1.5853,1.5252,1.475,1.4788,1.5309,1.5578,1.4506,1.3973,1.355,1.3493,1.3209,1.2499,1.1923,1.2202,1.1922,2.5508,0.0,0.0,0.0,0.0,2.3461,2.4393,2.5256,2.5164,2.4763,2.4167,2.3799,0.0,0.0,0.0,0.0,0.0,0.0,2.2942,2.4911,2.5884,2.6961,2.8188,2.8996,2.916,2.874,2.88,2.8592,2.8186,2.8006,2.6057,2.2377,0.0,0.0,0.0,0.0,2.421,2.5898,2.7494,2.8545,2.9037,2.856,2.8081,2.7627,2.7585,2.7585,2.7585,2.724,2.6584,2.5633,2.4885,0.0,0.0,0.0,0.0,0.0,0.0,0.0,0.0,0.0,0.0,0.0,0.0,0.0,0.0,0.0,0.0,0.0,0.0,0.0,1.8363,1.7795,1.7483,0.0,0.0,0.0,0.0,0.0,0.0,0.0,0.0,0.0,1.3301,1.2969,1.2577,0.0,0.0,1.158,1.117,1.1282,1.1528,1.1789,1.2019,0.0,1.2697,1.3134,1.3298,1.2999,1.353,1.4006,1.4006,1.4166,1.4289,1.4303,1.43,1.418,1.3959,1.4682,1.518,1.5067,1.4346,1.3714,1.3479,1.3166,1.2794,2.972,2.7069,2.5492,2.5087,2.5517,2.6306,2.7187,2.8091,2.8079,2.7758,2.7198,2.7024,2.5734,2.3606,2.2802,0.0,0.0,0.0,2.5656,2.8156,2.8427,2.934,3.0731,3.1404,3.1495,3.1165,3.124,3.1091,3.0731,2.9699,2.7813,2.5075,0.0,2.3146,2.3904,2.4761,2.5889,2.7327,2.8447,2.9189,2.9592,2.9204,2.8667,2.8021,2.8006,2.7857,2.76,2.7585,2.7225,2.6422,2.5807,2.4603,0.0,0.0,0.0,0.0,0.0,0.0,0.0,0.0,0.0,0.0,0.0,1.5961,1.6159,0.0,0.0,0.0,1.7709,1.8112,1.8493,1.768,0.0,0.0,0.0,0.0,0.0,0.0,0.0,1.4862,1.3811,1.31,1.3033,1.2742,1.2547,1.2579,1.2277,1.1983,1.1736,0.0,1.1977,1.2246,1.2305,1.2425,1.2792,1.3139,1.3296,1.307,1.3307,1.3547,1.3567,1.3861,1.4096,1.4068,1.392,1.3767,1.3626,1.4484,1.5071,1.4797,1.4262,1.3837,1.3806,1.356,1.3333,3.3351,3.2422,2.8842,2.7778,2.846,2.8542,2.9128,2.9981,2.9982,2.9966,2.9939,3.0446,2.9295,2.6886,2.5072,0.0,2.7066,2.7078,2.8442,3.0836,3.1405,3.2019,3.2691,3.3275,3.3544,3.3455,3.2916,3.2632,3.2452,3.0178,2.9085,2.9225,2.8728,2.7436,2.559,2.7099,2.7887,2.7715,2.8889,2.9563,2.9668,2.9668,2.934,2.8697,2.8682,2.8395,2.7807,2.775,2.772,2.7634,2.6321,2.5454,2.5177,0.0,0.0,0.0,0.0,0.0,0.0,0.0,0.0,0.0,0.0,0.0,0.0,0.0,0.0,1.7763,1.7714,0.0,1.8035,1.7204,0.0,0.0,0.0,1.8328,1.8955,1.8054,1.682,1.5358,0.0,0.0,1.2464,1.2371,1.2605,1.3213,1.322,1.2952,1.2471,1.2842,1.2987,1.2485,1.2438,1.2465,1.2632,1.3018,1.3487,1.3909,1.4109,1.4069,1.4048,1.4089,1.4109,1.4109,1.4103,1.4008,1.3707,1.3742,1.3553,1.344,1.33,1.3266,1.3293,1.3494,1.3594,3.5444,3.4712,3.3773,3.2659,3.1549,3.2555,3.3111,3.3335,3.3335,3.3051,3.2557,3.2183,3.139,3.03,2.985,3.0164,3.1091,3.1091,3.1973,3.3485,3.3185,3.3395,3.4024,3.4188,3.3994,3.356,3.3859,3.3754,3.3245,3.2647,3.1372,2.9634,3.0314,2.9143,2.6181,2.616,2.6922,2.8353,2.8667,2.931,3.0238,3.0283,2.9983,2.9383,2.9353,2.9294,2.9129,2.9114,2.8889,2.8384,2.7847,2.6702,2.4767,2.3577,0.0,0.0,0.0,0.0,0.0,0.0,0.0,0.0,0.0,1.7859,1.7106,0.0,1.7933,0.0,1.7734,1.8876,2.0118,1.926,0.0,0.0,1.8404,1.8078,1.824,1.7135,1.6043,1.5284,1.4081,1.3187,1.3019,1.2973,1.328,1.4047,1.3213,1.2663,1.3134,1.3176,1.3166,1.304,1.3353,1.3654,1.3627,1.3768,1.3929,1.4083,1.4109,1.4109,1.4109,1.4109,1.4109,1.4109,1.4109,1.4055,1.3988,1.3981,1.3961,1.3881,1.368,1.35,1.3507,1.3754,1.3976,3.5879,3.5489,3.5489,3.4861,3.3888,3.4622,3.4952,3.4936,3.4952,3.4741,3.4337,3.3679,3.3185,3.2841,3.2527,3.2751,3.3365,3.338,3.3948,3.4922,3.4562,3.4577,3.4937,3.4952,3.4741,3.4412,3.4756,3.4757,3.4397,3.4083,3.3216,3.1793,3.2198,3.1143,2.8654,2.7505,2.746,2.8493,2.8871,2.9669,3.0911,3.0928,3.0387,2.9219,2.9144,2.8725,2.7859,2.7814,2.7649,2.728,2.7076,2.6209,2.454,2.3498,2.2247,0.0,0.0,0.0,0.0,0.0,0.0,0.0,0.0,0.0,0.0,0.0,1.8442,1.8124,1.8586,1.9331,2.0373,1.9577,1.9106,1.9412,1.8778,1.8386,1.8592,1.7237,1.61,1.5642,1.4653,1.3935,1.3794,1.3774,1.4015,1.4629,1.3895,1.3426,1.3803,1.3749,1.3601,1.3614,1.3881,1.4109,1.4109,1.4109,1.4109,1.4109,1.4109,1.4109,1.4109,1.4109,1.4109,1.4109,1.4109,1.4109,1.4109,1.4109,1.4109,1.4068,1.3961,1.3834,1.382,1.3989,1.4109,3.5722,3.5639,3.5714,3.5742,3.5727,3.5669,3.5579,3.5489,3.5489,3.5489,3.5459,3.4877,3.4622,3.4608,3.4024,3.4084,3.4622,3.4607,3.4937,3.5489,3.5489,3.5489,3.5489,3.5489,3.5489,3.5489,3.5603,3.5587,3.5504,3.5018,3.4645,3.4375,3.3816,3.2841,3.1482,2.972,2.8716,2.8452,2.9273,3.0208,3.1212,3.1077,3.0194,2.8577,2.8472,2.7649,2.5959,2.5771,2.5691,2.5595,2.5326,2.497,2.4504,2.323,2.2333,0.0,2.1417,0.0,0.0,0.0,0.0,0.0,0.0,0.0,0.0,1.8184,1.8964,2.0189,1.9737,1.9558,2.0031,1.9302,1.908,1.9774,1.9161,1.8803,1.9118,1.7683,1.6461,1.6134,1.5462,1.4865,1.4536,1.4527,1.4683,1.4952,1.4716,1.4517,1.4576,1.4384,1.4216,1.4223,1.4162,1.4162,1.4123,1.4109,1.4109,1.4109,1.4109,1.4109,1.4109,1.4109,1.4109,1.4109,1.4109,1.4109,1.4109,1.4109,1.4109,1.4109,1.4096,1.4089,1.404,1.3872,1.387,3.6861,3.6374,3.6836,3.7045,3.7,3.6507,3.5998,3.5504,3.5489,3.5489,3.5489,3.537,3.5325,3.5295,3.5175,3.519,3.531,3.531,3.5385,3.5489,3.5489,3.5489,3.5489,3.5489,3.5489,3.5538,3.6117,3.6086,3.5506,3.598,3.5398,3.3884,3.3622,3.2825,3.1517,0.0,0.0,0.0,2.9738,3.0208,2.9937,2.8889,2.8156,2.7809,2.7794,0.0,2.7215,2.6703,2.6159,2.5616,2.494,0.0,0.0,0.0,0.0,0.0,0.0,0.0,0.0,0.0,0.0,0.0,1.904,1.8789,1.8803,1.8381,1.8847,2.0619,2.0206,2.0252,2.1362,2.0425,1.9809,1.9913,1.8971,1.8327,1.838,1.7344,1.6468,1.612,1.544,1.4885,1.4609,1.473,1.5006,1.5273,1.5086,1.5019,1.519,1.4979,1.4812,1.4805,1.4583,1.4355,1.4136,1.4129,1.4136,1.4109,1.4109,1.4109,1.4109,1.4109,1.4109,1.4109,1.4109,1.4109,1.4109,1.4109,1.4109,1.4109,1.4109,1.4109,1.4088,1.3315,1.2632,3.7174,3.6553,3.715,3.7387,0.0,3.6763,3.6477,3.6402,3.5757,3.5699,3.5968,3.5639,3.5699,3.5968,3.5654,3.5489,3.5489,3.5489,3.5489,3.5489,3.5489,3.5489,3.5489,3.5489,3.5489,3.5522,3.6244,3.6415,3.6086,3.6415,3.6314,3.5717,3.4912,3.4318,3.3991,3.3328,3.1989,3.0046,3.0673,3.1002,3.1001,3.0371,2.9548,2.8633,2.8588,0.0,0.0,0.0,0.0,0.0,0.0,0.0,0.0,2.3968,2.3709,2.3929,2.2994,2.2432,2.2466,2.2064,2.1537,2.0936,2.0635,2.0199,1.9555,1.9555,2.0093,2.129,2.1105,2.124,2.2048,2.1076,2.0345,2.0277,1.8933,1.7879,1.7568,1.6779,1.6079,1.5817,1.5538,1.5284,1.499,1.507,1.5291,1.5515,1.5364,1.5284,1.5504,1.526,1.5015,1.5008,1.4872,1.4689,1.4586,1.4382,1.4295,1.4289,1.4182,1.4116,1.4109,1.4109,1.4109,1.4109,1.4109,1.4109,1.4109,1.4109,1.4109,1.4109,1.4109,1.3843,1.3379,1.2717,1.2109,3.7526,3.6883,3.7375,3.7584,3.7524,3.6911,3.6926,3.7313,3.6282,0.0,0.0,3.6028,3.6073,3.6449,3.5923,3.5593,3.5488,3.5489,3.5489,3.5489,3.5489,3.5489,3.5489,3.5489,3.5489,3.5522,3.6399,3.6645,3.643,3.6676,3.707,3.7412,3.618,3.5783,3.6337,3.5814,3.4411,3.2303,3.1854,3.1809,3.2138,3.1929,3.1001,2.9294,2.9247,2.8309,2.6391,2.62,2.5727,2.4896,2.4712,2.4534,2.4248,2.4216,2.4015,2.3552,2.2827,2.2664,2.3242,2.258,2.2254,2.2559,2.216,2.1426,2.0332,2.0908,2.1513,2.1963,2.1795,2.1824,2.2217,2.0985,2.0158,2.0166,1.8491,1.7194,1.6815,1.622,1.5708,1.5491,1.5618,1.5695,1.5418,1.5431,1.5551,1.5715,1.5611,1.5545,1.5688,1.5444,1.5173,1.5129,1.5073,1.5048,1.4879,1.4685,1.4494,1.4396,1.4243,1.4116,1.4109,1.4109,1.4109,1.4109,1.3976,1.3752,1.3758,1.347,1.3498,1.3498,1.347,1.3103,1.205,1.1686,1.1316,3.8904,3.8123,3.823,3.8257,3.8212,3.7554,3.733,3.7389,3.7193,3.6896,3.6538,3.6956,3.6896,3.6508,3.6387,3.6059,3.5504,3.5489,3.5489,3.5489,3.5489,3.5489,3.5489,3.5489,3.5489,3.5603,3.6935,3.6951,3.5926,3.6996,3.7353,3.6737,3.591,3.5554,3.5651,3.5538,3.5325,3.492,3.3245,3.1839,3.0806,2.97,2.877,2.7929,2.7916,2.7393,2.6348,2.5824,2.5134,2.4268,2.368,2.3766,2.4637,2.4725,2.4855,2.5212,2.5117,2.4561,2.3381,2.3171,2.2781,2.2096,2.1928,2.1797,2.1661,2.1739,2.1973,2.2331,2.1458,2.1036,2.1268,1.9496,1.8249,1.8095,1.6931,1.6058,1.6028,1.5903,1.5701,1.5441,1.5628,1.5701,1.5475,1.5588,1.5728,1.5781,1.5735,1.5755,1.5768,1.5741,1.5581,1.5398,1.5331,1.5124,1.4823,1.4569,1.4462,1.4203,1.4163,1.4067,1.3934,1.4039,1.3997,1.4018,1.323,1.2681,1.2547,1.1729,1.1429,1.137,1.137,1.0934,0.9901,0.9575,0.9379,3.9866,3.9137,3.8978,3.8945,3.8931,3.8614,3.8045,3.7492,3.818,3.8123,3.7539,3.7449,3.7449,3.7511,3.7167,3.6641,3.6058,3.6387,3.634,3.6074,3.6043,3.6059,3.5998,3.5653,3.5489,3.5603,3.7071,3.7189,3.629,3.7234,3.7601,3.7219,3.6477,3.591,3.5521,3.5489,3.5489,3.5458,3.4607,3.3484,3.2168,3.1554,3.0776,2.9759,2.9314,2.8669,2.7789,2.7045,2.6261,2.5438,2.5111,2.531,2.6101,2.6151,2.6133,2.6085,2.5575,2.4689,2.3381,2.3033,2.2679,2.2268,2.2441,2.2547,2.2547,2.1752,2.1439,2.1758,2.0753,2.0116,2.0265,1.8726,1.7707,1.7707,1.6551,1.5825,1.5801,1.5801,1.5731,1.5641,1.5721,1.5755,1.5645,1.5721,1.5801,1.5801,1.5801,1.5801,1.5801,1.5801,1.5761,1.5635,1.5608,1.5531,1.5228,1.4943,1.4758,1.4598,1.431,1.3854,1.34,1.3533,1.3498,1.2516,1.2136,1.2029,1.1558,1.0999,1.0654,1.0589,1.0589,1.0139,0.9209,0.8366,0.7853,4.0672,3.9896,3.938,3.9182,3.9182,3.9182,3.8661,3.7985,3.8975,3.911,3.8586,3.8078,3.8063,3.832,3.7838,3.73,3.6821,3.718,3.715,3.6731,3.6701,3.6718,3.6628,3.6028,3.5789,3.6012,3.703,3.7193,3.6724,3.7223,3.7442,3.7235,3.6646,3.607,3.5506,3.5489,3.5489,3.5489,3.5489,3.4861,3.3559,3.3634,3.2915,3.1308,3.0745,2.9996,2.894,2.8238,2.7564,2.6921,2.6864,2.6947,2.7084,2.7134,2.6773,2.6001,2.5212,2.4326,2.335,2.2875,2.2635,2.2635,2.2679,2.2699,2.2561,2.1053,2.0408,2.0971,1.9971,1.9085,1.8956,1.7971,1.7271,1.7201,1.6433,1.5825,1.5801,1.5801,1.5801,1.5801,1.5801,1.5801,1.5801,1.5801,1.5801,1.5801,1.5801,1.5801,1.5801,1.5801,1.5801,1.5801,1.5801,1.5539,1.5412,1.5226,1.4866,1.4635,1.4069,1.3378,1.2744,1.2991,1.2693,1.1176,1.1085,1.1037,1.0373,0.9896,0.9701,0.9549,0.9505,0.9379,0.8554,0.7678,0.703,4.1368,4.0453,3.908,3.8499,3.8544,3.8544,3.8781,3.9152,3.9361,3.9376,3.9257,3.9224,3.8886,3.8454,3.835,3.7943,3.7345,3.7372,3.7389,3.733,3.7313,3.7313,3.727,3.6656,3.6703,3.7057,3.689,3.6676,3.6488,3.6614,3.6399,3.5797,3.5635,3.5572,3.5489,3.5489,3.5489,3.5489,3.5489,3.4846,3.3649,3.4084,3.3116,3.0492,3.0878,3.0293,2.8681,2.8475,2.827,2.7974,2.7903,2.7495,2.6728,2.6578,2.5873,2.4432,2.4156,2.3804,2.3187,2.3078,2.3013,2.2967,2.206,2.1502,2.136,1.9372,1.8953,2.0282,1.9162,1.7917,1.78,1.6779,1.6133,1.6157,1.5944,1.5801,1.5801,1.5801,1.5801,1.5801,1.5801,1.5801,1.5801,1.5801,1.5801,1.5801,1.5801,1.5801,1.5801,1.5801,1.5801,1.5801,1.5801,1.521,1.439,1.4674,1.4481,1.3311,1.2915,1.2547,1.2066,1.1429,1.0718,1.0221,0.984,0.9453,0.8947,0.8273,0.7617,0.7921,0.7837,0.7511,0.7276,0.7093,0.6953,4.1131,4.0562,3.9052,3.8631,3.8975,3.899,3.9155,3.9391,3.9406,3.9406,3.9406,3.9406,3.9242,3.899,3.8973,3.8616,3.8033,3.8407,3.8362,3.7973,3.7599,3.7599,3.7823,3.6522,3.6237,3.683,3.6672,3.6365,3.5984,3.5951,3.5782,3.5522,3.5489,3.5489,3.5489,3.5489,3.5489,3.5488,3.492,3.4171,3.3425,3.3526,3.2943,3.1487,3.058,2.9839,2.9082,2.855,2.8224,2.8066,2.7484,2.7114,2.6971,2.6333,2.5554,2.4535,2.3837,2.335,2.3125,2.3101,2.2796,2.2107,2.1591,2.1025,2.0251,1.8657,1.8164,1.8726,1.7576,1.6574,1.6544,1.6103,1.5801,1.5801,1.5801,1.5801,1.5801,1.5801,1.5801,1.5801,1.5801,1.5801,1.5801,1.5801,1.5801,1.5801,1.5801,1.5801,1.5801,1.5801,1.5801,1.5801,1.5801,1.5596,1.4832,1.4311,1.388,1.3095,1.2171,1.1442,1.0573,1.0697,1.0243,0.8882,0.8777,0.8496,0.7951,0.7599,0.7117,0.7117,0.7117,0.7117,0.7117,0.7006,0.6964,4.1036,4.0514,3.9231,3.8943,3.9391,3.9406,3.9406,3.9406,3.9406,3.9406,3.9406,3.9406,3.9406,3.9406,3.9406,3.9122,3.8781,3.9185,3.9155,3.8616,3.7988,3.7943,3.82,3.6626,3.6118,3.6637,3.6615,3.6387,3.6001,3.5833,3.5774,3.5759,3.5578,3.5489,3.5489,3.5489,3.5359,3.505,3.4344,3.3661,3.3035,3.271,3.2193,3.1343,3.029,2.9543,2.927,2.8658,2.825,2.8076,2.7346,2.6835,2.6579,2.5831,2.5075,2.4373,2.3572,2.3101,2.3101,2.3101,2.2567,2.1458,2.1025,2.0305,1.9093,1.7886,1.7225,1.7154,1.6315,1.5849,1.5801,1.5801,1.5801,1.5801,1.5801,1.5801,1.5801,1.5801,1.5801,1.5801,1.5801,1.5801,1.5801,1.5801,1.5801,1.5801,1.5801,1.5801,1.5706,1.5534,1.5343,1.5635,1.5266,1.4639,1.4674,1.4254,1.3316,1.2075,1.099,1.0154,0.902,0.9562,0.951,0.7969,0.8233,0.8167,0.7577,0.7228,0.7117,0.7117,0.7117,0.7117,0.7117,0.7022,0.7002,4.1447,4.0589,3.9743,3.9346,3.9406,3.9406,3.9391,3.9331,3.9391,3.9406,3.9361,3.9406,3.9406,3.9406,3.9406,3.9391,3.9346,3.9376,3.9361,3.9227,3.8616,3.8365,3.832,3.7092,3.6761,3.7268,3.6832,3.6787,3.7148,3.6701,3.6449,3.6402,3.5848,3.5519,3.5488,3.5424,3.5003,3.4245,3.3925,3.3504,3.2609,3.173,3.0768,2.9857,3.0055,2.9881,2.91,2.8906,2.8632,2.8128,2.7933,2.7074,2.522,2.4862,2.4319,2.3387,2.3157,2.3069,2.3025,2.2982,2.2448,2.127,2.0124,1.9062,1.7886,1.6732,1.6103,1.5944,1.592,1.5801,1.5801,1.5801,1.5801,1.5801,1.5801,1.5801,1.5801,1.5801,1.5801,1.5801,1.5801,1.5801,1.5801,1.5801,1.5801,1.5801,1.5801,1.5801,1.5676,1.4848,1.4776,1.4926,1.3956,1.2164,1.2212,1.2595,1.2054,1.0931,1.0066,0.9364,0.8729,0.8123,0.7555,0.7205,0.7382,0.7404,0.7183,0.7117,0.7117,0.7117,0.7117,0.7117,0.7117,0.7117,0.709,4.0521,3.926,3.9373,3.9406,3.9406,3.9406,3.9152,3.8811,3.9212,3.9152,3.8901,3.9197,3.9406,3.9406,3.9406,3.9406,3.9406,3.9406,3.9406,3.9331,3.8706,3.8634,3.8868,3.7704,3.7419,3.7886,3.7407,3.718,3.736,3.718,3.6866,3.6538,3.6269,3.5938,3.5466,3.4856,3.4344,3.391,3.2876,3.2033,3.1683,3.079,3.0094,2.9698,2.9883,2.9865,2.9478,2.9478,2.9058,2.8144,2.7473,2.6399,2.4957,2.4113,2.3551,2.3178,2.3101,2.2775,2.2076,2.1943,2.1056,1.92,1.8619,1.7863,1.6732,1.6086,1.5801,1.5801,1.5801,1.5801,1.5801,1.5801,1.5801,1.5801,1.5801,1.5801,1.5801,1.5801,1.5801,1.5801,1.5801,1.5801,1.5801,1.5801,1.5801,1.5801,1.5801,1.5801,1.5754,1.5337,1.4973,1.4561,1.3782,1.2571,1.073,1.1019,1.0819,0.9955,0.9121,0.8455,0.7797,0.7642,0.7211,0.7165,0.7117,0.7117,0.7117,0.7117,0.7117,0.7117,0.7117,0.7117,0.7117,0.7117,0.7075,3.9716,3.8605,3.9107,3.9406,3.9406,3.9406,3.9137,3.8796,3.9197,3.9155,3.8871,3.9212,3.9406,3.9406,3.9406,3.9406,3.9406,3.9406,3.9406,3.9346,3.8706,3.8631,3.8826,3.7911,3.7629,3.8003,3.7868,3.7823,3.7985,3.7806,3.7494,3.7152,3.6748,3.6103,3.5324,3.4443,3.3774,3.2996,3.1815,3.1087,3.0752,3.012,2.9779,2.9779,2.9779,2.9605,2.9307,2.9255,2.853,2.7166,2.6316,2.542,2.4318,2.3539,2.3101,2.3101,2.3101,2.2567,2.1502,2.1293,2.0274,1.7979,1.7684,1.7154,1.5991,1.5801,1.5801,1.5801,1.5801,1.5801,1.5801,1.5801,1.5801,1.5801,1.5801,1.5801,1.5801,1.5801,1.5801,1.5801,1.5801,1.5801,1.5801,1.5801,1.5801,1.5801,1.5801,1.5801,1.5801,1.5361,1.4967,1.3998,1.3,1.1789,1.0386,0.9998,0.9702,0.8875,0.864,0.7875,0.7454,0.7285,0.7161,0.7134,0.7117,0.7117,0.7117,0.7117,0.7117,0.7117,0.7117,0.7117,0.7117,0.7117,0.7083,3.9193,3.8605,3.914,3.9376,3.9316,3.9376,3.9376,3.9197,3.9346,3.9316,3.9152,3.9376,3.9406,3.9406,3.9406,3.9406,3.9406,3.9406,3.9406,3.9331,3.8766,3.8514,3.8527,3.7958,3.7642,3.7731,3.8138,3.8721,3.9167,3.8676,3.8365,3.814,3.705,3.6045,3.5004,3.4215,3.3006,3.1737,3.118,3.0696,2.9934,2.9811,2.9779,2.9779,2.9779,2.9255,2.8187,2.8156,2.7267,2.5326,2.4957,2.4296,2.343,2.3144,2.3101,2.3101,2.3101,2.2492,2.1502,2.1203,2.0079,1.8141,1.7638,1.7014,1.6038,1.5801,1.5801,1.5801,1.5801,1.5801,1.5801,1.5801,1.5801,1.5801,1.5801,1.5801,1.5801,1.5801,1.5801,1.5801,1.5801,1.5801,1.5801,1.5801,1.5801,1.5801,1.5801,1.5801,1.5754,1.5092,1.4214,1.3416,1.2353,1.0994,0.9924,0.8962,0.8406,0.7907,0.7976,0.7709,0.7509,0.735,0.7238,0.7168,0.7121,0.7117,0.7117,0.7117,0.7117,0.7117,0.7117,0.7117,0.7117,0.7107,0.7063,3.9996,3.9268,3.9342,3.9122,3.8811,3.9182,3.8913,3.8165,3.8958,3.914,3.8856,3.9182,3.9406,3.9406,3.9406,3.9406,3.9406,3.9406,3.9406,3.9361,3.9185,3.9062,3.9017,3.8868,3.8778,3.8826,3.8973,3.9182,3.9316,3.9149,3.8871,3.8274,3.7243,3.6115,3.4915,3.3442,3.2075,3.1262,3.0558,3.0075,2.9798,2.9779,2.9779,2.9779,2.9779,2.8949,2.7189,2.7703,2.6991,2.4893,2.4819,2.4265,2.3343,2.3101,2.3101,2.3101,2.3101,2.2558,2.1413,2.0477,1.9443,1.7909,1.6943,1.6292,1.5872,1.5801,1.5801,1.5801,1.5801,1.5801,1.5801,1.5801,1.5801,1.5801,1.5801,1.5801,1.5801,1.5801,1.5801,1.5801,1.5801,1.5801,1.5801,1.5801,1.5801,1.5778,1.5754,1.573,1.5652,1.5194,1.4298,1.2842,1.158,1.0342,0.9192,0.8528,0.8213,0.7905,0.7858,0.778,0.7607,0.7441,0.7326,0.7207,0.7137,0.7117,0.7117,0.7117,0.7117,0.7117,0.7117,0.7117,0.7117,0.7097,0.706,3.9629,3.89,3.8983,3.8796,3.8482,3.9107,3.8943,3.8315,3.9017,3.917,3.8913,3.9212,3.9406,3.9406,3.9406,3.9406,3.9406,3.9406,3.9406,3.9406,3.9406,3.9406,3.9406,3.9406,3.9406,3.9406,3.9406,3.9406,3.9355,3.8998,3.8579,3.8018,3.6675,3.5347,3.4221,3.2607,3.1378,3.0684,3.0101,2.9779,2.9779,2.9779,2.9779,2.9779,2.9779,2.8673,2.6792,2.7168,2.647,2.4628,2.4168,2.38,2.3157,2.3101,2.3101,2.3101,2.3025,2.2558,2.1391,2.0215,1.8971,1.777,1.6527,1.5825,1.5801,1.5801,1.5801,1.5801,1.5801,1.5801,1.5801,1.5801,1.5801,1.5801,1.5801,1.5801,1.5801,1.5801,1.5801,1.5801,1.5801,1.5801,1.5801,1.5801,1.5801,1.5778,1.5391,1.5092,1.4973,1.4585,1.3156,1.1921,1.1068,0.9776,0.8407,0.8038,0.8038,0.7951,0.7911,0.7837,0.7716,0.7563,0.7434,0.7215,0.7117,0.7117,0.7117,0.7117,0.7117,0.7117,0.7117,0.7117,0.7117,0.7117,0.7087,3.8429,3.7823,3.8247,3.8437,3.8424,3.9077,3.9287,3.9257,3.9376,3.9376,3.9361,3.9376,3.9406,3.9406,3.9406,3.9406,3.9406,3.9406,3.9406,3.9406,3.9406,3.9406,3.9406,3.9406,3.9406,3.9406,3.9406,3.9334,3.9086,3.8345,3.7753,3.7453,3.5637,3.4047,3.3224,3.1885,3.0866,3.0169,2.9881,2.9779,2.9779,2.9779,2.9779,2.976,2.9605,2.8601,2.6874,2.6265,2.5242,2.3452,2.3244,2.3244,2.3113,2.3101,2.3101,2.3101,2.3101,2.2589,2.1489,2.0486,1.9268,1.8072,1.6873,1.5825,1.5849,1.5801,1.5801,1.5801,1.5801,1.5801,1.5801,1.5801,1.5801,1.5801,1.5801,1.5801,1.5801,1.5801,1.5801,1.5801,1.5801,1.5801,1.5801,1.5801,1.573,1.5384,1.4657,1.4238,1.3638,1.2987,1.1575,1.0823,1.0411,0.9558,0.8283,0.7988,0.7988,0.7978,0.7941,0.7885,0.7773,0.7621,0.7444,0.7232,0.7117,0.7117,0.7117,0.7117,0.7117,0.7117,0.7117,0.7117,0.7117,0.7117,0.7107,3.9447,3.9297,3.9186,3.8586,3.7913,3.8883,3.9107,3.8781,3.9212,3.9406,3.9406,3.9406,3.9406,3.9406,3.9406,3.9406,3.9406,3.9406,3.9406,3.9406,3.9406,3.9406,3.9406,3.9406,3.9406,3.9406,3.9301,3.8995,3.8252,3.7829,3.7305,3.6585,3.5208,3.4206,3.3456,3.2015,3.1077,3.0421,2.9967,2.9779,2.9779,2.9779,2.9779,2.9721,2.9008,2.7907,2.6431,2.4861,2.3822,2.3222,2.3101,2.3101,2.3101,2.3101,2.3101,2.3101,2.3091,2.3003,2.247,2.1436,2.0282,1.9108,1.777,1.681,1.5872,1.5801,1.5801,1.5801,1.5801,1.5801,1.5801,1.5801,1.5801,1.5801,1.5801,1.5801,1.5801,1.5801,1.5801,1.5801,1.5801,1.5801,1.5801,1.5683,1.5391,1.4657,1.395,1.3368,1.2546,1.1921,1.0803,1.0411,0.9948,0.9217,0.8531,0.8162,0.7988,0.7988,0.7958,0.7932,0.7784,0.7614,0.7394,0.7161,0.7127,0.7117,0.7117,0.7117,0.7117,0.7117,0.7117,0.7117,0.7117,0.7117,0.7117,4.0204,3.9874,3.9637,3.8862,3.802,3.8975,3.9182,3.8945,3.923,3.9406,3.9406,3.9406,3.9406,3.9406,3.9406,3.9406,3.9406,3.9406,3.9406,3.9406,3.9406,3.9406,3.9406,3.9406,3.9406,3.9334,3.8943,3.8401,3.7701,3.6977,3.616,3.5433,3.4277,3.3371,3.2649,3.1703,3.0809,3.0306,2.9942,2.9779,2.9779,2.9779,2.9443,2.9157,2.8359,2.7429,2.5807,2.4059,2.3101,2.3101,2.3101,2.3101,2.3101,2.3101,2.3101,2.3101,2.3101,2.3101,2.2884,2.1987,2.0778,1.9579,1.8388,1.7171,1.6126,1.5801,1.5801,1.5801,1.5801,1.5801,1.5801,1.5801,1.5801,1.5801,1.5801,1.5801,1.5801,1.5801,1.5801,1.5801,1.5801,1.5801,1.5778,1.5391,1.4728,1.3896,1.274,1.2013,1.1214,1.073,1.0243,0.9678,0.9312,0.8676,0.8382,0.8113,0.7988,0.7988,0.7978,0.7956,0.7834,0.7648,0.7467,0.7285,0.7181,0.7117,0.7117,0.7117,0.7117,0.7117,0.7117,0.7117,0.7117,0.7117,0.7117,4.0764,3.9893,3.9826,3.9256,3.8555,3.9092,3.9376,3.9391,3.9391,3.9406,3.9406,3.9406,3.9406,3.9406,3.9406,3.9406,3.9406,3.9406,3.9406,3.9406,3.9406,3.9406,3.9406,3.9406,3.9406,3.9247,3.8327,3.7791,3.7132,3.5675,3.4767,3.4316,3.3092,3.2244,3.2011,3.1231,3.0532,3.0218,3.0068,2.9892,2.9739,2.9553,2.9028,2.8367,2.7602,2.6479,2.4893,2.3637,2.3101,2.3101,2.3101,2.3101,2.3101,2.3101,2.3101,2.3101,2.3091,2.3047,2.2765,2.18,2.0643,1.9329,1.8234,1.7154,1.6126,1.5801,1.5801,1.5801,1.5801,1.5801,1.5801,1.5801,1.5801,1.5801,1.5801,1.5801,1.5801,1.5801,1.5801,1.5801,1.5801,1.5801,1.551,1.4902,1.4094,1.3896,1.259,1.1409,1.046,0.9608,0.9093,0.8552,0.8308,0.8137,0.8038,0.8013,0.7988,0.7988,0.7988,0.7973,0.7881,0.7729,0.7587,0.744,0.7295,0.7178,0.7117,0.7117,0.7117,0.7117,0.7117,0.7117,0.7117,0.7117,0.7117,4.1119,3.9776,4.0295,3.9669,3.863,3.9092,3.9406,3.9406,3.9406,3.9406,3.9406,3.9406,3.9406,3.9406,3.9406,3.9406,3.9406,3.9406,3.9406,3.9406,3.9406,3.9406,3.9388,3.9337,3.937,3.9086,3.829,3.7362,3.6383,3.5292,3.4241,3.3454,3.3182,3.2817,3.2587,3.1926,3.1587,3.1072,3.062,3.0091,2.9532,2.8917,2.8367,2.7804,2.6418,2.4935,2.38,2.3222,2.3101,2.3101,2.3101,2.3101,2.3101,2.3101,2.3101,2.3101,2.3069,2.2699,2.1889,2.1449,2.0373,1.8572,1.7956,1.7185,1.5991,1.5801,1.5801,1.5801,1.5801,1.5801,1.5801,1.5801,1.5801,1.5801,1.5801,1.5801,1.5801,1.5801,1.5801,1.5801,1.5801,1.5801,1.5801,1.551,1.4728,1.392,1.2638,1.119,1.0071,0.9019,0.8627,0.8432,0.8013,0.8013,0.7988,0.7988,0.7988,0.7988,0.7988,0.7985,0.7918,0.7834,0.7699,0.7556,0.7389,0.7278,0.7178,0.7117,0.7117,0.7117,0.7117,0.7117,0.7117,0.7117,0.7117,4.1969,4.0793,4.0722,4.0006,3.9032,3.9227,3.9406,3.9406,3.9406,3.9406,3.9406,3.9406,3.9406,3.9406,3.9406,3.9406,3.9406,3.9406,3.9406,3.9406,3.9406,3.9406,3.9228,3.8874,3.8638,3.8457,3.7534,3.6501,3.548,3.454,3.3641,3.3188,3.3102,3.2851,3.2629,3.2164,3.1512,3.0972,3.0487,2.9847,2.8986,2.8446,2.7368,2.6521,2.4935,2.3659,2.3178,2.3113,2.3101,2.3101,2.3101,2.3101,2.3101,2.3101,2.3101,2.3101,2.3091,2.2862,2.2262,2.1525,2.0531,1.8665,1.8048,1.7037,1.6197,1.5801,1.5801,1.5801,1.5801,1.5801,1.5801,1.5801,1.5801,1.5801,1.5801,1.5801,1.5801,1.5801,1.5801,1.5801,1.5801,1.5801,1.5754,1.5557,1.4949,1.3926,1.2837,1.1512,1.1121,1.0121,0.9464,0.9023,0.8336,0.8038,0.8013,0.7988,0.7988,0.7988,0.7988,0.7988,0.7951,0.7905,0.7827,0.7672,0.7492,0.7386,0.7282,0.7195,0.7131,0.7117,0.7117,0.7117,0.7117,0.7117,0.7117,4.2646,4.156,4.0961,4.0202,3.9478,3.9406,3.9406,3.9406,3.9406,3.9406,3.9406,3.9406,3.9406,3.9406,3.9406,3.9406,3.9406,3.9406,3.9406,3.9406,3.9406,3.921,3.8925,3.8308,3.7606,3.7319,3.6436,3.548,3.4725,3.3704,3.3261,3.3102,3.3102,3.2927,3.2365,3.1938,3.1587,3.1122,3.0726,2.9823,2.8702,2.8218,2.7013,2.4998,2.3907,2.3266,2.3113,2.3101,2.3101,2.3101,2.3101,2.3101,2.3101,2.3101,2.3101,2.3101,2.3101,2.2818,2.235,2.1712,2.0688,1.9428,1.8342,1.7154,1.618,1.5801,1.5801,1.5801,1.5801,1.5801,1.5801,1.5801,1.5801,1.5801,1.5801,1.5801,1.5801,1.5801,1.5801,1.5801,1.5801,1.5801,1.5557,1.5289,1.4633,1.3974,1.2915,1.2145,1.1828,1.1292,1.0607,1.0268,0.9776,0.9044,0.8895,0.8063,0.8063,0.8088,0.8063,0.7988,0.7988,0.7944,0.7888,0.7766,0.7631,0.7502,0.7373,0.7285,0.7224,0.7151,0.7117,0.7117,0.7117,0.7117,0.7117,4.1933,3.9864,4.0449,4.0187,3.9478,3.9406,3.9406,3.9406,3.9406,3.9406,3.9406,3.9406,3.9406,3.9406,3.9406,3.9406,3.9406,3.9406,3.9406,3.9373,3.9283,3.8947,3.8219,3.762,3.6788,3.5554,3.4979,3.4787,3.4428,3.3704,3.3167,3.3102,3.3102,3.2977,3.2927,3.2801,3.229,3.1755,3.1483,3.0655,2.9225,2.7905,2.653,2.4261,2.3442,2.3154,2.3101,2.3101,2.3101,2.3101,2.3101,2.3101,2.3101,2.3101,2.3101,2.3101,2.3091,2.2787,2.2076,2.1449,2.0124,1.8619,1.7707,1.7077,1.615,1.5801,1.5801,1.5801,1.5801,1.5801,1.5801,1.5801,1.5801,1.5801,1.5801,1.5801,1.5801,1.5801,1.5801,1.5801,1.5801,1.5801,1.5581,1.5439,1.5218,1.483,1.4154,1.362,1.3397,1.2624,1.175,1.158,1.1512,1.0681,0.9973,0.8821,0.8184,0.8233,0.8209,0.8013,0.7988,0.7988,0.7942,0.7837,0.7736,0.7641,0.7512,0.7383,0.7282,0.7195,0.7158,0.7121,0.7117,0.7117,0.7117,4.1625,4.0098,4.0045,3.9809,3.9445,3.9406,3.9406,3.9406,3.9406,3.9406,3.9406,3.9406,3.9406,3.9406,3.9406,3.9406,3.9406,3.9406,3.9406,3.9337,3.8819,3.8364,3.751,3.6802,3.5755,3.4767,3.4212,3.3924,3.3839,3.3398,3.3124,3.3102,3.3102,3.3102,3.3002,3.2704,3.2528,3.2194,3.188,3.0811,2.8727,2.6998,2.499,2.4153,2.3396,2.312,2.3101,2.3101,2.3101,2.3101,2.3101,2.3101,2.3101,2.3101,2.3101,2.3101,2.3091,2.2906,2.1987,2.1279,1.9739,1.8787,1.7607,1.6544,1.6015,1.5801,1.5801,1.5801,1.5801,1.5801,1.5801,1.5801,1.5801,1.5801,1.5801,1.5801,1.5801,1.5801,1.5801,1.5801,1.5801,1.5801,1.5801,1.573,1.5778,1.5557,1.517,1.4949,1.4758,1.3932,1.2915,1.2716,1.26,1.1823,1.0877,0.9702,0.8747,0.8676,0.8258,0.8063,0.7988,0.7988,0.7971,0.7939,0.7837,0.7736,0.7641,0.7509,0.7387,0.7261,0.7188,0.7144,0.7127,0.7117,0.7148,4.1379,4.0378,3.9684,3.9406,3.9406,3.9406,3.9406,3.9406,3.9406,3.9406,3.9406,3.9406,3.9406,3.9406,3.9406,3.9406,3.937,3.9228,3.8995,3.8764,3.7942,3.7415,3.6666,3.5755,3.4615,3.417,3.3649,3.3124,3.324,3.3145,3.3124,3.3102,3.3102,3.3102,3.3014,3.2742,3.2428,3.2252,3.1947,3.0528,2.814,2.5611,2.4066,2.3975,2.3523,2.3269,2.3298,2.3162,2.3101,2.3101,2.3101,2.3101,2.3101,2.3101,2.3101,2.3101,2.3101,2.3101,2.2567,2.1257,2.0003,1.9291,1.7413,1.641,1.5825,1.5801,1.5801,1.5801,1.5801,1.5801,1.5801,1.5801,1.5801,1.5801,1.5801,1.5801,1.5801,1.5801,1.5801,1.5801,1.5801,1.5801,1.5801,1.5801,1.5801,1.5801,1.5462,1.5486,1.5266,1.4902,1.4172,1.3878,1.3494,1.277,1.1799,1.0632,0.9825,0.946,0.8676,0.8013,0.7988,0.7988,0.7971,0.7983,0.7939,0.7834,0.7719,0.76,0.7434,0.7302,0.7212,0.7164,0.7112,0.7208,0.7312,4.1045,3.9553,3.946,3.9406,3.9406,3.9406,3.9406,3.9406,3.9406,3.9406,3.9406,3.9406,3.9406,3.9406,3.9406,3.9406,3.9141,3.8531,3.8196,3.805,3.6982,3.6007,3.5285,3.4938,3.4087,3.3607,3.3261,3.3124,3.3102,3.3102,3.3102,3.3102,3.3102,3.3102,3.3077,3.2952,3.3002,3.2952,3.28,3.1523,2.9116,2.6344,2.5064,2.4672,2.4193,2.3711,2.3652,2.3406,2.3191,2.314,2.311,2.3101,2.3101,2.3101,2.3101,2.3101,2.3101,2.3101,2.2894,2.1689,2.0364,1.9534,1.8087,1.7014,1.6173,1.5808,1.5808,1.5801,1.5801,1.5868,1.5888,1.5815,1.5808,1.5815,1.5828,1.5815,1.5801,1.5801,1.5801,1.5801,1.5801,1.5801,1.5801,1.5801,1.5801,1.5801,1.5801,1.5801,1.573,1.5343,1.5194,1.483,1.4537,1.386,1.3229,1.1964,1.0974,1.0435,0.9316,0.8233,0.7988,0.7988,0.7988,0.7968,0.7962,0.7878,0.7743,0.759,0.7441,0.736,0.7286,0.7212,0.7115,0.7252,0.7434,4.0535,3.9406,3.9406,3.9406,3.9406,3.9406,3.9406,3.9406,3.9406,3.9406,3.9406,3.9406,3.9406,3.9406,3.9406,3.9406,3.9159,3.8248,3.781,3.7342,3.6221,3.5122,3.4684,3.41,3.342,3.3308,3.3102,3.3124,3.3115,3.3128,3.3102,3.3102,3.3102,3.3102,3.3102,3.3102,3.309,3.2686,3.1765,3.0496,2.8964,2.6775,2.5092,2.5072,2.4463,2.4199,2.4043,2.374,2.3525,2.3435,2.3288,2.3101,2.3101,2.3101,2.3101,2.3101,2.3101,2.3101,2.296,2.1943,2.0823,1.961,1.8419,1.7131,1.615,1.5828,1.5915,1.6072,1.5912,1.5955,1.6115,1.5981,1.5968,1.5961,1.5961,1.5888,1.5868,1.5808,1.5801,1.5801,1.5815,1.5848,1.5848,1.5808,1.5808,1.5801,1.5801,1.5801,1.5801,1.5683,1.5605,1.5605,1.5361,1.5021,1.4459,1.3614,1.228,1.1458,1.0145,0.9118,0.8209,0.7988,0.7988,0.7988,0.7971,0.7878,0.7743,0.7634,0.7533,0.7458,0.7387,0.7313,0.7279,0.7384,0.7539,3.9597,3.917,3.9331,3.9406,3.9406,3.9406,3.9406,3.9406,3.9406,3.9406,3.9406,3.9406,3.9406,3.9406,3.937,3.9228,3.887,3.8039,3.7494,3.6686,3.5682,3.4745,3.4297,3.3661,3.3406,3.3278,3.3153,3.3329,3.3454,3.3278,3.3102,3.3102,3.3102,3.3102,3.3102,3.3059,3.2961,3.2317,3.062,2.9464,2.8476,2.6546,2.5545,2.5151,2.4863,2.457,2.4512,2.417,2.3955,2.3701,2.3506,2.3298,2.313,2.3101,2.3101,2.3101,2.3101,2.2862,2.247,2.168,2.0859,1.9855,1.8613,1.7456,1.6728,1.6259,1.6075,1.6366,1.6239,1.6328,1.6462,1.6279,1.6255,1.6266,1.6226,1.6088,1.6021,1.6061,1.6102,1.6172,1.6152,1.5999,1.5948,1.5855,1.5815,1.5808,1.5801,1.5801,1.5801,1.5801,1.5801,1.5801,1.5706,1.551,1.5218,1.4561,1.347,1.2377,1.1043,0.9948,0.9019,0.8283,0.7988,0.7988,0.7988,0.7938,0.7851,0.7729,0.7638,0.7567,0.7506,0.7485,0.7492,0.7587,0.7672,3.795,3.8529,3.9107,3.9376,3.9406,3.9406,3.9406,3.9406,3.9406,3.9406,3.9406,3.9406,3.9406,3.9406,3.9301,3.8889,3.7966,3.7371,3.666,3.5858,3.5018,3.4495,3.4104,3.3874,3.3781,3.3684,3.3454,3.3734,3.4123,3.3583,3.3316,3.3102,3.3178,3.3128,3.3102,3.3081,3.2469,3.1645,3.009,2.8843,2.7874,2.6481,2.5683,2.5532,2.5273,2.5067,2.5033,2.4609,2.4209,2.3906,2.3789,2.3435,2.3201,2.321,2.322,2.311,2.3101,2.2655,2.1876,2.1712,2.1355,2.0612,1.9406,1.7901,1.7308,1.6874,1.6726,1.6647,1.654,1.6595,1.6707,1.666,1.656,1.6593,1.654,1.646,1.6402,1.6455,1.652,1.6553,1.6453,1.6266,1.6106,1.5995,1.5848,1.5828,1.5801,1.5801,1.5801,1.5801,1.5801,1.5801,1.5801,1.5706,1.5611,1.4902,1.41,1.2982,1.1702,1.0705,0.9805,0.9093,0.8013,0.7988,0.7988,0.7975,0.7958,0.7861,0.7753,0.7661,0.7607,0.7631,0.7665,0.7743,0.782,3.7554,3.7808,3.8078,3.8644,3.9406,3.9406,3.9406,3.9406,3.9406,3.9406,3.9406,3.9406,3.9406,3.9388,3.9337,3.8819,3.7853,3.7328,3.6239,3.5366,3.4754,3.4388,3.4085,3.3935,3.3884,3.3872,3.3696,3.3684,3.4022,3.3997,3.4148,3.3972,3.3495,3.3165,3.3102,3.3061,3.23,3.1202,2.9988,2.8796,2.7602,2.6428,2.5708,2.5679,2.561,2.5478,2.541,2.5039,2.4619,2.4297,2.418,2.3767,2.3347,2.3406,2.3367,2.3198,2.3191,2.2527,2.1789,2.1767,2.1857,2.0332,1.9193,1.8177,1.7622,1.6916,1.6871,1.6847,1.6834,1.686,1.7194,1.6947,1.672,1.6879,1.6906,1.68,1.6787,1.6834,1.682,1.682,1.6667,1.648,1.6319,1.6172,1.6012,1.5855,1.5828,1.5801,1.5801,1.5801,1.5801,1.5801,1.5801,1.5801,1.5706,1.5242,1.4728,1.3542,1.228,1.119,1.0121,0.8874,0.8013,0.8013,0.7988,0.7982,0.7965,0.7938,0.7885,0.7776,0.776,0.7804,0.7851,0.7892,0.7929,3.6956,3.712,3.7135,3.7761,3.8748,3.9017,3.9125,3.914,3.9316,3.9406,3.9406,3.9406,3.9406,3.9337,3.8962,3.8294,3.734,3.6685,3.5712,3.5006,3.4549,3.4434,3.4239,3.4173,3.4223,3.4148,3.4173,3.4214,3.4552,3.4628,3.4715,3.4552,3.4098,3.3756,3.3546,3.3061,3.2321,3.0955,2.9666,2.8335,2.7058,2.6197,2.5708,2.5708,2.5679,2.5669,2.5601,2.5381,2.5082,2.4766,2.4531,2.4196,2.3854,2.362,2.3662,2.3523,2.3275,2.2774,2.2213,2.1563,2.178,2.0949,1.9506,1.8471,1.7663,1.7179,1.7141,1.7254,1.714,1.716,1.7621,1.7248,1.7101,1.726,1.7214,1.7121,1.7114,1.7128,1.7094,1.7061,1.6894,1.6734,1.6426,1.6246,1.6019,1.5861,1.5821,1.5801,1.5801,1.5801,1.5801,1.5801,1.5801,1.5801,1.5778,1.5462,1.5021,1.383,1.2571,1.1336,1.019,0.892,0.8063,0.8013,0.7988,0.7988,0.7978,0.7958,0.7914,0.7878,0.7881,0.7895,0.7918,0.7949,0.7966,3.5953,3.6493,3.6523,3.6866,3.7507,3.8185,3.8452,3.8616,3.9155,3.9406,3.937,3.9334,3.9265,3.905,3.8271,3.7247,3.6383,3.5821,3.5026,3.425,3.4596,3.4663,3.4628,3.4577,3.4577,3.4665,3.4628,3.4778,3.5295,3.513,3.518,3.528,3.4966,3.4537,3.4502,3.3336,3.1903,3.0275,2.8947,2.7596,2.6287,2.583,2.583,2.5708,2.5708,2.5708,2.5669,2.564,2.5352,2.5033,2.5053,2.4746,2.4274,2.4023,2.4053,2.4196,2.3926,2.3397,2.2674,2.1077,2.1013,2.178,2.0639,1.9614,1.8948,1.8367,1.7814,1.8119,1.7814,1.7658,1.7648,1.7575,1.7535,1.7501,1.7448,1.7421,1.7401,1.7388,1.7341,1.7307,1.7207,1.7058,1.662,1.6293,1.6015,1.5868,1.5821,1.5808,1.5815,1.5801,1.5801,1.5801,1.5801,1.5801,1.5801,1.5801,1.5289,1.4076,1.2861,1.1648,1.0337,0.9044,0.8407,0.8113,0.7988,0.7988,0.7988,0.7985,0.7944,0.7917,0.7944,0.7961,0.7985,0.7988,0.7988,3.5623,3.5833,3.5833,3.5953,3.6357,3.7778,3.8395,3.8512,3.9062,3.9406,3.9228,3.8727,3.8341,3.8013,3.7247,3.6219,3.5399,3.5538,3.483,3.3629,3.449,3.4853,3.4803,3.4678,3.4841,3.5042,3.5004,3.4979,3.5445,3.5491,3.5828,3.5968,3.573,3.519,3.4212,3.3046,3.1763,2.9933,2.8809,2.7738,2.5991,2.5952,2.5981,2.5728,2.5708,2.5708,2.5708,2.5708,2.5493,2.5248,2.5317,2.5146,2.4674,2.4404,2.4574,2.4521,2.4238,2.4299,2.3565,2.2497,2.1504,2.2115,2.2185,2.1278,2.0872,2.0572,1.9914,1.9169,1.8968,1.8603,1.7858,1.7674,1.7601,1.7582,1.7555,1.7555,1.7548,1.7555,1.7541,1.7521,1.7448,1.7147,1.6774,1.6533,1.6273,1.6092,1.6052,1.5895,1.5861,1.5821,1.5801,1.5801,1.5801,1.5801,1.5801,1.5801,1.5605,1.4681,1.3325,1.1945,1.0627,0.9164,0.8453,0.8013,0.7988,0.7988,0.7988,0.7988,0.7988,0.7985,0.7988,0.7988,0.7988,0.7988,0.7988,3.5489,3.5489,3.5489,3.5489,3.5729,3.7122,3.7838,3.8138,3.8766,3.9047,3.8865,3.8177,3.7843,3.7434,3.6358,3.548,3.4716,3.4538,3.4439,3.3262,3.406,3.4361,3.4377,3.4474,3.4512,3.4841,3.4916,3.4916,3.5192,3.5793,3.6117,3.6281,3.6369,3.5268,3.4082,3.2818,3.1593,2.9833,2.8584,2.7407,2.6349,2.602,2.5971,2.5786,2.5708,2.5708,2.5708,2.5659,2.5591,2.5445,2.5406,2.5435,2.5074,2.4912,2.5029,2.4873,2.4879,2.5025,2.4598,2.4139,2.3535,2.3925,2.3541,2.2616,2.1879,2.1432,2.1084,2.0564,2.0341,1.9801,1.9031,1.8726,1.8068,1.8075,1.774,1.774,1.7615,1.7615,1.7615,1.7608,1.7568,1.7228,1.6954,1.6774,1.656,1.6413,1.6279,1.6132,1.5955,1.5888,1.5828,1.5801,1.5801,1.5801,1.5801,1.5801,1.5557,1.5164,1.3686,1.1994,1.0603,0.9143,0.8528,0.7988,0.7988,0.7988,0.7988,0.7988,0.7988,0.7988,0.7988,0.7988,0.7988,0.7988,0.7988,3.5489,3.5489,3.5489,3.5489,3.5624,3.6267,3.6868,3.7447,3.804,3.8289,3.8293,3.7798,3.7382,3.7132,3.5574,3.4705,3.44,3.3662,3.3342,3.3196,3.358,3.3696,3.3922,3.401,3.4223,3.4261,3.4387,3.4653,3.4816,3.5567,3.6056,3.6293,3.6405,3.5141,3.3743,3.2594,3.1296,2.9622,2.831,2.7299,2.6543,2.6128,2.604,2.5884,2.5767,2.5718,2.5708,2.5689,2.5689,2.5659,2.5669,2.5689,2.5542,2.5312,2.5449,2.5542,2.561,2.561,2.5538,2.5096,2.5164,2.4921,2.3489,2.2366,2.2181,2.2533,2.2316,2.1853,2.1473,2.1372,2.1092,1.9999,1.8961,1.8558,1.8022,1.7845,1.7661,1.7615,1.7615,1.7608,1.7608,1.7414,1.716,1.6966,1.6887,1.6779,1.6638,1.648,1.6306,1.5995,1.5921,1.5801,1.5801,1.5801,1.5801,1.5801,1.5635,1.5313,1.3373,1.1677,1.0337,0.9262,0.8453,0.7988,0.7988,0.7988,0.7988,0.7988,0.7988,0.7988,0.7988,0.7988,0.7988,0.7988,0.7939,3.5489,3.5489,3.5489,3.5489,3.5534,3.5714,3.6387,3.7291,3.6975,3.6887,3.7226,3.6439,3.6009,3.55,3.4938,3.4275,3.3725,3.3304,3.3188,3.319,3.3379,3.3671,3.3822,3.3884,3.411,3.4223,3.4336,3.449,3.5242,3.5782,3.6107,3.6369,3.6239,3.4824,3.3425,3.2414,3.0856,2.9425,2.8179,2.7524,2.6963,2.6576,2.6371,2.6147,2.5825,2.5747,2.5708,2.5708,2.5708,2.5708,2.5708,2.5708,2.5679,2.5581,2.564,2.5659,2.5689,2.5698,2.5708,2.5708,2.5708,2.5708,2.4741,2.4766,2.4559,2.4205,2.3874,2.3276,2.2542,2.2282,2.1321,2.0205,1.9265,1.861,1.8101,1.7766,1.7615,1.7615,1.7615,1.7615,1.7615,1.7521,1.7306,1.7321,1.7254,1.712,1.7012,1.6852,1.6611,1.6286,1.5975,1.5848,1.5801,1.5801,1.5801,1.5801,1.5659,1.5201,1.3445,1.1969,1.1068,0.9969,0.8627,0.7988,0.7988,0.7988,0.7988,0.7988,0.7988,0.7988,0.7988,0.7988,0.7988,0.7988,0.7811,3.5489,3.5489,3.5489,3.5489,3.5489,3.5504,3.5998,3.6443,3.5878,3.5805,3.5952,3.5159,3.4626,3.4403,3.4131,3.3725,3.3197,3.3167,3.3102,3.319,3.3454,3.3492,3.3558,3.3643,3.3718,3.3881,3.3985,3.4098,3.5155,3.5994,3.6405,3.6334,3.6037,3.435,3.2783,3.1654,3.0393,2.9137,2.8179,2.777,2.7402,2.6992,2.6611,2.6416,2.5981,2.5796,2.5737,2.5747,2.5718,2.5708,2.5708,2.5708,2.5708,2.5674,2.5674,2.5708,2.5708,2.5708,2.5708,2.5708,2.5708,2.5708,2.5708,2.5586,2.5528,2.525,2.4962,2.4526,2.3741,2.2901,2.1448,2.0128,1.9343,1.8532,1.8101,1.7668,1.7615,1.7615,1.7615,1.7615,1.7575,1.7521,1.7501,1.7582,1.7582,1.7428,1.7294,1.7173,1.6866,1.6484,1.6119,1.5848,1.5815,1.5801,1.5801,1.5801,1.573,1.5343,1.4172,1.2837,1.1891,1.0529,0.904,0.8333,0.7988,0.7988,0.7988,0.7988,0.7988,0.7988,0.7988,0.7988,0.7988,0.7988,0.7686,3.5489,3.5489,3.5489,3.5489,3.5489,3.5489,3.5534,3.5419,3.4997,3.4829,3.4707,3.4035,3.3628,3.3429,3.3418,3.328,3.3037,3.3014,3.3102,3.3102,3.3178,3.3228,3.3215,3.314,3.3329,3.3203,3.3395,3.4048,3.4901,3.5791,3.6394,3.631,3.5174,3.3761,3.2431,3.1147,2.9917,2.8704,2.815,2.7803,2.7604,2.7076,2.65,2.6519,2.6201,2.5884,2.5864,2.5825,2.5767,2.5767,2.5718,2.5718,2.5708,2.5708,2.5708,2.5708,2.5708,2.5708,2.5708,2.5708,2.5708,2.5708,2.5708,2.5708,2.5708,2.5708,2.5396,2.5143,2.4378,2.3707,2.2492,2.1347,2.0436,1.9852,1.942,1.9143,1.9065,1.8786,1.8304,1.8173,1.7753,1.7673,1.7555,1.7615,1.7615,1.7575,1.7528,1.7414,1.7107,1.6678,1.6313,1.5935,1.5828,1.5808,1.5801,1.5801,1.5801,1.5313,1.4435,1.3271,1.1989,1.0701,0.9386,0.8651,0.7988,0.7988,0.7988,0.7988,0.7988,0.7988,0.7988,0.7988,0.7963,0.7811,0.7335,3.5489,3.5489,3.5489,3.5489,3.5489,3.5489,3.5489,3.5341,3.381,3.3453,3.3591,3.2985,3.2384,3.2176,3.3064,3.308,3.2634,3.2851,3.3065,3.3102,3.3102,3.3102,3.3102,3.3102,3.3102,3.3241,3.3571,3.4173,3.5092,3.5904,3.6345,3.6239,3.4969,3.3477,3.228,3.0916,2.9476,2.8352,2.8184,2.8066,2.7995,2.7741,2.7395,2.7223,2.6924,2.6631,2.6508,2.6367,2.6289,2.6221,2.5854,2.5723,2.5708,2.5708,2.5708,2.5708,2.5708,2.5708,2.5708,2.5708,2.5708,2.5708,2.5708,2.5708,2.5708,2.5708,2.5601,2.5372,2.502,2.4378,2.3583,2.2517,2.1575,2.1143,2.0761,2.0607,2.0479,1.9878,1.9187,1.8603,1.8094,1.7865,1.774,1.7615,1.7615,1.7608,1.7602,1.7488,1.7214,1.6852,1.6565,1.6206,1.5888,1.5821,1.5808,1.5801,1.5801,1.551,1.4776,1.3518,1.2139,1.0288,0.8676,0.8382,0.7988,0.7988,0.7988,0.7988,0.7988,0.7988,0.7988,0.7988,0.7484,0.7207,0.6656,3.5325,3.5116,3.5385,3.5489,3.5489,3.5489,3.5489,3.5133,3.3446,3.2769,3.2823,3.2002,3.1321,3.113,3.2254,3.2759,3.2206,3.2537,3.2851,3.3014,3.309,3.3102,3.3102,3.3102,3.3102,3.3241,3.3705,3.4349,3.5217,3.5682,3.5972,3.5998,3.4715,3.3093,3.2028,3.0566,2.9138,2.8354,2.8301,2.8291,2.8252,2.7966,2.7738,2.7575,2.734,2.709,2.6963,2.6748,2.6602,2.6338,2.5932,2.5747,2.5708,2.5708,2.5708,2.5708,2.5708,2.5708,2.5708,2.5708,2.5708,2.5708,2.5708,2.5708,2.5708,2.5708,2.5708,2.5504,2.5455,2.4888,2.3998,2.2951,2.2206,2.1651,2.1423,2.1237,2.1169,2.0888,2.0051,1.922,1.8734,1.8356,1.8101,1.7615,1.7615,1.7615,1.7615,1.7615,1.7334,1.7013,1.6732,1.642,1.6106,1.5861,1.5808,1.5801,1.5801,1.5432,1.5092,1.3788,1.2285,0.9776,0.8013,0.7988,0.7988,0.7988,0.7988,0.7988,0.7988,0.7988,0.7988,0.7988,0.7335,0.6506,0.5632,3.5086,3.4742,3.5266,3.5489,3.5489,3.5489,3.5489,3.5166,3.3446,3.2593,3.2435,3.1164,3.0568,3.0683,3.106,3.1549,3.193,3.2227,3.2587,3.2851,3.3052,3.309,3.3102,3.3102,3.3178,3.3379,3.3734,3.4301,3.5017,3.5443,3.5717,3.5675,3.4191,3.228,3.1495,2.9937,2.8301,2.8301,2.8301,2.8301,2.8144,2.7959,2.7878,2.7663,2.7438,2.7197,2.7187,2.7002,2.6826,2.642,2.604,2.5874,2.5786,2.5786,2.5708,2.5708,2.5708,2.5708,2.5708,2.5708,2.5708,2.5708,2.5708,2.5708,2.5708,2.5708,2.5708,2.5684,2.5611,2.5299,2.4378,2.3816,2.3101,2.2667,2.2458,2.2332,2.2282,2.2055,2.1092,2.011,1.942,1.9013,1.8199,1.7687,1.7615,1.7615,1.7615,1.7615,1.7508,1.7173,1.6866,1.6578,1.6253,1.6059,1.5855,1.5801,1.5801,1.573,1.5289,1.4004,1.2358,0.9797,0.8184,0.7988,0.7988,0.7988,0.7988,0.7988,0.7988,0.7988,0.7988,0.7836,0.683,0.5904,0.4558,3.4937,3.5325,3.5474,3.5489,3.5489,3.5489,3.5489,3.5166,3.3463,3.2593,3.215,3.0817,2.9955,2.998,3.0507,3.0927,3.1215,3.17,3.2114,3.2378,3.2801,3.3002,3.309,3.3065,3.3357,3.3558,3.3822,3.4414,3.4904,3.5295,3.5725,3.6023,3.3614,3.2205,3.176,3.0016,2.8301,2.8301,2.8301,2.8301,2.8301,2.8193,2.8203,2.8125,2.8096,2.8047,2.79,2.7328,2.7054,2.6674,2.6186,2.601,2.5962,2.5884,2.5737,2.5708,2.5708,2.5708,2.5708,2.5708,2.5708,2.5708,2.5708,2.5708,2.5708,2.5708,2.5708,2.5708,2.5659,2.5659,2.5094,2.5094,2.4633,2.4633,2.4526,2.4501,2.4476,2.3633,2.2642,2.138,2.0231,1.9195,1.7871,1.7615,1.7615,1.7615,1.7615,1.7608,1.7582,1.7294,1.6993,1.6692,1.6373,1.6119,1.5861,1.5815,1.5801,1.5801,1.5313,1.3812,1.1964,0.9698,0.8478,0.8113,0.7988,0.7988,0.7988,0.7988,0.7988,0.7988,0.7988,0.7662,0.6559,0.5375,0.4087]},{"header":{"parameterUnit":"m.s-1","parameterCategory":1,"la1":31.0,"la2":29.5877,"lo1":-88.7671,"lo2":-86.6584,"dy":0.0162,"dx":0.0185,"nx":115,"ny":88,"refTime":"2023-08-26T06:00:00:Z","depth":0,"parameterNumber":3,"parameterNumberName":"V-component_of_WINDS"},"data":[0.0,0.0,0.0,0.0,0.0,0.0,0.0,0.0,0.0,0.0,0.0,0.0,0.0,0.0,0.0,0.0,0.0,0.0,0.0,0.0,0.0,0.0,0.0,0.0,0.0,0.0,0.0,0.0,0.0,0.0,0.0,0.0,0.0,0.0,0.0,0.0,0.0,0.0,0.0,0.0,0.0,0.0,0.0,0.0,0.0,0.0,0.0,0.0,0.0,0.0,0.0,0.0,0.0,0.0,0.0,0.0,0.0,0.0,0.0,0.0,0.0,0.0,0.0,0.0,0.0,0.0,0.0,0.0,0.0,0.0,0.0,0.0,0.0,0.0,0.0,0.0,0.0,0.0,0.0,0.0,0.0,0.0,0.0,0.0,0.0,0.0,0.0,0.0,0.0,0.0,0.0,0.0,0.0,0.0,0.0,0.0,0.0,0.0,0.0,0.0,0.0,0.0,0.0,0.0,0.0,0.0,0.0,0.0,0.0,0.0,0.0,0.0,0.0,0.0,0.0,0.0,0.0,0.0,0.0,0.0,0.0,0.0,0.0,0.0,0.0,0.0,0.0,0.0,0.0,0.0,0.0,0.0,0.0,0.0,0.0,0.0,0.0,0.0,0.0,0.0,0.0,0.0,0.0,0.0,0.0,0.0,0.0,0.0,0.0,0.0,0.0,0.0,0.0,0.0,0.0,0.0,0.0,0.0,0.0,0.0,0.0,0.0,0.0,0.0,0.0,0.0,0.0,0.0,0.0,0.0,0.0,0.0,0.0,0.0,0.0,0.0,0.0,0.0,0.0,0.0,0.0,0.0,0.0,0.0,0.0,0.0,0.0,0.0,0.0,0.0,0.0,0.0,0.0,0.0,0.0,0.0,0.0,0.0,0.0,0.0,0.0,0.0,0.0,0.0,0.0,0.0,0.0,0.0,0.0,0.0,0.0,0.0,0.0,0.0,0.0,0.0,0.0,0.0,0.0,0.0,0.0,0.0,0.0,0.0,0.0,0.0,0.0,0.0,0.0,0.0,0.0,0.0,0.0,0.0,0.0,0.0,0.0,0.0,0.0,0.0,0.0,0.0,0.0,0.0,0.0,0.0,0.0,0.0,0.0,0.0,0.0,0.0,0.0,0.0,0.0,0.0,0.0,0.0,0.0,0.0,0.0,0.0,0.0,0.0,0.0,0.0,0.0,0.0,0.0,0.0,0.0,0.0,0.0,0.0,0.0,0.0,0.0,0.0,0.0,0.0,0.0,0.0,0.0,0.0,0.0,0.0,0.0,0.0,0.0,0.0,0.0,0.0,0.0,0.0,0.0,0.0,0.0,0.0,0.0,0.0,0.0,0.0,0.0,0.0,0.0,0.0,0.0,0.0,0.0,0.0,0.0,0.0,0.0,0.0,0.0,0.0,0.0,0.0,0.0,0.0,0.0,0.0,0.0,0.0,0.0,0.0,0.0,0.0,0.0,0.0,0.0,0.0,0.0,0.0,0.0,0.0,0.0,0.0,0.0,0.0,0.0,0.0,0.0,0.0,0.0,0.0,0.0,0.0,0.0,0.0,0.0,0.0,0.0,0.0,0.0,0.0,0.0,0.0,0.0,0.0,0.0,0.0,0.0,0.0,0.0,0.0,0.0,0.0,0.0,0.0,0.0,0.0,0.0,0.0,0.0,0.0,0.0,0.0,0.0,0.0,0.0,0.0,0.0,0.0,0.0,0.0,0.0,0.0,0.0,0.0,0.0,0.0,0.0,0.0,0.0,0.0,0.0,0.0,0.0,0.0,0.0,0.0,0.0,0.0,0.0,0.0,0.0,0.0,0.0,0.0,0.0,0.0,0.0,0.0,0.0,0.0,0.0,0.0,0.0,0.0,0.0,0.0,0.0,0.0,0.0,0.0,0.0,0.0,0.0,0.0,0.0,0.0,0.0,0.0,0.0,0.0,0.0,0.0,0.0,0.0,0.0,0.0,0.0,0.0,0.0,0.0,0.0,0.0,0.0,0.0,0.0,0.0,0.0,0.0,0.0,0.0,0.0,0.0,0.0,0.0,0.0,0.0,0.0,0.0,0.0,0.0,0.0,0.0,0.0,0.0,0.0,0.0,0.0,0.0,0.0,0.0,0.0,0.0,0.0,0.0,0.0,0.0,0.0,0.0,0.0,0.0,0.0,0.0,0.0,0.0,0.0,0.0,0.0,0.0,0.0,0.0,0.0,0.0,0.0,0.0,0.0,0.0,0.0,0.0,0.0,0.0,0.0,0.0,0.0,0.0,0.0,0.0,0.0,0.0,0.0,0.0,0.0,0.0,0.0,0.0,0.0,0.0,0.0,0.0,0.0,0.0,0.0,0.0,0.0,0.0,0.0,0.0,0.0,0.0,0.0,0.0,0.0,0.0,0.0,0.0,0.0,0.0,0.0,0.0,0.0,0.0,0.0,0.0,0.0,0.0,0.0,0.0,0.0,0.0,0.0,0.0,0.0,0.0,0.0,0.0,0.0,0.0,0.0,0.0,0.0,0.0,0.0,0.0,0.0,0.0,0.0,0.0,0.0,0.0,0.0,0.0,0.0,0.0,0.0,0.0,0.0,0.0,0.0,0.0,0.0,0.0,0.0,0.0,0.0,0.0,0.0,0.0,0.0,0.0,0.0,0.0,0.0,0.0,0.0,0.0,0.0,0.0,0.0,0.0,0.0,0.0,0.0,0.0,0.0,0.0,0.0,0.0,0.0,0.0,0.0,0.0,0.0,0.0,0.0,0.0,0.0,0.0,0.0,0.0,0.0,0.0,0.0,0.0,0.0,0.0,0.0,0.0,0.0,0.0,0.0,0.0,0.0,0.0,0.0,0.0,0.0,0.0,0.0,0.0,0.0,0.0,0.0,0.0,0.0,0.0,0.0,0.0,0.0,0.0,0.0,0.0,0.0,0.0,0.0,0.0,0.0,0.0,0.0,0.0,0.0,0.0,0.0,0.0,0.0,0.0,0.0,0.0,0.0,0.0,0.0,0.0,0.0,0.0,0.0,0.0,0.0,0.0,0.0,0.0,0.0,0.0,0.0,0.0,0.0,0.0,0.0,0.0,0.0,0.0,0.0,0.0,0.0,0.0,0.0,0.0,0.0,0.0,0.0,0.0,0.0,0.0,0.0,0.0,0.0,0.0,0.0,0.0,0.0,0.0,0.0,0.0,0.0,0.0,0.0,0.0,0.0,0.0,0.0,0.0,0.0,0.0,0.0,0.0,0.0,0.0,0.0,0.0,0.0,0.0,0.0,0.0,0.0,0.0,0.0,0.0,0.0,0.0,0.0,0.0,0.0,0.0,0.0,0.0,0.0,0.0,0.0,0.0,0.0,0.0,0.0,0.0,0.0,0.0,0.0,0.0,0.0,0.0,0.0,0.0,0.0,0.0,0.0,0.0,0.0,0.0,0.0,0.0,0.0,0.0,0.0,0.0,0.0,0.0,0.0,0.0,0.0,0.0,0.0,0.0,0.0,0.0,0.0,0.0,0.0,0.0,0.0,0.0,0.0,0.0,0.0,0.0,0.0,0.0,0.0,0.0,0.0,0.0,0.0,0.0,0.0,0.0,0.0,0.0,0.0,0.0,0.0,0.0,0.0,0.0,0.0,0.0,0.0,0.0,0.0,0.0,0.0,0.0,0.0,0.0,0.0,0.0,0.0,0.0,0.0,0.0,0.0,0.0,0.0,0.0,0.0,0.0,0.0,0.0,0.0,0.0,0.0,0.0,0.0,0.0,0.0,0.0,0.0,0.0,0.0,0.0,0.0,0.0,0.0,0.0,0.0,0.0,0.0,0.0,0.0,0.0,0.0,0.0,0.0,0.0,0.0,0.0,0.0,0.0,0.0,0.0,0.0,0.0,0.0,0.0,0.0,0.0,0.0,0.0,0.0,0.0,0.0,0.0,0.0,0.0,0.0,0.0,0.0,0.0,0.0,0.0,0.0,0.0,0.0,0.0,0.0,0.0,0.0,0.0,0.0,0.0,0.0,0.0,0.0,0.0,0.0,0.0,0.0,0.0,0.0,0.0,0.0,0.0,0.0,0.0,0.0,0.0,0.0,0.0,0.0,0.0,0.0,0.0,0.0,0.0,0.0,0.0,0.0,0.0,0.0,0.0,0.0,0.0,0.0,0.0,0.0,0.0,0.0,0.0,0.0,0.0,0.0,0.0,0.0,0.0,0.0,0.0,0.0,0.0,0.0,0.0,0.0,0.0,0.0,0.0,0.0,0.0,0.0,0.0,0.0,0.0,0.0,0.0,0.0,0.0,0.0,0.0,0.608,0.0,0.0,0.0,0.0,0.0,0.0,0.0,0.0,0.0,0.0,0.0,0.0,0.0,0.0,0.0,0.0,0.0,0.0,0.0,0.0,0.0,0.0,0.0,0.0,0.0,0.0,0.0,0.0,0.0,0.0,0.0,0.0,0.0,0.0,0.0,0.0,0.0,0.0,0.0,0.0,0.0,0.0,0.0,0.0,0.0,0.0,0.0,0.0,0.0,0.0,0.0,0.0,0.0,0.0,0.0,0.0,0.0,0.0,0.0,0.0,0.0,0.0,0.0,0.0,0.0,0.0,0.0,0.0,0.0,0.0,0.0,0.0,0.0,0.0,0.0,0.0,0.0,0.0,0.0,0.0,0.0,0.0,0.0,0.0,0.0,0.0,0.0,0.0,0.0,0.0,0.0,0.0,0.0,0.0,0.0,0.0,0.0,0.0,0.0,0.0,0.0,0.0,0.0,0.0,0.0,0.0,0.0,0.0,0.0,0.0,0.5628,0.5509,0.5623,0.5872,0.6248,0.0,0.0,0.0,0.0,0.0,0.0,0.0,0.0,0.0,0.0,0.0,0.0,0.0,0.0,0.0,0.0,0.0,0.0,0.0,0.0,0.0,0.0,0.0,0.0,0.0,0.0,0.0,0.0,0.0,0.0,0.0,0.0,0.0,0.0,0.0,0.0,0.0,0.0,0.0,0.0,0.0,0.0,0.0,0.0,0.0,0.0,0.0,0.0,0.0,0.0,0.0,0.0,0.0,0.0,0.0,0.0,0.0,0.0,0.0,0.0,0.0,0.0,0.0,0.0,0.0,0.0,0.0,0.0,0.0,0.0,0.0,0.0,0.0,0.0,0.0,0.0,0.0,0.0,0.0,0.0,0.0,0.0,0.0,0.0,0.0,0.0,0.0,0.0,0.0,0.0,0.0,0.0,0.0,0.0,0.0,0.0,0.0,0.0,0.0,0.0,0.0,0.0,0.0,0.0,0.0,0.0,0.0,0.0,0.0,0.0,0.0,0.0,0.6234,0.6603,0.6875,0.0,0.0,0.0,0.0,0.0,0.0,0.0,0.0,0.0,0.0,0.0,0.0,0.0,0.0,0.0,0.0,0.0,0.0,0.0,0.0,0.0,0.0,0.0,0.0,0.0,0.0,0.0,0.0,0.0,0.0,0.0,0.0,0.0,0.0,0.0,0.0,0.0,0.0,0.0,0.0,0.0,0.0,0.0,0.0,0.0,0.0,0.0,0.0,0.0,0.0,0.0,0.0,0.0,0.0,0.0,0.0,0.0,0.0,0.0,0.0,0.0,0.0,0.0,0.0,0.0,0.0,0.0,0.0,0.0,0.0,0.0,0.0,0.0,0.0,0.0,0.0,0.0,0.0,0.0,0.0,0.0,0.0,0.0,0.0,0.0,0.0,0.0,0.0,0.0,0.0,0.0,0.0,0.0,0.0,0.0,0.0,0.0,0.0,0.0,0.0,0.0,0.0,0.0,0.0,0.0,0.0,0.0,0.0,0.0,0.0,0.6549,0.6344,0.6992,0.0,0.8436,0.0,0.0,0.0,0.0,0.0,0.0,0.0,0.0,0.0,0.0,0.0,0.0,0.0,0.0,0.0,0.0,0.0,0.0,0.0,0.0,0.0,0.0,0.0,0.0,0.0,0.0,0.0,0.0,0.0,0.0,0.0,0.0,0.0,0.0,0.0,0.0,0.0,0.0,0.0,0.0,0.0,0.0,0.0,0.0,0.0,0.0,0.0,0.0,0.0,0.0,0.0,0.0,0.0,0.0,0.0,0.0,0.0,0.0,0.0,0.0,0.0,0.0,0.0,0.0,0.0,0.0,0.0,0.0,0.0,0.0,0.0,0.0,0.0,0.0,0.0,0.0,0.0,0.0,0.0,0.0,0.0,0.0,0.0,0.0,0.0,0.0,0.0,0.0,0.0,0.0,0.0,0.0,0.0,0.0,0.0,0.0,0.0,0.0,0.0,0.0,0.0,0.0,0.0,0.0,0.0,0.0,0.0,0.0,0.0,0.0,0.6759,0.6283,0.7343,0.8118,0.0,0.0,0.0,0.0,0.0,0.0,0.0,0.0,0.0,0.0,0.0,0.0,0.0,0.0,0.0,0.0,0.0,0.0,0.0,0.0,0.0,0.0,0.0,0.0,0.0,0.0,0.0,0.0,0.0,0.0,0.0,0.0,0.0,0.0,0.0,0.0,0.0,0.0,0.0,0.0,0.0,0.0,0.0,0.0,0.0,0.0,0.0,0.0,0.0,0.0,0.0,0.0,0.0,0.0,0.0,0.0,0.0,0.0,0.0,0.0,0.0,0.0,0.0,0.0,0.0,0.0,0.0,0.0,0.0,0.0,0.0,0.0,0.0,0.0,0.0,0.0,0.0,0.0,0.0,0.0,0.0,0.0,0.0,0.0,0.0,0.0,0.0,0.0,0.0,0.0,0.0,0.0,0.0,0.0,0.0,0.0,0.0,0.0,0.0,0.0,0.0,0.0,0.0,0.0,0.0,0.0,0.0,0.0,0.0,0.0,0.708,0.7212,0.699,0.784,0.8483,0.8737,0.0,0.0,0.0,0.0,0.0,0.0,0.0,0.0,0.0,0.0,0.0,0.0,0.0,0.0,0.0,0.0,0.0,0.0,0.0,0.0,0.0,0.0,0.0,0.0,0.0,0.0,0.0,0.0,0.0,0.0,0.0,0.0,0.0,0.0,0.0,0.0,0.0,0.0,0.0,0.0,0.0,0.0,0.0,0.0,0.0,0.0,0.0,0.0,0.0,0.0,0.0,0.0,0.0,0.0,0.0,0.0,0.0,0.0,0.0,0.0,0.0,0.0,0.0,0.0,0.0,0.0,0.0,0.0,0.0,0.0,0.0,0.0,0.0,0.0,0.0,0.0,0.0,0.0,0.0,0.0,0.0,0.0,0.0,0.0,0.0,0.0,0.0,0.0,0.0,0.0,0.0,0.0,0.0,0.0,0.0,0.0,0.0,0.0,0.0,0.0,0.0,0.0,0.0,0.0,0.0,0.0,0.0,0.0,0.6808,0.7349,0.7992,0.8583,0.8729,0.896,0.0,0.0,0.0,0.0,0.0,0.0,0.0,0.0,0.0,0.0,0.0,0.0,0.0,0.0,0.0,0.0,0.0,0.0,0.0,0.0,0.0,0.0,0.0,0.0,0.0,0.0,0.0,0.0,0.0,0.0,0.0,0.0,0.0,0.0,0.0,0.0,0.0,0.0,0.0,0.0,0.0,0.0,0.0,0.0,0.0,0.0,0.0,0.0,0.0,0.0,0.0,0.0,0.0,0.0,0.0,0.0,0.0,0.0,0.0,0.0,0.0,0.0,0.0,0.0,0.0,0.0,0.0,0.0,0.0,0.0,0.0,0.0,0.0,0.0,0.0,0.0,0.0,0.0,0.0,0.0,0.0,0.0,0.0,0.0,0.0,0.0,0.0,0.0,0.0,0.0,0.0,0.0,0.0,0.0,0.0,0.0,0.0,0.0,0.0,0.0,0.0,0.0,0.0,0.0,0.0,0.0,0.0,0.0,0.0,0.6019,0.6302,0.6866,0.7694,0.8172,0.8602,0.0,0.0,0.0,0.0,0.0,0.0,0.0,0.0,0.0,0.0,0.0,0.0,0.0,0.0,0.0,0.0,0.0,0.0,0.0,0.0,0.0,0.0,0.0,0.0,0.0,0.0,0.0,0.0,0.0,0.0,0.0,0.0,0.0,0.0,0.0,0.0,0.0,0.0,0.0,0.0,0.0,0.0,0.0,0.0,0.0,0.0,0.0,0.0,0.0,0.0,0.0,0.0,0.0,0.0,0.0,0.0,0.0,0.0,0.0,0.0,0.0,0.0,0.0,0.0,0.0,0.0,0.0,0.0,0.0,0.0,0.0,0.0,0.0,0.0,0.0,0.0,0.0,0.0,0.0,0.0,0.0,0.0,0.0,0.0,0.0,0.0,0.0,0.0,0.0,0.0,0.0,0.0,0.0,0.0,0.0,0.0,0.0,0.0,0.0,0.0,0.0,0.0,0.0,0.0,0.0,0.0,0.0,0.0,0.0,0.6355,0.0,0.695,0.726,0.8121,0.8596,0.0,0.0,0.0,0.0,0.0,0.0,0.0,0.0,0.0,0.0,0.0,0.0,0.0,0.0,0.0,0.0,0.0,0.0,0.0,0.0,0.0,0.0,0.0,0.0,0.0,0.0,0.0,0.0,0.0,0.0,0.0,0.0,0.0,0.0,0.0,0.0,0.0,0.0,0.0,0.0,0.0,0.0,0.0,0.0,0.0,0.0,0.0,0.0,0.0,0.0,0.0,0.0,0.0,0.0,0.0,0.0,0.0,0.0,0.0,0.0,0.0,0.0,0.0,0.0,0.0,0.0,0.0,0.0,0.0,0.0,0.0,0.0,0.0,0.0,0.0,0.0,0.0,0.0,0.0,0.0,0.0,0.0,0.0,0.0,0.0,0.0,0.0,0.0,0.0,0.0,0.0,0.0,0.0,0.0,0.0,0.0,0.0,0.0,0.0,0.0,0.0,0.0,0.0,0.0,0.0,0.0,0.0,0.0,0.8311,0.7973,0.8427,0.8292,0.7664,0.872,0.9009,0.0,0.0,0.0,0.0,0.0,0.0,0.0,0.0,0.0,0.0,0.0,0.0,0.0,0.0,0.0,0.0,0.0,0.0,0.0,0.0,0.0,0.0,0.0,0.0,0.0,0.0,0.0,0.0,0.0,0.0,0.0,0.0,0.0,0.0,0.0,0.0,0.0,0.0,0.0,0.0,0.0,0.0,0.0,0.0,0.0,0.0,0.0,0.0,0.0,0.0,0.0,0.0,0.0,0.0,0.0,0.0,0.0,0.0,0.0,0.0,0.0,0.0,0.0,0.0,0.0,0.0,0.0,0.0,0.0,0.0,0.0,0.0,0.0,0.0,0.0,0.0,0.0,0.0,0.0,0.0,0.0,0.0,0.0,0.0,0.0,0.0,0.0,0.0,0.0,0.0,0.0,0.0,0.0,0.0,0.0,0.0,0.0,0.0,0.0,0.0,0.0,0.0,0.0,0.0,0.0,0.0,0.0,0.0,0.0,0.6962,0.7555,0.8003,0.8214,0.8444,0.8874,0.0,0.0,0.0,0.0,0.0,0.0,0.0,0.0,0.0,0.0,0.0,0.0,0.0,0.0,0.0,0.0,0.0,0.0,0.0,0.0,0.0,0.0,0.0,0.0,0.0,0.0,0.0,0.0,0.0,0.0,0.0,0.0,0.0,0.0,0.0,0.0,0.0,0.0,0.0,0.0,0.0,0.0,0.0,0.0,0.0,0.0,0.0,0.0,0.0,0.0,0.0,0.0,0.0,0.0,0.0,0.0,0.0,0.0,0.0,0.0,0.0,0.0,0.0,0.0,0.0,0.0,0.0,0.0,0.0,0.0,0.0,0.0,0.0,0.0,0.0,0.0,0.0,0.0,0.0,0.0,0.0,0.0,0.0,0.0,0.0,0.0,0.0,0.0,0.0,0.0,0.0,0.0,0.0,0.0,0.0,0.0,0.0,0.0,0.0,0.0,0.0,0.0,0.0,0.0,0.0,0.0,0.0,0.0,0.0,0.8588,0.8774,0.9102,0.9508,0.9426,0.9447,0.9632,0.0,0.0,0.0,0.0,0.0,0.0,0.0,0.0,0.0,0.0,0.0,0.0,0.0,0.0,0.0,0.0,0.0,0.0,0.0,0.0,0.0,0.0,0.0,0.0,0.0,0.0,0.0,0.0,0.0,0.0,0.0,0.0,0.0,0.0,0.0,0.0,0.0,0.0,0.0,0.0,0.0,0.0,0.0,0.0,0.0,0.0,0.0,0.0,0.0,0.0,0.0,0.0,0.0,0.0,0.0,0.0,0.0,0.0,0.0,0.0,0.0,0.0,0.0,0.0,0.0,0.0,0.0,0.0,0.0,0.0,0.0,0.0,0.0,0.0,0.0,0.0,0.0,0.0,0.0,0.0,0.0,0.0,0.0,0.0,0.0,0.0,0.0,0.0,0.0,0.0,0.0,0.0,0.0,0.0,0.0,0.0,0.0,0.0,0.0,0.0,0.0,0.0,0.0,0.0,0.0,0.0,0.0,0.0,1.2189,1.1832,1.1596,1.1505,1.1418,1.063,0.0,0.0,0.0,0.0,0.0,0.0,0.0,0.0,0.0,0.0,0.0,0.0,0.0,0.0,0.0,0.0,0.0,0.0,0.0,0.0,0.0,0.0,0.0,0.0,0.0,0.0,0.0,0.0,0.0,0.0,0.0,0.0,0.0,0.0,0.0,0.0,0.0,0.0,0.0,0.0,0.0,0.0,0.0,0.0,0.0,0.0,0.0,0.0,0.0,0.0,0.0,0.0,0.0,0.0,0.0,0.0,0.0,0.0,0.0,0.0,0.0,0.0,0.0,0.0,0.0,0.0,0.0,0.0,0.0,0.0,0.0,0.0,0.0,0.0,0.0,0.0,0.0,0.0,0.0,0.0,0.0,0.0,0.0,0.0,0.0,0.0,0.0,0.0,0.0,0.0,0.0,0.0,0.0,0.0,0.0,0.0,0.0,0.0,0.0,0.0,0.0,0.0,0.0,0.0,0.0,0.0,0.0,0.0,0.0,1.3404,1.4814,1.5312,1.4736,1.3176,1.2245,0.0,0.0,0.0,0.0,0.0,0.0,0.0,0.0,0.0,0.0,0.0,0.0,0.0,0.0,0.0,0.0,0.0,0.0,0.0,0.0,0.0,0.0,0.0,0.0,0.0,0.0,0.0,0.0,0.0,0.0,0.0,0.0,0.0,0.0,0.0,0.0,0.0,0.0,0.0,0.0,0.0,0.0,0.0,0.0,0.0,0.0,0.0,0.0,0.0,0.0,0.0,0.0,0.0,0.0,0.0,0.0,0.0,0.0,0.0,0.0,0.0,0.0,0.0,0.0,0.0,0.0,0.0,0.0,0.0,0.0,0.0,0.0,0.0,0.0,0.0,0.0,0.0,0.0,0.0,0.0,0.0,0.0,0.0,0.0,0.0,0.0,0.0,0.0,0.0,0.0,0.0,0.0,0.0,0.0,0.0,0.0,0.0,0.0,0.0,0.0,0.0,0.0,0.0,0.0,0.0,0.0,0.0,0.0,1.3108,1.5347,1.7496,1.8742,1.8981,1.6102,1.4024,0.0,0.0,0.0,0.0,0.0,0.0,0.0,0.0,0.0,0.0,0.0,0.0,0.0,0.0,0.0,0.0,0.0,0.0,0.0,0.0,0.0,0.0,0.0,0.0,0.0,0.0,0.0,0.0,0.0,0.0,0.0,0.0,0.0,0.0,0.0,0.0,0.0,0.0,0.0,0.0,0.0,0.0,0.0,0.0,0.0,0.0,0.0,0.0,0.0,0.0,0.0,0.0,0.0,0.0,0.0,0.0,0.0,0.0,0.0,0.0,0.0,0.0,0.0,0.0,0.0,0.0,0.0,0.0,0.0,0.0,0.0,0.0,0.0,0.0,0.0,0.0,0.0,0.0,0.0,0.0,0.0,0.0,0.0,0.0,0.0,0.0,0.0,0.0,0.0,0.0,0.0,0.0,0.0,0.0,0.0,0.0,0.0,0.0,0.0,0.0,0.0,0.0,0.0,0.0,0.0,0.0,0.0,0.0,1.4542,1.7249,1.9634,2.1473,2.2566,1.9022,1.5697,0.0,0.0,0.0,0.0,0.0,0.0,0.0,0.0,0.0,0.0,0.0,0.0,0.0,0.0,0.0,0.0,0.0,0.0,0.0,0.0,0.0,0.0,0.0,0.0,0.0,0.0,0.0,0.0,0.0,0.0,0.0,0.0,0.0,0.0,0.0,0.0,0.0,0.0,0.0,0.0,0.0,0.0,0.0,0.0,0.0,0.0,0.0,0.0,0.0,0.0,0.0,0.0,0.0,0.0,0.0,0.0,0.0,0.0,0.0,0.0,0.0,0.0,0.0,0.0,0.0,0.0,0.0,0.0,0.0,0.0,0.0,0.0,0.0,0.0,0.0,0.0,0.0,0.0,0.0,0.0,0.0,0.0,0.0,0.0,0.0,0.0,0.0,0.0,0.0,0.0,0.0,0.0,0.0,0.0,0.0,0.0,0.0,0.0,0.0,0.0,0.0,0.0,0.0,0.0,0.0,0.0,0.0,0.0,1.5328,1.6633,2.0108,2.1445,2.0442,1.7951,1.6122,0.0,0.0,0.0,0.0,0.0,0.0,0.0,0.0,0.0,0.0,0.0,0.0,0.0,0.0,0.0,0.0,0.0,0.0,0.0,0.0,0.0,0.0,0.0,0.0,0.0,0.0,0.0,0.0,0.0,0.0,0.0,0.0,0.0,0.0,0.0,0.0,0.0,0.0,0.0,0.0,0.0,0.0,0.0,0.0,0.0,0.0,0.0,0.0,1.6766,0.0,0.0,0.0,0.0,0.0,0.0,0.0,0.0,0.0,0.0,0.0,0.0,0.0,0.0,0.0,0.0,0.0,0.0,0.0,0.0,0.0,0.0,0.0,0.0,0.0,0.0,0.0,0.0,0.0,0.0,0.0,0.0,0.0,0.0,0.0,0.0,0.0,0.0,0.0,0.0,0.0,0.0,0.0,0.0,0.0,0.0,0.0,0.0,0.0,0.0,0.0,0.0,0.0,0.0,0.0,0.0,0.0,0.0,0.0,1.6093,1.8003,2.0834,2.212,2.1648,1.9098,1.7052,0.0,0.0,0.0,0.0,0.0,0.0,0.0,0.0,0.0,0.0,0.0,0.0,0.0,0.0,0.0,0.0,0.0,0.0,0.0,0.0,0.0,0.0,0.0,0.0,0.0,0.0,0.0,0.0,0.0,0.0,0.0,0.0,0.0,0.0,0.0,0.0,0.0,0.0,0.0,0.0,0.0,0.0,0.0,0.0,0.0,0.0,0.0,0.0,0.0,0.0,0.0,0.0,0.0,0.0,0.0,0.0,0.0,0.0,0.0,0.0,0.0,0.0,0.0,0.0,0.0,0.0,0.0,0.0,0.0,0.0,0.0,0.0,0.0,0.0,0.0,0.0,0.0,0.0,0.0,0.0,0.0,0.0,0.0,0.0,0.0,0.0,0.0,0.0,0.0,0.0,0.0,0.0,0.0,0.0,0.0,0.0,0.0,0.0,0.0,0.0,0.0,0.0,0.0,0.0,0.0,0.0,0.0,1.4123,1.6793,1.9766,2.1534,2.2825,2.3595,2.0721,1.8129,1.6045,0.0,0.0,0.0,0.0,0.0,0.0,0.0,0.0,0.0,0.0,0.0,0.0,0.0,0.0,0.0,0.0,0.0,0.0,0.0,0.0,0.0,0.0,0.0,0.0,0.0,0.0,0.0,0.0,0.0,0.0,0.0,0.0,0.0,0.0,0.0,0.0,0.0,0.0,1.3712,1.4949,0.0,0.0,0.0,0.0,0.0,0.0,0.0,0.0,1.7368,0.0,0.0,0.0,0.0,0.0,0.0,0.0,0.0,0.0,0.0,0.0,0.0,0.0,0.0,0.0,0.0,0.0,0.0,0.0,0.0,0.0,0.0,0.0,0.0,0.0,0.0,0.0,0.0,0.0,0.0,0.0,0.0,0.0,0.0,0.0,0.0,0.0,0.0,0.0,0.0,0.0,0.0,0.0,0.0,0.0,0.0,0.0,0.0,0.0,0.0,0.0,0.0,0.0,0.0,0.0,0.0,1.3771,1.5181,1.7243,2.0052,2.1982,2.2743,2.2228,2.0572,1.8857,1.7146,0.0,0.0,0.0,0.0,0.0,0.0,0.0,0.0,0.0,0.0,0.0,0.0,0.0,0.0,0.0,0.0,0.0,0.0,0.0,0.0,0.0,0.0,0.0,0.0,0.0,0.0,0.0,0.0,0.0,0.0,0.0,0.0,0.0,0.0,0.0,0.0,0.0,0.0,0.0,1.6283,1.6876,0.0,0.0,0.0,0.0,0.0,0.0,0.0,0.0,1.8278,0.0,0.0,0.0,0.0,0.0,0.0,0.0,0.0,0.0,0.0,0.0,0.0,0.0,0.0,0.0,0.0,0.0,0.0,0.0,0.0,0.0,0.0,0.0,0.0,0.0,0.0,0.0,0.0,0.0,0.0,0.0,0.0,0.0,0.0,0.0,0.0,0.0,0.0,0.0,0.0,0.0,0.0,0.0,0.0,0.0,0.0,0.0,0.0,0.0,0.0,0.0,0.0,0.0,0.0,0.0,1.4006,1.6345,1.8634,2.0831,2.2327,2.279,2.2096,2.0612,1.8894,0.0,0.0,0.0,0.0,0.0,0.0,0.0,0.0,0.0,0.0,0.0,0.0,0.0,0.0,0.0,0.0,0.0,0.0,0.0,0.0,0.0,0.0,0.0,0.0,0.0,0.0,0.0,0.0,0.0,0.0,0.0,0.0,0.0,0.0,0.0,0.0,0.0,0.0,0.0,0.0,1.7451,1.8331,2.0927,0.0,0.0,0.0,0.0,0.0,0.0,1.9448,1.9162,0.0,0.0,0.0,0.0,0.0,0.0,0.0,0.0,0.0,0.0,0.0,0.0,0.0,0.0,0.0,0.0,0.0,0.0,0.0,0.0,0.0,0.0,0.0,0.0,0.0,0.0,0.0,0.0,0.0,0.0,0.0,0.0,0.0,0.0,0.0,0.0,0.0,0.0,0.0,0.0,0.0,0.0,0.0,0.0,0.0,0.0,0.0,0.0,0.0,0.0,0.0,0.0,0.0,0.0,0.0,1.3956,1.72,1.9683,2.128,2.2368,2.2696,2.2119,2.03,1.848,0.0,0.0,0.0,0.0,0.0,0.0,0.0,0.0,0.0,0.0,0.0,0.0,0.0,0.0,0.0,0.0,0.0,0.0,0.0,0.0,0.0,0.0,0.0,0.0,0.0,0.0,0.0,0.0,0.0,0.0,0.0,0.0,0.0,0.0,0.0,0.0,0.0,0.0,0.0,0.0,0.0,2.0004,2.2772,2.1783,0.0,0.0,0.0,0.0,2.0801,2.0831,0.0,0.0,0.0,0.0,0.0,0.0,0.0,0.0,0.0,0.0,0.0,0.0,0.0,0.0,0.0,0.0,0.0,0.0,0.0,0.0,0.0,0.0,0.0,0.0,0.0,0.0,0.0,0.0,0.0,0.0,0.0,0.0,0.0,0.0,0.0,0.0,0.0,0.0,0.0,0.0,0.0,0.0,0.0,0.0,0.0,0.0,0.0,0.0,0.0,0.0,0.0,0.0,0.0,0.0,0.0,0.0,1.4352,1.7122,1.9304,2.0753,2.1832,2.2146,2.1568,1.9057,1.7574,0.0,0.0,0.0,0.0,0.0,0.0,0.0,0.0,0.0,0.0,0.0,0.0,0.0,0.0,0.0,0.0,0.0,0.0,0.0,0.0,0.0,0.0,0.0,0.0,0.0,0.0,0.0,0.0,0.0,0.0,0.0,0.0,0.0,0.0,0.0,0.0,0.0,0.0,0.0,0.0,0.0,2.1265,2.2368,2.1916,2.1406,0.0,0.0,2.3473,2.3529,2.4596,0.0,0.0,0.0,0.0,0.0,0.0,0.0,0.0,0.0,0.0,0.0,0.0,0.0,0.0,0.0,0.0,0.0,0.0,0.0,0.0,0.0,0.0,0.0,0.0,0.0,0.0,0.0,0.0,0.0,0.0,0.0,0.0,0.0,0.0,0.0,0.0,0.0,0.0,0.0,0.0,0.0,0.0,0.0,0.0,0.0,0.0,0.0,0.0,0.0,0.0,0.0,0.0,0.0,0.0,0.0,1.3526,1.4491,1.8227,2.0356,2.0703,2.1744,2.1895,2.1069,1.8668,1.7236,0.0,0.0,0.0,0.0,0.0,0.0,0.0,0.0,0.0,0.0,0.0,0.0,0.0,0.0,0.0,0.0,0.0,0.0,0.0,0.0,0.0,0.0,0.0,0.0,0.0,0.0,0.0,0.0,0.0,0.0,0.0,0.0,0.0,0.0,0.0,0.0,0.0,0.0,0.0,0.0,0.0,0.0,2.3794,2.3663,0.0,0.0,0.0,2.4174,2.3137,0.0,0.0,0.0,0.0,0.0,0.0,0.0,0.0,0.0,0.0,0.0,0.0,0.0,0.0,0.0,0.0,0.0,0.0,0.0,0.0,0.0,0.0,0.0,0.0,0.0,0.0,0.0,0.0,0.0,0.0,0.0,0.0,0.0,0.0,0.0,0.0,0.0,0.0,0.0,0.0,0.0,0.0,0.0,0.0,0.0,0.0,0.0,0.0,0.0,0.0,0.0,0.0,0.0,0.0,0.0,0.0,0.0,1.4861,1.9198,2.1306,2.0944,2.1669,2.1721,2.0893,1.8882,0.0,0.0,0.0,0.0,0.0,0.0,0.0,0.0,0.0,0.0,0.0,0.0,0.0,0.0,0.0,0.0,0.0,0.0,0.0,0.0,0.0,0.0,0.0,0.0,0.0,0.0,0.0,1.3711,0.0,0.0,0.0,0.0,0.0,0.0,0.0,0.0,0.0,0.0,0.0,0.0,0.0,0.0,2.4555,2.497,2.5167,2.5467,0.0,0.0,2.495,2.4071,2.63,2.7195,0.0,0.0,0.0,0.0,0.0,0.0,0.0,0.0,0.0,0.0,0.0,0.0,0.0,0.0,0.0,0.0,0.0,0.0,0.0,0.0,0.0,0.0,0.0,0.0,0.0,0.0,0.0,0.0,0.0,0.0,0.0,0.0,0.0,0.0,0.0,0.0,0.0,0.0,0.0,0.0,0.0,0.0,0.0,0.0,0.0,0.0,0.0,0.0,0.0,0.0,0.0,0.0,0.0,0.0,1.5291,1.5903,1.9566,2.1468,2.1443,2.152,2.152,2.1432,1.9785,1.8619,0.0,0.0,0.0,0.0,0.0,0.0,0.0,0.0,0.0,0.0,0.0,0.0,0.0,0.0,0.0,0.0,0.0,0.0,0.0,0.0,0.0,0.0,0.0,0.0,0.0,0.0,0.0,0.0,0.0,0.0,0.0,0.0,0.0,0.0,0.0,0.0,0.0,0.0,0.0,0.0,0.0,2.5394,2.5138,2.5632,2.6685,0.0,2.7192,2.6591,2.8275,2.985,2.9652,2.5853,0.0,0.0,0.0,0.0,0.0,0.0,0.0,0.0,0.0,0.0,0.0,0.0,0.0,0.0,0.0,0.0,0.0,0.0,0.0,0.0,0.0,0.0,0.0,0.0,0.0,0.0,0.0,0.0,0.0,0.0,0.0,0.0,0.0,0.0,0.0,0.0,0.0,0.0,0.0,0.0,0.0,0.0,0.0,0.0,0.0,0.0,0.0,0.0,0.0,0.0,0.0,0.0,0.0,1.536,1.5949,1.959,2.1481,2.1506,2.182,2.1832,2.1507,2.02,1.9095,0.0,0.0,0.0,0.0,0.0,0.0,0.0,0.0,0.0,0.0,0.0,0.0,0.0,0.0,0.0,0.0,0.0,0.0,0.0,0.0,0.0,0.0,0.0,0.0,0.0,0.0,0.0,0.0,1.7639,1.8019,1.8281,0.0,0.0,0.0,0.0,0.0,0.0,0.0,0.0,0.0,0.0,2.7226,2.7778,2.8108,0.0,0.0,2.8539,2.78,2.7613,2.8857,2.8707,2.5388,2.4838,0.0,0.0,0.0,0.0,0.0,0.0,0.0,0.0,0.0,0.0,0.0,0.0,0.0,0.0,0.0,0.0,0.0,0.0,0.0,0.0,0.0,0.0,0.0,0.0,0.0,0.0,0.0,0.0,0.0,0.0,0.0,0.0,0.0,0.0,0.0,0.0,0.0,0.0,0.0,0.0,0.0,0.0,0.0,0.0,0.0,0.0,0.0,0.0,0.0,0.0,0.0,0.0,1.5695,1.6385,1.9915,2.1807,2.1983,2.2182,2.2209,2.1956,2.104,2.0112,0.0,0.0,0.0,0.0,0.0,0.0,0.0,0.0,0.0,0.0,0.0,0.0,0.0,0.0,0.0,0.0,0.0,0.0,0.0,0.0,0.0,0.0,0.0,0.0,0.0,0.0,0.0,0.0,1.8753,1.9076,1.9277,0.0,0.0,0.0,0.0,0.0,0.0,0.0,0.0,0.0,0.0,2.9001,2.9088,2.8996,2.8929,2.8888,2.8169,2.7419,2.6801,2.7799,2.7874,2.5672,0.0,0.0,0.0,0.0,0.0,0.0,0.0,0.0,0.0,0.0,0.0,0.0,0.0,0.0,0.0,0.0,0.0,0.0,0.0,0.0,0.0,0.0,0.0,0.0,0.0,0.0,0.0,0.9037,0.0,0.0,1.0215,0.0,0.0,0.0,0.0,0.0,0.0,0.0,0.0,0.0,0.0,0.0,0.0,0.0,0.0,0.0,0.0,0.0,0.0,0.0,0.0,0.0,0.0,1.6396,1.746,2.0607,2.2521,2.3007,2.2556,2.2558,2.2995,2.2518,2.1983,2.1394,0.0,0.0,0.0,0.0,0.0,0.0,0.0,0.0,0.0,0.0,0.0,0.0,0.0,0.0,0.0,0.0,0.0,0.0,0.0,0.0,0.0,0.0,0.0,0.0,0.0,0.0,1.7915,1.8912,1.9923,0.0,0.0,0.0,0.0,0.0,0.0,0.0,0.0,0.0,2.5101,2.8691,3.0561,2.8326,2.7699,2.7552,2.7445,2.5911,2.5167,2.6589,2.7359,2.7666,0.0,0.0,0.0,0.0,0.0,0.0,0.0,0.0,0.0,0.0,0.0,0.0,0.0,0.0,0.0,0.0,0.0,0.0,0.0,0.0,0.0,0.0,0.0,0.0,0.0,0.0,0.0,1.1639,1.1472,0.0,0.0,0.0,0.0,0.0,0.0,0.0,0.0,0.0,0.0,0.0,1.6078,1.6785,0.0,0.0,0.0,0.0,0.0,0.0,0.0,0.0,0.0,0.0,0.0,0.0,1.6415,1.7524,2.0639,2.2571,2.3083,2.2932,2.292,2.3095,2.2932,2.2408,2.152,0.0,0.0,0.0,0.0,0.0,0.0,0.0,0.0,0.0,0.0,0.0,0.0,0.0,0.0,0.0,0.0,0.0,0.0,0.0,0.0,0.0,0.0,0.0,0.0,0.0,1.9528,0.0,0.0,0.0,0.0,0.0,0.0,0.0,0.0,0.0,0.0,2.5733,2.7094,2.8007,2.8423,2.8853,2.9339,2.9087,2.9412,0.0,0.0,0.0,0.0,0.0,0.0,0.0,0.0,0.0,0.0,0.0,0.0,0.0,0.0,2.7877,2.5149,2.4895,2.5084,2.5075,0.0,0.0,0.0,0.0,0.0,0.0,0.0,0.0,0.0,0.0,0.0,0.0,0.0,0.0,1.3714,1.3572,1.328,0.0,0.0,0.0,0.0,0.0,0.0,0.0,0.0,1.7123,1.8015,1.8567,1.9284,1.9623,1.961,1.9213,1.829,0.0,0.0,0.0,0.0,0.0,0.0,0.0,0.0,1.6918,1.8025,2.1018,2.2744,2.3083,2.3095,2.3095,2.3095,2.3095,2.2769,2.2069,2.0991,2.0231,0.0,0.0,0.0,0.0,0.0,0.0,0.0,0.0,0.0,0.0,0.0,0.0,0.0,0.0,0.0,0.0,0.0,0.0,0.0,0.0,0.0,0.0,0.0,2.0962,0.0,0.0,0.0,0.0,0.0,0.0,0.0,0.0,0.0,2.6517,2.7963,2.933,3.0164,3.007,2.9896,2.9788,0.0,0.0,0.0,0.0,0.0,0.0,0.0,2.7884,2.7649,2.8118,2.8936,3.0234,3.1314,3.1971,3.1989,0.0,0.0,2.8166,2.7514,2.7505,2.7505,2.7114,2.6821,2.6913,2.7599,2.8149,0.0,0.0,0.0,0.0,1.285,0.0,0.0,0.0,1.5825,1.5792,0.0,1.6324,0.0,0.0,0.0,0.0,1.5113,1.6097,0.0,0.0,2.0251,2.1282,2.093,2.1895,2.2383,2.2307,2.1343,2.0854,2.0701,1.8672,1.6679,0.0,0.0,0.0,0.0,0.0,1.7964,1.9121,2.1763,2.3145,2.317,2.3158,2.312,2.3108,2.3095,2.3095,2.3058,2.2083,2.1518,2.1471,1.9485,0.0,0.0,0.0,0.0,0.0,0.0,0.0,0.0,0.0,0.0,0.0,0.0,0.0,0.0,0.0,0.0,0.0,0.0,0.0,0.0,2.2701,0.0,0.0,0.0,0.0,0.0,0.0,0.0,0.0,0.0,2.8511,2.8277,3.0434,3.1967,3.1395,0.0,0.0,0.0,0.0,2.9807,2.6953,2.6127,2.5998,2.6111,2.7934,2.9824,3.1201,0.0,0.0,3.4887,3.3809,3.2985,3.2925,3.4083,3.4283,3.2109,3.0485,2.9476,2.9395,2.8902,2.8449,2.8696,2.9595,3.0024,1.7985,0.0,0.0,0.0,0.0,1.6987,1.8257,1.9732,1.9882,1.9852,1.9658,1.9553,0.0,0.0,0.0,0.0,0.0,0.0,1.9208,2.0903,2.1719,2.2623,2.3653,2.433,2.4469,2.4089,2.4139,2.3991,2.3625,2.2984,2.0611,1.6615,0.0,0.0,0.0,0.0,1.8915,2.0716,2.2715,2.3926,2.4311,2.3938,2.3537,2.3105,2.3095,2.3095,2.3095,2.2807,2.2282,2.1532,2.0904,0.0,0.0,0.0,0.0,0.0,0.0,0.0,0.0,0.0,0.0,0.0,0.0,0.0,0.0,0.0,0.0,0.0,0.0,0.0,2.2626,2.5092,2.5737,0.0,0.0,0.0,0.0,0.0,0.0,0.0,0.0,0.0,3.1719,3.1455,3.0982,0.0,0.0,2.9025,2.7864,2.9247,3.0679,3.1478,3.1516,0.0,3.3076,3.2611,3.2354,3.3001,3.4681,3.59,3.59,3.6487,3.6984,3.6958,3.6833,3.6523,3.5897,3.4379,3.3069,3.2497,3.2459,3.2604,3.2744,3.3586,3.4334,2.322,2.122,1.9297,1.8862,1.9491,2.0163,2.1385,2.285,2.2865,2.2856,2.2797,2.2701,2.1594,1.9785,1.9133,0.0,0.0,0.0,2.1504,2.36,2.3853,2.4619,2.5787,2.6322,2.6427,2.6121,2.6214,2.6118,2.5787,2.4921,2.2851,1.9679,0.0,1.7801,1.7769,1.9129,2.057,2.2055,2.3555,2.4465,2.4775,2.4478,2.4054,2.3487,2.3474,2.3349,2.3108,2.3095,2.2794,2.2171,2.2261,2.1887,0.0,0.0,0.0,0.0,0.0,0.0,0.0,0.0,0.0,0.0,0.0,2.1061,2.0314,0.0,0.0,0.0,2.4263,2.4477,2.485,2.6428,0.0,0.0,0.0,0.0,0.0,0.0,0.0,2.8286,3.0838,3.2835,3.3407,3.2661,3.2108,3.2242,3.1417,3.0567,2.9888,0.0,3.2908,3.3703,3.3807,3.4137,3.5147,3.4852,3.475,3.5607,3.656,3.7221,3.7276,3.8083,3.8663,3.8652,3.8311,3.7889,3.7566,3.6593,3.5614,3.486,3.4914,3.5127,3.516,3.6029,3.6696,2.7861,2.7115,2.2661,2.1581,2.2765,2.2882,2.3772,2.5101,2.513,2.5089,2.5121,2.5519,2.4582,2.256,2.1015,0.0,2.2711,2.2696,2.3866,2.5875,2.6381,2.6927,2.7431,2.7921,2.8147,2.8072,2.765,2.7412,2.7261,2.5322,2.3949,2.3247,2.2774,2.1605,1.9971,2.1339,2.2482,2.3153,2.4214,2.4779,2.4867,2.4867,2.4619,2.4079,2.4067,2.38,2.3256,2.3233,2.3208,2.3188,2.357,2.3737,2.3633,0.0,0.0,0.0,0.0,0.0,0.0,0.0,0.0,0.0,0.0,0.0,0.0,0.0,0.0,2.6396,2.7805,0.0,2.8412,2.7366,0.0,0.0,0.0,2.7756,3.0187,3.1074,3.1758,3.2426,0.0,0.0,3.3957,3.399,3.4633,3.6365,3.6321,3.5525,3.3975,3.5045,3.5741,3.4302,3.4174,3.4247,3.4706,3.5646,3.6868,3.8149,3.8699,3.8589,3.8597,3.8644,3.8699,3.8699,3.8681,3.8487,3.7724,3.7565,3.7364,3.6615,3.6417,3.6387,3.6399,3.7011,3.7412,2.8542,2.9095,2.7964,2.6952,2.621,2.7016,2.7569,2.791,2.7941,2.7702,2.7288,2.7035,2.6369,2.5481,2.5075,2.5339,2.6118,2.6118,2.6829,2.8066,2.7846,2.7991,2.8518,2.8656,2.8493,2.8129,2.838,2.8323,2.7896,2.7394,2.6208,2.451,2.5128,2.3785,2.0547,2.1231,2.2366,2.3791,2.4054,2.4594,2.5372,2.541,2.5159,2.4628,2.4603,2.4553,2.4415,2.4402,2.4214,2.3844,2.4882,2.5119,2.4259,2.3628,0.0,0.0,0.0,0.0,0.0,0.0,0.0,0.0,0.0,2.3593,2.2546,0.0,2.4825,0.0,2.9333,3.0993,3.0108,3.101,0.0,0.0,3.0069,3.0311,3.0965,3.2784,3.3635,3.259,3.4313,3.5626,3.5708,3.5704,3.6549,3.866,3.6365,3.4154,3.3556,3.5067,3.6174,3.5888,3.6688,3.7514,3.7441,3.7826,3.8204,3.8626,3.8699,3.8699,3.8699,3.8699,3.8699,3.8699,3.8699,3.8615,3.8432,3.8414,3.8358,3.8138,3.765,3.7217,3.7235,3.7852,3.8332,2.9216,2.9779,2.9779,2.9252,2.8467,2.9051,2.9296,2.9315,2.9296,2.9151,2.8812,2.826,2.7846,2.7557,2.7324,2.7512,2.7996,2.8009,2.8486,2.927,2.9001,2.9013,2.9283,2.9296,2.9151,2.8875,2.9164,2.9132,2.8863,2.8599,2.7809,2.6648,2.7017,2.5873,2.3334,2.2825,2.2787,2.3099,2.3932,2.4895,2.5937,2.6009,2.5498,2.449,2.4428,2.4076,2.3376,2.3339,2.3201,2.2942,2.422,2.4817,2.446,2.4253,2.4252,0.0,0.0,0.0,0.0,0.0,0.0,0.0,0.0,0.0,0.0,0.0,2.6927,2.761,3.0781,3.2293,3.111,3.2144,3.2721,3.2267,3.3022,3.3688,3.4021,3.5987,3.6808,3.5602,3.7198,3.8285,3.7962,3.7907,3.8505,4.0194,3.8175,3.6454,3.6313,3.6959,3.7367,3.7404,3.8138,3.8699,3.8699,3.8699,3.8699,3.8699,3.8699,3.8699,3.8699,3.8699,3.8699,3.8699,3.8699,3.8699,3.8699,3.8699,3.8699,3.8652,3.8358,3.8072,3.8036,3.8369,3.8699,2.9775,2.9905,2.9967,3.0025,3.0012,2.993,2.9854,2.9779,2.9779,2.9779,2.9754,2.9233,2.9019,2.8976,2.8518,2.8568,2.9019,2.9007,2.9283,2.9779,2.9779,2.9779,2.9779,2.9779,2.9779,2.9779,2.9643,2.9663,2.9792,2.9124,2.8687,2.8462,2.8218,2.7374,2.5923,2.4773,2.3567,2.2304,2.3997,2.5347,2.6248,2.6135,2.5364,2.3979,2.3891,2.3201,2.1782,2.1793,2.1797,2.1788,2.3156,2.4245,2.4827,2.4993,2.5382,0.0,2.4341,0.0,0.0,0.0,0.0,0.0,0.0,0.0,0.0,2.9171,2.9696,3.0108,3.2207,3.3203,3.237,3.281,3.3637,3.4905,3.6132,3.7153,3.7826,3.9311,3.9986,3.9192,4.0279,4.0773,3.9937,3.9981,4.0341,4.1012,4.0432,3.9819,4.0047,3.9452,3.8993,3.9011,3.8909,3.8909,3.8736,3.8699,3.8699,3.8699,3.8699,3.8699,3.8699,3.8699,3.8699,3.8699,3.8699,3.8699,3.8699,3.8699,3.8699,3.8699,3.8663,3.8644,3.8641,3.8702,3.8765,2.9617,3.0487,3.0909,3.1085,3.1047,3.0633,3.0206,2.9792,2.9779,2.9779,2.9779,2.9679,2.9641,2.9616,2.9515,2.9528,2.9628,2.9628,2.9691,2.9779,2.9779,2.9779,2.9779,2.9779,2.9779,2.9721,2.8858,2.8897,2.976,2.8748,2.7563,2.6295,2.7471,2.6345,2.311,0.0,0.0,0.0,2.4843,2.5347,2.5093,2.4214,2.36,2.3283,2.3271,0.0,2.2836,2.3315,2.3399,2.304,2.4778,0.0,0.0,0.0,0.0,0.0,0.0,0.0,0.0,0.0,0.0,0.0,2.9601,2.9599,2.9982,3.0516,3.1444,3.2878,3.3795,3.4946,3.6538,3.7181,3.7601,3.7899,3.8576,3.908,3.9249,3.9888,4.0005,3.9219,4.0287,4.0828,4.0139,4.0469,4.1158,4.1892,4.1379,4.1195,4.1735,4.1085,4.0626,4.0608,4.0065,3.9441,3.8773,3.8755,3.8773,3.8699,3.8699,3.8699,3.8699,3.8699,3.8699,3.8699,3.8699,3.8699,3.8699,3.8699,3.8699,3.8699,3.8699,3.8699,3.8707,3.8877,3.9022,2.9569,3.0638,3.1173,3.1406,0.0,3.0814,3.0608,3.0545,3.0037,2.9955,3.0181,2.9905,2.9955,3.0181,2.9917,2.9779,2.9779,2.9779,2.9779,2.9779,2.9779,2.9779,2.9779,2.9779,2.9779,2.974,2.8636,2.8386,2.8897,2.8386,2.7395,2.6069,2.7989,2.7605,2.5152,2.6779,2.6871,2.5267,2.5766,2.6042,2.6013,2.5456,2.4766,2.3973,2.3935,0.0,0.0,0.0,0.0,0.0,0.0,0.0,0.0,2.7091,2.7576,2.8517,2.8301,2.855,2.9511,2.9886,3.0937,3.2863,3.3673,3.3617,3.2545,3.3363,3.4497,3.5696,3.6054,3.6789,3.8285,3.8917,3.9238,3.9317,4.0371,4.0997,4.0707,4.1334,4.1548,4.0937,4.1628,4.1992,4.1185,4.1405,4.2011,4.2698,4.2213,4.1992,4.2598,4.1856,4.1113,4.1095,4.0791,4.0359,3.9939,3.9515,3.9276,3.9258,3.8964,3.8718,3.8699,3.8699,3.8699,3.8699,3.8699,3.8699,3.8699,3.8699,3.8699,3.8699,3.8699,3.8754,3.8855,3.8994,3.9147,2.9816,3.0914,3.1361,3.1537,3.1486,3.0972,3.0984,3.1344,3.0444,0.0,0.0,3.0231,3.0269,3.055,3.0143,2.9899,2.9811,2.9779,2.9779,2.9779,2.9779,2.9779,2.9779,2.9779,2.9779,2.974,2.8438,2.8024,2.8367,2.8016,2.7493,2.7026,2.8811,2.9334,2.8518,2.9326,2.8906,2.7165,2.6788,2.6751,2.6997,2.6821,2.6013,2.4553,2.4487,2.4474,2.4422,2.4512,2.498,2.5809,2.5984,2.6367,2.7078,2.7132,2.7596,2.8602,2.9184,3.0145,3.159,3.221,3.3543,3.5927,3.7201,3.711,3.5216,3.6259,3.7308,3.8041,3.8182,3.8525,3.9268,3.994,4.032,4.0337,4.1838,4.2556,4.2014,4.2812,4.3085,4.2561,4.291,4.3194,4.2359,4.2396,4.2727,4.3249,4.2892,4.2708,4.3176,4.2433,4.1617,4.1425,4.1342,4.1205,4.081,4.0278,3.989,3.9551,3.9066,3.8718,3.8699,3.8699,3.8699,3.8699,3.8727,3.8766,3.8784,3.8844,3.8855,3.8855,3.8844,3.8949,3.9185,3.9295,3.9383,3.0877,3.1989,3.2043,3.2102,3.2064,3.1512,3.1323,3.1373,3.1243,3.0959,3.0625,3.1009,3.0959,3.06,3.0532,3.0224,2.9792,2.9779,2.9779,2.9779,2.9779,2.9779,2.9779,2.9779,2.9779,2.9643,2.7706,2.7718,2.9157,2.7658,2.7107,2.7936,2.9177,2.9702,2.9585,2.9721,2.9641,2.9334,2.7927,2.6746,2.585,2.4949,2.4114,2.3384,2.3399,2.3682,2.4382,2.4992,2.5632,2.6426,2.7032,2.7888,2.907,2.9174,3.0286,3.2599,3.2918,3.3844,3.5747,3.6023,3.6502,3.7465,3.779,3.7753,3.7471,3.7606,3.8058,3.8776,3.9265,3.9825,4.0585,4.1573,4.2157,4.2245,4.2913,4.331,4.3155,4.3326,4.3212,4.2496,4.301,4.3212,4.2588,4.29,4.3286,4.3433,4.3304,4.3359,4.3396,4.3322,4.2882,4.2304,4.2121,4.1552,4.0726,4.0029,3.9735,3.8956,3.8846,3.8715,3.8742,3.8704,3.8719,3.8712,3.8906,3.9027,3.9049,3.9282,3.9371,3.9408,3.9408,3.9511,3.9803,3.9882,3.9929,3.0178,3.1305,3.2274,3.2679,3.2667,3.2437,3.1959,3.1494,3.2072,3.1989,3.1499,3.1424,3.1424,3.1441,3.1152,3.0746,3.0256,3.0532,3.0527,3.0236,3.0244,3.0224,3.0206,2.9949,2.9779,2.9643,2.7557,2.7331,2.8609,2.727,2.6728,2.729,2.8339,2.9177,2.9772,2.9779,2.9779,2.9786,2.9038,2.8097,2.6992,2.6477,2.5824,2.4971,2.5342,2.6012,2.6865,2.7642,2.8441,2.9231,2.9564,3.0163,3.1106,3.1165,3.2092,3.4071,3.4602,3.5382,3.6701,3.754,3.8119,3.8473,3.887,3.9102,3.9102,3.8991,3.9231,3.9969,4.0566,4.1016,4.1378,4.2183,4.2684,4.2684,4.3187,4.3479,4.3488,4.3488,4.3368,4.3047,4.3267,4.3359,4.2983,4.3267,4.3488,4.3488,4.3488,4.3488,4.3488,4.3488,4.3378,4.3029,4.2955,4.2671,4.1909,4.1056,4.0479,4.0039,3.925,3.8854,3.8848,3.8822,3.8855,3.91,3.9159,3.9192,3.9333,3.9493,3.9587,3.9605,3.9605,3.9742,3.9988,3.9894,3.9819,2.9584,3.0717,3.2247,3.2914,3.2914,3.2914,3.2441,3.1909,3.2704,3.2817,3.2378,3.1951,3.1938,3.2118,3.175,3.1298,3.0896,3.1198,3.1173,3.0821,3.0796,3.0776,3.0701,3.0231,3.003,2.9884,2.7904,2.749,2.8403,2.745,2.7017,2.7302,2.8088,2.8917,2.976,2.9779,2.9779,2.9779,2.9779,2.9252,2.816,2.8222,2.7803,2.6918,2.7471,2.8372,2.9449,3.015,3.0951,3.187,3.1944,3.2257,3.2929,3.2989,3.3733,3.5258,3.5922,3.6622,3.7505,3.8593,3.9254,3.9254,3.9881,4.0274,4.0285,4.0389,4.0544,4.0937,4.1521,4.2,4.208,4.2531,4.2883,4.2911,4.3232,4.3479,4.3488,4.3488,4.3488,4.3488,4.3488,4.3488,4.3488,4.3488,4.3488,4.3488,4.3488,4.3488,4.3488,4.3488,4.3488,4.3488,4.3488,4.3354,4.3296,4.2263,4.1334,4.1043,3.9938,3.9268,3.915,3.8966,3.9064,3.9463,3.9469,3.9462,3.9662,3.9784,3.9832,3.9868,3.9879,3.9929,4.0134,3.9734,3.9615,3.0021,3.1146,3.1965,3.2269,3.2307,3.2307,3.2541,3.2889,3.3065,3.3077,3.2977,3.2986,3.2629,3.2231,3.2144,3.1838,3.1336,3.1394,3.1373,3.1323,3.1344,3.1344,3.1273,3.0758,3.0763,3.0888,2.8952,2.8655,3.0045,2.8703,2.847,2.9378,2.9605,2.965,2.9779,2.9779,2.9779,2.9779,2.9779,2.9239,2.8204,2.8568,2.844,2.7636,2.814,2.9221,3.0858,3.1075,3.1813,3.3154,3.329,3.3653,3.4364,3.4481,3.5449,3.7487,3.7735,3.8373,3.9611,3.9923,3.996,4.0032,4.0472,4.0815,4.0868,4.1782,4.1952,4.1413,4.1986,4.2596,4.2645,4.3078,4.3366,4.3357,4.3436,4.3488,4.3488,4.3488,4.3488,4.3488,4.3488,4.3488,4.3488,4.3488,4.3488,4.3488,4.3488,4.3488,4.3488,4.3488,4.3488,4.3488,4.3488,4.3326,4.3008,4.254,4.176,4.0814,4.0347,3.9869,3.9466,3.9371,3.957,3.9701,3.9838,3.9951,4.0048,4.0212,4.0362,4.0283,4.0319,4.0401,4.0365,3.9842,3.9688,2.9815,3.123,3.1907,3.2416,3.2704,3.2717,3.2855,3.309,3.3102,3.3102,3.3102,3.3102,3.2964,3.2717,3.2738,3.2403,3.1913,3.2227,3.219,3.1863,3.1549,3.1549,3.1738,3.0645,3.0407,3.0733,2.9007,2.8797,2.9795,2.9406,2.9365,2.974,2.9779,2.9779,2.9779,2.9779,2.9779,2.9811,3.0355,3.0232,2.9572,2.9694,2.9467,2.8979,3.0018,3.1,3.1737,3.2269,3.2864,3.3485,3.3939,3.4509,3.5189,3.5668,3.6708,3.8374,3.8994,3.9492,4.0054,4.0113,4.0241,4.0558,4.0768,4.1041,4.1407,4.2213,4.247,4.2183,4.2696,4.3178,4.3169,4.3356,4.3488,4.3488,4.3488,4.3488,4.3488,4.3488,4.3488,4.3488,4.3488,4.3488,4.3488,4.3488,4.3488,4.3488,4.3488,4.3488,4.3488,4.3488,4.3488,4.3488,4.3488,4.3437,4.3229,4.2849,4.2169,4.1375,4.0842,4.0403,3.9892,3.9576,3.9696,4.0062,4.0106,4.0186,4.0317,4.0385,4.0492,4.0492,4.0492,4.0492,4.0492,3.9858,3.9746,2.9746,3.1228,3.2089,3.2713,3.309,3.3102,3.3102,3.3102,3.3102,3.3102,3.3102,3.3102,3.3102,3.3102,3.3102,3.2864,3.2541,3.288,3.2855,3.2403,3.1876,3.1838,3.2018,3.0733,3.0306,3.0538,2.9486,2.9302,3.0142,3.0068,3.0018,3.0005,2.9886,2.9779,2.9779,2.9779,2.9934,3.0235,3.0889,3.1116,3.1043,3.1244,3.1021,3.0467,3.1676,3.256,3.2831,3.3444,3.3967,3.4364,3.4923,3.5611,3.6457,3.7062,3.7929,3.91,3.9769,4.0113,4.0113,4.0113,4.0348,4.0839,4.1041,4.1402,4.2018,4.2588,4.2902,4.293,4.3277,4.347,4.3488,4.3488,4.3488,4.3488,4.3488,4.3488,4.3488,4.3488,4.3488,4.3488,4.3488,4.3488,4.3488,4.3488,4.3488,4.3488,4.3488,4.3488,4.3522,4.3563,4.3631,4.3548,4.3637,4.3831,4.3778,4.3465,4.2801,4.2111,4.156,4.1108,4.0372,3.9925,3.9898,4.0294,4.0241,4.0254,4.0389,4.0473,4.0492,4.0492,4.0492,4.0492,4.0492,3.9954,3.9838,3.0078,3.1322,3.2544,3.3052,3.3102,3.3102,3.309,3.304,3.309,3.3102,3.3065,3.3102,3.3102,3.3102,3.3102,3.309,3.3052,3.3077,3.3065,3.2952,3.2403,3.2156,3.2118,3.109,3.0846,3.1306,3.0701,3.0663,3.1205,3.0796,3.055,3.0545,3.008,2.9804,2.9811,2.9856,3.026,3.097,3.1291,3.1656,3.2467,3.3327,3.3212,3.2299,3.2727,3.3516,3.4222,3.4411,3.5044,3.6368,3.6444,3.7136,3.8512,3.8744,3.9156,3.9901,4.0058,4.0108,4.0133,4.0159,4.0392,4.0914,4.149,4.201,4.2588,4.3096,4.3356,4.3436,4.3444,4.3488,4.3488,4.3488,4.3488,4.3488,4.3488,4.3488,4.3488,4.3488,4.3488,4.3488,4.3488,4.3488,4.3488,4.3488,4.3488,4.3488,4.3488,4.3488,4.3512,4.374,4.3764,4.3734,4.4012,4.452,4.4507,4.4197,4.3558,4.2846,4.2335,4.1916,4.0955,4.0263,4.0393,4.0477,4.0445,4.0441,4.0481,4.0492,4.0492,4.0492,4.0492,4.0492,4.0492,4.0492,4.0339,3.0052,3.1899,3.2746,3.3102,3.3102,3.3102,3.2889,3.2566,3.2939,3.2889,3.2641,3.2927,3.3102,3.3102,3.3102,3.3102,3.3102,3.3102,3.3102,3.304,3.2478,3.2382,3.265,3.1637,3.1399,3.1755,3.1353,3.1198,3.1348,3.1198,3.0934,3.0625,3.04,3.0156,2.9958,3.04,3.0889,3.1278,3.2307,3.3171,3.3533,3.4459,3.4733,3.4353,3.4528,3.4775,3.513,3.513,3.5605,3.6554,3.7085,3.7833,3.8799,3.9398,3.9782,4.0045,4.0113,4.0254,4.0552,4.0625,4.1047,4.1948,4.2251,4.2598,4.3096,4.3383,4.3488,4.3488,4.3488,4.3488,4.3488,4.3488,4.3488,4.3488,4.3488,4.3488,4.3488,4.3488,4.3488,4.3488,4.3488,4.3488,4.3488,4.3488,4.3488,4.3488,4.3488,4.3488,4.3505,4.3612,4.3718,4.3836,4.4046,4.4387,4.4908,4.4818,4.4424,4.3665,4.3028,4.2387,4.156,4.0735,4.0635,4.0504,4.0492,4.0492,4.0492,4.0492,4.0492,4.0492,4.0492,4.0492,4.0492,4.0492,4.0381,3.0407,3.2143,3.2851,3.3102,3.3102,3.3102,3.2876,3.2554,3.2927,3.2855,3.2616,3.2939,3.3102,3.3102,3.3102,3.3102,3.3102,3.3102,3.3102,3.3052,3.2478,3.2416,3.2579,3.1846,3.1574,3.1888,3.1775,3.1738,3.1909,3.1758,3.1461,3.114,3.0801,3.0597,3.0605,3.1013,3.1426,3.2213,3.338,3.4112,3.4493,3.5149,3.5489,3.5489,3.5489,3.5635,3.583,3.5847,3.6352,3.7262,3.789,3.8497,3.9249,3.9812,4.0113,4.0113,4.0113,4.0348,4.0815,4.0903,4.1396,4.2549,4.2693,4.293,4.3418,4.3488,4.3488,4.3488,4.3488,4.3488,4.3488,4.3488,4.3488,4.3488,4.3488,4.3488,4.3488,4.3488,4.3488,4.3488,4.3488,4.3488,4.3488,4.3488,4.3488,4.3488,4.3488,4.3488,4.3488,4.3604,4.3699,4.3978,4.4243,4.4581,4.4988,4.5096,4.4801,4.4116,4.3685,4.3015,4.2139,4.1316,4.0743,4.0589,4.0492,4.0492,4.0492,4.0492,4.0492,4.0492,4.0492,4.0492,4.0492,4.0492,4.03,3.1141,3.2143,3.2842,3.3077,3.3027,3.3077,3.3077,3.2927,3.3052,3.3027,3.2889,3.3077,3.3102,3.3102,3.3102,3.3102,3.3102,3.3102,3.3102,3.304,3.2528,3.2282,3.2328,3.1851,3.162,3.1695,3.2001,3.2491,3.2901,3.2453,3.2156,3.1968,3.1261,3.1264,3.1935,3.1697,3.2259,3.3481,3.4027,3.4543,3.5359,3.5488,3.5489,3.5489,3.5489,3.5847,3.6569,3.6569,3.7188,3.8536,3.8799,3.9262,3.9876,4.0087,4.0113,4.0113,4.0113,4.0368,4.0815,4.0949,4.1512,4.248,4.2713,4.2986,4.3401,4.3488,4.3488,4.3488,4.3488,4.3488,4.3488,4.3488,4.3488,4.3488,4.3488,4.3488,4.3488,4.3488,4.3488,4.3488,4.3488,4.3488,4.3488,4.3488,4.3488,4.3488,4.3488,4.3488,4.3505,4.3677,4.3909,4.4139,4.4448,4.4824,4.5113,4.5314,4.4943,4.4558,4.4248,4.372,4.2585,4.1681,4.1046,4.0781,4.0512,4.0492,4.0492,4.0492,4.0492,4.0492,4.0492,4.0492,4.0492,4.0435,4.0185,3.0037,3.1235,3.2539,3.2864,3.2566,3.2914,3.2688,3.206,3.2726,3.2842,3.2604,3.2914,3.3102,3.3102,3.3102,3.3102,3.3102,3.3102,3.3102,3.3065,3.288,3.2813,3.2776,3.265,3.2575,3.2579,3.2738,3.2914,3.3027,3.2923,3.2616,3.2294,3.2625,3.2483,3.2205,3.3152,3.4022,3.4005,3.4691,3.5213,3.5473,3.5489,3.5489,3.5489,3.5489,3.607,3.7294,3.6889,3.7364,3.884,3.8911,3.9259,3.9927,4.0113,4.0113,4.0113,4.0113,4.0331,4.0862,4.1296,4.1814,4.2578,4.3014,4.3286,4.3462,4.3488,4.3488,4.3488,4.3488,4.3488,4.3488,4.3488,4.3488,4.3488,4.3488,4.3488,4.3488,4.3488,4.3488,4.3488,4.3488,4.3488,4.3488,4.3488,4.3488,4.3496,4.3505,4.3513,4.3521,4.3662,4.3923,4.433,4.4676,4.5019,4.5307,4.5457,4.5277,4.4975,4.4705,4.4263,4.3143,4.22,4.1546,4.0873,4.0608,4.0492,4.0492,4.0492,4.0492,4.0492,4.0492,4.0492,4.0492,4.0377,4.0165,2.8925,3.0154,3.1992,3.2554,3.229,3.2851,3.2713,3.2185,3.2776,3.2867,3.2688,3.2939,3.3102,3.3102,3.3102,3.3102,3.3102,3.3102,3.3102,3.3102,3.3102,3.3102,3.3102,3.3102,3.3102,3.3102,3.3102,3.3102,3.3133,3.3492,3.3499,3.3341,3.3754,3.3912,3.3446,3.4136,3.4507,3.4606,3.5166,3.5489,3.5489,3.5489,3.5489,3.5489,3.5489,3.629,3.7604,3.7308,3.7759,3.9032,3.9342,3.961,4.0058,4.0113,4.0113,4.0113,4.0133,4.0331,4.0874,4.1446,4.2052,4.2637,4.3196,4.3479,4.3488,4.3488,4.3488,4.3488,4.3488,4.3488,4.3488,4.3488,4.3488,4.3488,4.3488,4.3488,4.3488,4.3488,4.3488,4.3488,4.3488,4.3488,4.3488,4.3488,4.3488,4.3496,4.3614,4.3677,4.3718,4.3828,4.4237,4.4586,4.4806,4.5145,4.5499,4.5586,4.5586,4.5383,4.5152,4.459,4.3758,4.2893,4.2162,4.105,4.0492,4.0492,4.0492,4.0492,4.0492,4.0492,4.0492,4.0492,4.0492,4.0492,4.0319,2.7952,2.9088,3.1319,3.2252,3.2206,3.2826,3.3002,3.2977,3.3077,3.3077,3.3065,3.3077,3.3102,3.3102,3.3102,3.3102,3.3102,3.3102,3.3102,3.3102,3.3102,3.3102,3.3102,3.3102,3.3102,3.3102,3.3102,3.3188,3.342,3.415,3.4746,3.4697,3.4792,3.5027,3.5434,3.4758,3.4888,3.5441,3.5532,3.5489,3.5489,3.5489,3.5489,3.5506,3.5635,3.6321,3.7545,3.795,3.8638,3.9863,4.0007,4.0007,4.0083,4.0113,4.0113,4.0113,4.0113,4.0336,4.0844,4.1313,4.1916,4.2509,4.3041,4.3479,4.347,4.3488,4.3488,4.3488,4.3488,4.3488,4.3488,4.3488,4.3488,4.3488,4.3488,4.3488,4.3488,4.3488,4.3488,4.3488,4.3488,4.3488,4.3488,4.3488,4.3513,4.3595,4.3804,4.3901,4.4091,4.4287,4.4657,4.4865,4.4983,4.5211,4.5522,4.5594,4.5594,4.5537,4.5325,4.4859,4.4085,4.322,4.222,4.1147,4.0492,4.0492,4.0492,4.0492,4.0492,4.0492,4.0492,4.0492,4.0492,4.0492,4.0435,2.8008,2.8485,3.1556,3.2378,3.1813,3.2663,3.2851,3.2541,3.2939,3.3102,3.3102,3.3102,3.3102,3.3102,3.3102,3.3102,3.3102,3.3102,3.3102,3.3102,3.3102,3.3102,3.3102,3.3102,3.3102,3.3102,3.3197,3.3526,3.4254,3.4664,3.517,3.5834,3.6459,3.6682,3.6551,3.6426,3.6387,3.6174,3.5714,3.5489,3.5489,3.5489,3.5489,3.5538,3.6022,3.6783,3.7835,3.893,3.9597,4.002,4.0113,4.0113,4.0113,4.0113,4.0113,4.0113,4.0096,4.0146,4.038,4.085,4.1413,4.1989,4.2637,4.3087,4.3462,4.3488,4.3488,4.3488,4.3488,4.3488,4.3488,4.3488,4.3488,4.3488,4.3488,4.3488,4.3488,4.3488,4.3488,4.3488,4.3488,4.3488,4.3488,4.3531,4.3614,4.3804,4.3993,4.4154,4.4394,4.4586,4.489,4.4983,4.5107,4.5302,4.5476,4.5564,4.5594,4.5594,4.5421,4.5128,4.4143,4.3043,4.1931,4.0743,4.055,4.0492,4.0492,4.0492,4.0492,4.0492,4.0492,4.0492,4.0492,4.0492,4.0492,2.7502,2.8115,3.0829,3.1893,3.1867,3.2704,3.2914,3.2679,3.2918,3.3102,3.3102,3.3102,3.3102,3.3102,3.3102,3.3102,3.3102,3.3102,3.3102,3.3102,3.3102,3.3102,3.3102,3.3102,3.3102,3.3188,3.3556,3.4087,3.4774,3.5514,3.6318,3.6893,3.7653,3.7678,3.7066,3.6956,3.6716,3.6118,3.5684,3.5489,3.5489,3.5489,3.5718,3.5926,3.6461,3.7068,3.8215,3.9454,4.0113,4.0113,4.0113,4.0113,4.0113,4.0113,4.0113,4.0113,4.0113,4.0113,4.0192,4.0601,4.1167,4.175,4.2352,4.2902,4.3347,4.3488,4.3488,4.3488,4.3488,4.3488,4.3488,4.3488,4.3488,4.3488,4.3488,4.3488,4.3488,4.3488,4.3488,4.3488,4.3488,4.3488,4.3496,4.3614,4.378,4.399,4.4339,4.4541,4.4769,4.4908,4.5041,4.5166,4.5263,4.5429,4.5504,4.5573,4.5594,4.5594,4.5537,4.5263,4.4432,4.3235,4.2216,4.1316,4.0858,4.0492,4.0492,4.0492,4.0492,4.0492,4.0492,4.0492,4.0492,4.0492,4.0492,2.6949,2.8291,2.9841,3.1156,3.2172,3.2839,3.3077,3.309,3.309,3.3102,3.3102,3.3102,3.3102,3.3102,3.3102,3.3102,3.3102,3.3102,3.3102,3.3102,3.3102,3.3102,3.3102,3.3102,3.3102,3.3261,3.417,3.4705,3.5352,3.6822,3.7734,3.7986,3.8363,3.8214,3.7771,3.7178,3.6387,3.6013,3.5833,3.5624,3.5599,3.5652,3.6006,3.643,3.6964,3.7729,3.884,3.9731,4.0113,4.0113,4.0113,4.0113,4.0113,4.0113,4.0113,4.0113,4.0096,4.0121,4.0237,4.0679,4.1235,4.1867,4.244,4.293,4.3347,4.3488,4.3488,4.3488,4.3488,4.3488,4.3488,4.3488,4.3488,4.3488,4.3488,4.3488,4.3488,4.3488,4.3488,4.3488,4.3488,4.3488,4.3572,4.3742,4.3948,4.399,4.4361,4.472,4.4971,4.5201,4.5327,4.5452,4.5517,4.5568,4.5586,4.559,4.5594,4.5594,4.5594,4.5359,4.484,4.3835,4.2889,4.2062,4.1373,4.0839,4.0492,4.0492,4.0492,4.0492,4.0492,4.0492,4.0492,4.0492,4.0492,2.7964,2.994,3.0711,3.1484,3.2235,3.2839,3.3102,3.3102,3.3102,3.3102,3.3102,3.3102,3.3102,3.3102,3.3102,3.3102,3.3102,3.3102,3.3102,3.3102,3.3102,3.3102,3.3124,3.3154,3.3145,3.342,3.4212,3.5109,3.6067,3.719,3.8238,3.8954,3.8981,3.911,3.8793,3.8048,3.7644,3.703,3.6492,3.5941,3.5746,3.607,3.643,3.6813,3.7772,3.8813,3.961,4.002,4.0113,4.0113,4.0113,4.0113,4.0113,4.0113,4.0113,4.0113,4.0108,4.0274,4.0631,4.0821,4.1369,4.2272,4.2559,4.2939,4.3418,4.3488,4.3488,4.3488,4.3488,4.3488,4.3488,4.3488,4.3488,4.3488,4.3488,4.3488,4.3488,4.3488,4.3488,4.3488,4.3488,4.3488,4.3488,4.3572,4.378,4.3982,4.4348,4.4775,4.508,4.5342,4.5438,4.5495,4.559,4.559,4.5594,4.5594,4.5594,4.5594,4.5594,4.5575,4.5051,4.4571,4.3662,4.2716,4.1773,4.1277,4.0839,4.0492,4.0492,4.0492,4.0492,4.0492,4.0492,4.0492,4.0492,2.8275,2.9979,3.0826,3.1751,3.2607,3.2952,3.3102,3.3102,3.3102,3.3102,3.3102,3.3102,3.3102,3.3102,3.3102,3.3102,3.3102,3.3102,3.3102,3.3102,3.3102,3.3102,3.3283,3.3607,3.3848,3.4024,3.4925,3.5948,3.6982,3.7942,3.887,3.9334,3.9406,3.9107,3.8886,3.8332,3.7554,3.6911,3.6374,3.5967,3.6115,3.6368,3.7113,3.77,3.8813,3.9718,4.0045,4.0083,4.0113,4.0113,4.0113,4.0113,4.0113,4.0113,4.0113,4.0113,4.0096,4.0204,4.0473,4.0803,4.1291,4.2231,4.2519,4.2976,4.3321,4.3488,4.3488,4.3488,4.3488,4.3488,4.3488,4.3488,4.3488,4.3488,4.3488,4.3488,4.3488,4.3488,4.3488,4.3488,4.3488,4.3488,4.3505,4.3555,4.3726,4.4001,4.4311,4.4714,4.4812,4.5069,4.5251,4.5361,4.5532,4.5586,4.559,4.5594,4.5594,4.5594,4.5594,4.5594,4.5383,4.4975,4.4532,4.3508,4.2489,4.1754,4.1296,4.0935,4.0569,4.0492,4.0492,4.0492,4.0492,4.0492,4.0492,2.8529,3.0022,3.0866,3.1943,3.3016,3.3102,3.3102,3.3102,3.3102,3.3102,3.3102,3.3102,3.3102,3.3102,3.3102,3.3102,3.3102,3.3102,3.3102,3.3102,3.3102,3.3304,3.3577,3.4191,3.4877,3.5183,3.6041,3.6982,3.7772,3.8815,3.9247,3.9406,3.9406,3.9197,3.8571,3.8063,3.7644,3.709,3.6658,3.6543,3.6986,3.7234,3.8046,3.9144,3.9592,3.9995,4.0083,4.0113,4.0113,4.0113,4.0113,4.0113,4.0113,4.0113,4.0113,4.0113,4.0113,4.0229,4.0424,4.0726,4.1212,4.1842,4.2372,4.293,4.3348,4.3488,4.3488,4.3488,4.3488,4.3488,4.3488,4.3488,4.3488,4.3488,4.3488,4.3488,4.3488,4.3488,4.3488,4.3488,4.3488,4.3488,4.3555,4.3629,4.3812,4.3986,4.4308,4.4546,4.4631,4.477,4.4937,4.5036,4.5145,4.5337,4.5366,4.5581,4.5581,4.5577,4.5581,4.5594,4.5594,4.5344,4.4878,4.4186,4.3278,4.2547,4.1816,4.1316,4.0969,4.0685,4.0492,4.0492,4.0492,4.0492,4.0492,2.9533,3.2426,3.1567,3.1931,3.3016,3.3102,3.3102,3.3102,3.3102,3.3102,3.3102,3.3102,3.3102,3.3102,3.3102,3.3102,3.3102,3.3102,3.3102,3.3111,3.3219,3.3522,3.4262,3.489,3.5682,3.6938,3.751,3.7715,3.8069,3.8815,3.9352,3.9406,3.9406,3.9257,3.9197,3.9047,3.8482,3.7886,3.7603,3.7729,3.8259,3.8897,3.9518,4.0427,4.0298,4.0104,4.0113,4.0113,4.0113,4.0113,4.0113,4.0113,4.0113,4.0113,4.0113,4.0113,4.0096,4.0224,4.0552,4.0821,4.149,4.2251,4.2684,4.294,4.3339,4.3488,4.3488,4.3488,4.3488,4.3488,4.3488,4.3488,4.3488,4.3488,4.3488,4.3488,4.3488,4.3488,4.3488,4.3488,4.3488,4.3488,4.3546,4.3597,4.3654,4.3767,4.3969,4.4117,4.4165,4.4392,4.4631,4.4676,4.4714,4.4919,4.5102,4.5381,4.554,4.5531,4.5535,4.559,4.5594,4.5594,4.5186,4.459,4.4013,4.3335,4.2604,4.1873,4.1296,4.0935,4.0723,4.0512,4.0492,4.0492,4.0492,2.9931,3.2074,3.214,3.2525,3.3025,3.3102,3.3102,3.3102,3.3102,3.3102,3.3102,3.3102,3.3102,3.3102,3.3102,3.3102,3.3102,3.3102,3.3102,3.3154,3.367,3.4129,3.4979,3.5695,3.6744,3.7734,3.829,3.8598,3.8671,3.9104,3.9388,3.9406,3.9406,3.9406,3.9287,3.8975,3.8766,3.8409,3.8162,3.8432,3.9314,4.0121,4.083,4.0901,4.0574,4.0146,4.0113,4.0113,4.0113,4.0113,4.0113,4.0113,4.0113,4.0113,4.0113,4.0113,4.0096,4.0179,4.0601,4.0932,4.1675,4.2134,4.2704,4.3169,4.341,4.3488,4.3488,4.3488,4.3488,4.3488,4.3488,4.3488,4.3488,4.3488,4.3488,4.3488,4.3488,4.3488,4.3488,4.3488,4.3488,4.3488,4.3488,4.3513,4.3496,4.3555,4.367,4.3726,4.3791,4.402,4.4308,4.4346,4.4399,4.4612,4.4872,4.5161,4.5395,4.5429,4.5527,4.5581,4.5594,4.5594,4.5498,4.5167,4.459,4.4013,4.3335,4.2585,4.1893,4.1181,4.0896,4.0646,4.055,4.0492,4.0666,3.0271,3.1689,3.2677,3.3102,3.3102,3.3102,3.3102,3.3102,3.3102,3.3102,3.3102,3.3102,3.3102,3.3102,3.3102,3.3102,3.3145,3.3283,3.3526,3.3734,3.454,3.5081,3.5835,3.6744,3.79,3.8327,3.8837,3.9388,3.9265,3.937,3.9388,3.9406,3.9406,3.9406,3.9302,3.902,3.8646,3.8437,3.8157,3.8682,4.0095,4.1136,4.163,4.1525,4.0794,4.0354,4.0405,4.0168,4.0113,4.0113,4.0113,4.0113,4.0113,4.0113,4.0113,4.0113,4.0113,4.0113,4.0348,4.0943,4.1527,4.1906,4.2762,4.3241,4.3479,4.3488,4.3488,4.3488,4.3488,4.3488,4.3488,4.3488,4.3488,4.3488,4.3488,4.3488,4.3488,4.3488,4.3488,4.3488,4.3488,4.3488,4.3488,4.3488,4.3488,4.3488,4.3589,4.358,4.3637,4.3742,4.3943,4.4016,4.4136,4.435,4.4618,4.4931,4.5134,4.5232,4.5429,4.559,4.5594,4.5594,4.5498,4.5417,4.5167,4.4571,4.3917,4.3104,4.2162,4.1412,4.1031,4.0762,4.0593,4.1012,4.147,3.0755,3.2896,3.3038,3.3102,3.3102,3.3102,3.3102,3.3102,3.3102,3.3102,3.3102,3.3102,3.3102,3.3102,3.3102,3.3102,3.3356,3.394,3.4317,3.4449,3.548,3.6442,3.7223,3.7548,3.8401,3.8874,3.9247,3.9388,3.9406,3.9406,3.9406,3.9406,3.9406,3.9406,3.9376,3.9227,3.9287,3.9227,3.9176,3.9987,4.1486,4.252,4.2925,4.2679,4.185,4.1068,4.0967,4.0591,4.0218,4.018,4.013,4.0113,4.0113,4.0113,4.0113,4.0113,4.0113,4.0113,4.0209,4.0738,4.1351,4.1771,4.2482,4.2986,4.333,4.3506,4.3506,4.3488,4.3488,4.3671,4.3726,4.3524,4.3506,4.3524,4.3561,4.3524,4.3488,4.3488,4.3488,4.3488,4.3488,4.3488,4.3488,4.3488,4.3488,4.3488,4.3488,4.3488,4.3513,4.3631,4.3662,4.3767,4.3844,4.4042,4.4216,4.4554,4.4849,4.4977,4.5282,4.5531,4.5594,4.5594,4.5594,4.5479,4.5302,4.4821,4.3912,4.3047,4.22,4.1739,4.1454,4.1031,4.0612,4.1262,4.2162,3.1456,3.3102,3.3102,3.3102,3.3102,3.3102,3.3102,3.3102,3.3102,3.3102,3.3102,3.3102,3.3102,3.3102,3.3102,3.3102,3.3334,3.4288,3.4684,3.5244,3.634,3.7377,3.781,3.8416,3.9086,3.9258,3.9406,3.9388,3.9421,3.9436,3.9406,3.9406,3.9406,3.9406,3.9406,3.9406,3.9391,3.9651,4.0293,4.1213,4.2044,4.285,4.3406,4.3372,4.2371,4.1914,4.1644,4.1119,4.0747,4.0641,4.0388,4.0113,4.0113,4.0113,4.0113,4.0113,4.0113,4.0113,4.0171,4.0625,4.1144,4.1757,4.236,4.2939,4.3339,4.3561,4.38,4.4158,4.3718,4.391,4.435,4.3983,4.3947,4.3928,4.3928,4.3726,4.3671,4.3506,4.3488,4.3488,4.3524,4.3616,4.3616,4.3506,4.3506,4.3488,4.3488,4.3488,4.3488,4.3531,4.3538,4.3538,4.3604,4.3701,4.3849,4.4099,4.4468,4.4707,4.5063,4.5322,4.5535,4.5594,4.5594,4.5594,4.5498,4.4821,4.3912,4.3297,4.272,4.2297,4.1893,4.1608,4.1416,4.2012,4.2758,3.1887,3.2867,3.304,3.3102,3.3102,3.3102,3.3102,3.3102,3.3102,3.3102,3.3102,3.3102,3.3102,3.3102,3.3145,3.3283,3.3641,3.478,3.5425,3.6288,3.7519,3.8546,3.8894,3.9368,3.9636,3.9616,3.9466,3.9675,3.9825,3.9616,3.9406,3.9406,3.9406,3.9406,3.9406,3.9442,3.9499,3.9953,4.1146,4.1981,4.2517,4.3267,4.3639,4.3507,4.3064,4.2557,4.2455,4.1863,4.1491,4.1052,4.0713,4.0405,4.0163,4.0113,4.0113,4.0113,4.0113,4.0204,4.038,4.0721,4.1104,4.1685,4.2553,4.3272,4.3579,4.3777,4.424,4.4966,4.4617,4.4938,4.5305,4.4727,4.4736,4.469,4.458,4.4277,4.4093,4.4204,4.4314,4.4433,4.4378,4.3956,4.3892,4.3635,4.3524,4.3506,4.3488,4.3488,4.3488,4.3488,4.3488,4.3488,4.3522,4.3572,4.3654,4.3836,4.4143,4.4441,4.4812,4.5107,4.5342,4.5522,4.5594,4.5594,4.5594,4.5306,4.4667,4.3974,4.3316,4.2912,4.2566,4.245,4.2489,4.3028,4.3508,3.1738,3.2294,3.2851,3.3077,3.3102,3.3102,3.3102,3.3102,3.3102,3.3102,3.3102,3.3102,3.3102,3.3102,3.3197,3.362,3.46,3.6287,3.7143,3.8453,4.0106,4.0299,4.0196,4.0058,4.0214,4.0142,3.9825,4.0202,4.0666,4.0023,3.966,3.9406,3.9496,3.9436,3.9406,3.9424,3.9829,4.0413,4.1511,4.2411,4.3077,4.3855,4.4373,4.4279,4.3775,4.3308,4.3304,4.2625,4.1931,4.1407,4.1204,4.0641,4.0235,4.0252,4.0269,4.013,4.0113,4.0299,4.066,4.0726,4.0914,4.1512,4.2583,4.3892,4.415,4.5132,4.5645,4.5736,4.5443,4.5672,4.5902,4.5773,4.5498,4.559,4.5443,4.5223,4.514,4.5287,4.5388,4.548,4.5204,4.469,4.425,4.402,4.3616,4.3561,4.3488,4.3488,4.3488,4.3488,4.3488,4.3488,4.3488,4.3522,4.3556,4.3742,4.3966,4.4269,4.4644,4.4914,4.5159,4.5327,4.559,4.5594,4.5594,4.5518,4.5421,4.4724,4.4109,4.359,4.3282,4.3278,4.347,4.3912,4.4494,3.1512,3.1725,3.1951,3.2462,3.3102,3.3102,3.3102,3.3102,3.3102,3.3102,3.3102,3.3102,3.3102,3.3124,3.3154,3.367,3.4839,3.6443,3.7526,3.8722,4.0024,4.0801,4.0621,4.0442,4.0382,4.0367,4.0157,4.0142,4.0546,4.0516,4.0696,4.0487,3.9918,3.9481,3.9406,3.9619,4.0066,4.0755,4.1608,4.2442,4.3275,4.4093,4.4584,4.4533,4.4415,4.413,4.4012,4.3369,4.2642,4.2083,4.188,4.1217,4.0489,4.0591,4.0523,4.0282,4.0218,4.0483,4.0818,4.083,4.0892,4.2388,4.362,4.4708,4.4951,4.57,4.6195,4.6287,4.625,4.6324,4.7241,4.6562,4.5938,4.6296,4.637,4.6159,4.6122,4.625,4.6214,4.6214,4.5792,4.5278,4.4837,4.4433,4.3993,4.3635,4.3561,4.3488,4.3488,4.3488,4.3488,4.3488,4.3488,4.3488,4.3522,4.3646,4.378,4.4121,4.4468,4.4775,4.5069,4.539,4.559,4.559,4.5594,4.5556,4.546,4.5306,4.4859,4.4244,4.4147,4.4259,4.4528,4.4759,4.5109,3.1009,3.1148,3.116,3.1721,3.255,3.2776,3.283,3.2842,3.3027,3.3102,3.3102,3.3102,3.3102,3.3154,3.3535,3.4178,3.5473,3.6926,3.7921,3.9178,4.0407,4.0991,4.0849,4.0726,4.0786,4.0696,4.0726,4.0819,4.1224,4.1313,4.1418,4.1224,4.0636,4.0184,4.0156,4.0329,4.0725,4.1407,4.2269,4.2962,4.3778,4.4253,4.4584,4.4584,4.4533,4.4516,4.4398,4.3961,4.3389,4.2895,4.2489,4.1961,4.1369,4.0963,4.0984,4.0794,4.062,4.077,4.1233,4.1423,4.1618,4.2892,4.4528,4.5432,4.594,4.6332,4.7095,4.7324,4.7012,4.7067,4.825,4.7388,4.6985,4.7342,4.7214,4.704,4.7021,4.7058,4.6966,4.6874,4.6416,4.5975,4.5131,4.4635,4.4011,4.3653,4.3543,4.3488,4.3488,4.3488,4.3488,4.3488,4.3488,4.3488,4.3496,4.3589,4.3701,4.4031,4.4387,4.4738,4.5033,4.5362,4.5581,4.559,4.5594,4.5594,4.5537,4.5421,4.5171,4.4821,4.484,4.4917,4.5051,4.5225,4.5321,3.0168,3.0588,3.0613,3.0934,3.1507,3.2005,3.2265,3.2403,3.2855,3.3102,3.3145,3.3188,3.324,3.3462,3.4233,3.5231,3.6344,3.7872,3.9029,3.9969,4.0957,4.1309,4.1313,4.1254,4.1254,4.1358,4.1313,4.1493,4.2156,4.1912,4.1972,4.2092,4.1718,4.116,4.1393,4.2239,4.2723,4.2987,4.3682,4.4271,4.4404,4.4626,4.4739,4.4584,4.4584,4.4584,4.4516,4.4465,4.391,4.3304,4.3338,4.2861,4.2097,4.161,4.166,4.1961,4.1441,4.1831,4.2869,4.2916,4.3143,4.3505,4.4962,4.5929,4.646,4.7155,4.7804,4.7668,4.7804,4.7945,4.824,4.8205,4.8095,4.8003,4.7856,4.7783,4.7728,4.7691,4.7562,4.7471,4.7195,4.6709,4.5663,4.4764,4.4075,4.3671,4.3543,4.3506,4.3524,4.3488,4.3488,4.3488,4.3488,4.3488,4.3488,4.3488,4.3629,4.3974,4.4304,4.4638,4.5,4.5337,4.5499,4.5573,4.5594,4.5594,4.5594,4.5575,4.5344,4.519,4.5344,4.5441,4.5575,4.5594,4.5594,2.9924,3.0068,3.0068,3.0168,3.0507,3.17,3.2181,3.2315,3.2813,3.3102,3.3283,3.3776,3.4183,3.4491,3.5231,3.6259,3.7303,3.811,3.9282,3.9856,4.1149,4.1583,4.1523,4.1373,4.1568,4.1807,4.1762,4.1733,4.2336,4.2297,4.2651,4.2865,4.2581,4.1938,4.1456,4.1919,4.2681,4.2749,4.3889,4.4988,4.4736,4.5007,4.5058,4.4618,4.4584,4.4584,4.4584,4.4584,4.4212,4.3676,4.3795,4.3555,4.279,4.2269,4.251,4.2472,4.1982,4.2353,4.3344,4.3798,4.4273,4.4538,4.5048,4.6022,4.6401,4.6684,4.7201,4.7593,4.7695,4.7838,4.8163,4.8231,4.8195,4.8223,4.815,4.815,4.8131,4.815,4.8113,4.8058,4.7856,4.703,4.6085,4.5424,4.4709,4.4213,4.4103,4.3745,4.3653,4.3543,4.3488,4.3488,4.3488,4.3488,4.3488,4.3488,4.3538,4.3796,4.4187,4.458,4.4912,4.5293,4.5471,4.559,4.5594,4.5594,4.5594,4.5594,4.5594,4.5575,4.5594,4.5594,4.5594,4.5594,4.5594,2.9779,2.9779,2.9779,2.9779,2.998,3.1115,3.175,3.2001,3.2528,3.2801,3.3047,3.4074,3.4677,3.5061,3.612,3.6982,3.7886,3.8654,3.9055,3.9553,4.0591,4.095,4.1014,4.1085,4.113,4.1568,4.1658,4.1658,4.1987,4.2656,4.2995,4.319,4.3294,4.2737,4.2418,4.3158,4.4087,4.4334,4.5358,4.5669,4.5296,4.5125,4.5041,4.4719,4.4584,4.4584,4.4584,4.4499,4.4381,4.4127,4.4059,4.411,4.3484,4.3149,4.3352,4.3081,4.3146,4.3399,4.3979,4.4344,4.4557,4.4526,4.5281,4.5924,4.6324,4.6489,4.6669,4.6943,4.7062,4.7292,4.7627,4.7769,4.8085,4.8103,4.8248,4.8248,4.8315,4.8315,4.8315,4.8296,4.8186,4.7333,4.6581,4.6085,4.5498,4.5094,4.4727,4.4323,4.391,4.3726,4.3561,4.3488,4.3488,4.3488,4.3488,4.3488,4.3555,4.3652,4.4076,4.4567,4.4918,4.5317,4.5457,4.5594,4.5594,4.5594,4.5594,4.5594,4.5594,4.5594,4.5594,4.5594,4.5594,4.5594,4.5594,2.9779,2.9779,2.9779,2.9779,2.9892,3.0432,3.0901,3.1457,3.2026,3.2307,3.2453,3.4146,3.4974,3.5352,3.6919,3.7791,3.8121,3.8981,3.9255,3.943,3.9975,4.0157,4.0427,4.0531,4.0786,4.0831,4.098,4.1343,4.1538,4.2387,4.297,4.3205,4.329,4.3396,4.4025,4.481,4.5536,4.5668,4.6424,4.646,4.5974,4.5311,4.5159,4.4888,4.4685,4.4601,4.4584,4.455,4.455,4.4499,4.4516,4.455,4.4296,4.3842,4.4079,4.4296,4.4415,4.4415,4.4456,4.464,4.4647,4.4671,4.5484,4.6112,4.6179,4.6009,4.6136,4.6336,4.6513,4.656,4.6687,4.7187,4.7677,4.7877,4.8123,4.8209,4.8277,4.8315,4.8315,4.8296,4.8296,4.7764,4.7067,4.6535,4.6397,4.6021,4.5636,4.5278,4.48,4.402,4.3818,4.3488,4.3488,4.3488,4.3488,4.3488,4.3548,4.3621,4.4172,4.4651,4.5,4.5273,4.5471,4.5594,4.5594,4.5594,4.5594,4.5594,4.5594,4.5594,4.5594,4.5594,4.5594,4.5594,4.5603,2.9779,2.9779,2.9779,2.9779,2.9817,2.9967,3.0532,3.143,3.2248,3.2851,3.3409,3.4579,3.5696,3.6963,3.7548,3.8234,3.8797,3.921,3.9334,3.9511,3.9735,4.0127,4.0307,4.0382,4.0651,4.0786,4.092,4.1149,4.2047,4.269,4.303,4.3294,4.3428,4.4124,4.512,4.5971,4.6071,4.6467,4.7483,4.7256,4.6701,4.609,4.5734,4.5345,4.4787,4.4651,4.4584,4.4584,4.4584,4.4584,4.4584,4.4584,4.4533,4.4364,4.4465,4.4499,4.455,4.4567,4.4584,4.4584,4.4584,4.4584,4.5039,4.5025,4.5115,4.5284,4.5438,4.5681,4.6026,4.6131,4.6583,4.7099,4.7533,4.7856,4.8093,4.8238,4.8315,4.8315,4.8315,4.8315,4.8315,4.8058,4.7388,4.7507,4.7324,4.6957,4.6581,4.6223,4.5562,4.4745,4.3965,4.3616,4.3488,4.3488,4.3488,4.3488,4.3539,4.3681,4.415,4.4573,4.4806,4.5083,4.5438,4.5594,4.5594,4.5594,4.5594,4.5594,4.5594,4.5594,4.5594,4.5594,4.5594,4.5594,4.5605,2.9779,2.9779,2.9779,2.9779,2.9779,2.9792,3.0206,3.092,3.1987,3.2738,3.327,3.5082,3.6448,3.7299,3.8074,3.8797,3.9301,3.9352,3.9406,3.9511,3.9825,3.987,3.9993,4.0049,4.0139,4.0333,4.0502,4.0636,4.1942,4.2895,4.329,4.3349,4.3571,4.4765,4.5854,4.6545,4.6913,4.7315,4.7778,4.7858,4.7462,4.6752,4.6092,4.5754,4.5058,4.4736,4.4635,4.4651,4.4601,4.4584,4.4584,4.4584,4.4584,4.4581,4.4581,4.4584,4.4584,4.4584,4.4584,4.4584,4.4584,4.4584,4.4584,4.4654,4.4665,4.48,4.4917,4.5112,4.5485,4.587,4.6524,4.7132,4.7502,4.7887,4.8093,4.8295,4.8315,4.8315,4.8315,4.8315,4.8205,4.8058,4.8003,4.8223,4.8223,4.7801,4.7434,4.7104,4.626,4.5214,4.4287,4.3616,4.3524,4.3488,4.3488,4.3488,4.3513,4.3631,4.3943,4.4311,4.4574,4.4935,4.5318,4.5513,4.5594,4.5594,4.5594,4.5594,4.5594,4.5594,4.5594,4.5594,4.5594,4.5594,4.5627,2.9779,2.9779,2.9779,2.9779,2.9779,2.9779,2.9817,2.9984,3.1477,3.2125,3.2828,3.5283,3.6578,3.7208,3.8106,3.8794,3.9155,3.9302,3.9406,3.9406,3.9496,3.9556,3.9541,3.9451,3.9675,3.9526,3.9798,4.0576,4.1594,4.2607,4.3324,4.3369,4.422,4.5211,4.6103,4.7003,4.7588,4.8307,4.827,4.8156,4.7752,4.6838,4.5841,4.5875,4.5382,4.4888,4.4855,4.4787,4.4685,4.4685,4.4601,4.4601,4.4584,4.4584,4.4584,4.4584,4.4584,4.4584,4.4584,4.4584,4.4584,4.4584,4.4584,4.4584,4.4584,4.4584,4.4717,4.4838,4.5192,4.5481,4.6051,4.6571,4.6999,4.727,4.747,4.7604,4.7635,4.7767,4.7995,4.8045,4.8202,4.8065,4.815,4.8315,4.8315,4.8205,4.8076,4.7764,4.692,4.5746,4.4819,4.3855,4.3561,4.3506,4.3488,4.3488,4.3488,4.3621,4.3857,4.4183,4.4548,4.4895,4.5248,4.5434,4.5594,4.5594,4.5594,4.5594,4.5594,4.5594,4.5594,4.5594,4.5599,4.5605,4.5665,2.9779,2.9779,2.9779,2.9779,2.9779,2.9779,2.9779,2.9985,3.1701,3.2695,3.3445,3.4721,3.6125,3.7219,3.7455,3.8012,3.8677,3.9107,3.9361,3.9406,3.9406,3.9406,3.9406,3.9406,3.9406,3.9571,4.0008,4.0726,4.1867,4.2741,4.3314,4.3428,4.4358,4.5397,4.6208,4.7155,4.816,4.8921,4.8815,4.8612,4.8428,4.7988,4.7331,4.7092,4.6633,4.6126,4.5971,4.5669,4.5534,4.5415,4.4838,4.4666,4.4584,4.4584,4.4584,4.4584,4.4584,4.4584,4.4584,4.4584,4.4584,4.4584,4.4584,4.4584,4.4584,4.4584,4.4623,4.4731,4.4906,4.5192,4.5545,4.6039,4.6466,4.6664,4.6835,4.6903,4.6959,4.7259,4.7565,4.7838,4.8075,4.8181,4.8248,4.8315,4.8315,4.8296,4.8278,4.7966,4.7214,4.6223,4.5434,4.4525,4.3726,4.3543,4.3506,4.3488,4.3488,4.3572,4.3764,4.4128,4.4527,4.5011,4.5429,4.5504,4.5594,4.5594,4.5594,4.5594,4.5594,4.5594,4.5594,4.5594,4.564,4.5665,4.5729,2.9641,2.9434,2.9691,2.9779,2.9779,2.9779,2.9779,3.0139,3.1774,3.2804,3.3438,3.481,3.6151,3.7058,3.7022,3.7437,3.8297,3.8733,3.9107,3.9302,3.9391,3.9406,3.9406,3.9406,3.9406,3.9571,4.0124,4.0935,4.2017,4.2571,4.2965,4.3476,4.4533,4.5654,4.6384,4.7406,4.8434,4.8987,4.9018,4.9001,4.8934,4.8377,4.7922,4.7701,4.7295,4.6921,4.6701,4.6329,4.6075,4.5618,4.4973,4.4651,4.4584,4.4584,4.4584,4.4584,4.4584,4.4584,4.4584,4.4584,4.4584,4.4584,4.4584,4.4584,4.4584,4.4584,4.4584,4.4679,4.4706,4.4957,4.5372,4.5845,4.6167,4.643,4.6536,4.66,4.6652,4.6778,4.7165,4.7572,4.7787,4.7975,4.8093,4.8315,4.8315,4.8315,4.8315,4.8315,4.7544,4.6663,4.5893,4.5112,4.425,4.3653,4.3506,4.3488,4.3488,4.3579,4.3677,4.4065,4.4487,4.5145,4.559,4.5594,4.5594,4.5594,4.5594,4.5594,4.5594,4.5594,4.5594,4.5594,4.5665,4.5751,4.5866,2.9408,2.912,2.9559,2.9779,2.9779,2.9779,2.9779,3.0101,3.1774,3.2593,3.297,3.5224,3.6229,3.6567,3.7015,3.7599,3.8095,3.8407,3.8793,3.9107,3.9346,3.9391,3.9406,3.9406,3.9496,3.9735,4.0202,4.0924,4.1777,4.2286,4.2897,4.3616,4.4862,4.6208,4.6748,4.7852,4.9018,4.9018,4.9018,4.9018,4.8748,4.8426,4.8225,4.7853,4.7464,4.7107,4.709,4.6769,4.6464,4.5819,4.5159,4.4871,4.4719,4.4719,4.4584,4.4584,4.4584,4.4584,4.4584,4.4584,4.4584,4.4584,4.4584,4.4584,4.4584,4.4584,4.4584,4.4598,4.464,4.4772,4.5192,4.5446,4.577,4.5965,4.6046,4.6107,4.6131,4.624,4.6687,4.7161,4.747,4.7656,4.8035,4.8267,4.8315,4.8315,4.8315,4.8315,4.8021,4.7104,4.626,4.5471,4.4654,4.4121,4.3635,4.3488,4.3488,4.3513,4.3629,4.3997,4.4467,4.512,4.554,4.5594,4.5594,4.5594,4.5594,4.5594,4.5594,4.5594,4.5594,4.5601,4.5703,4.5812,4.6025,2.9283,2.9641,2.9767,2.9779,2.9779,2.9779,2.9779,3.0101,3.1756,3.2593,3.3112,3.4566,3.5699,3.5729,3.6357,3.6898,3.7242,3.7778,3.8272,3.8586,3.9047,3.9287,3.9391,3.9361,3.9753,3.9993,4.0307,4.1059,4.1643,4.2156,4.2764,4.3506,4.5272,4.6261,4.6591,4.7803,4.9018,4.9018,4.9018,4.9018,4.9018,4.8832,4.8849,4.8714,4.8663,4.8578,4.8325,4.7392,4.6919,4.6259,4.5413,4.5108,4.5024,4.4888,4.4635,4.4584,4.4584,4.4584,4.4584,4.4584,4.4584,4.4584,4.4584,4.4584,4.4584,4.4584,4.4584,4.4584,4.4612,4.4612,4.4865,4.4865,4.5075,4.5075,4.5112,4.5125,4.5138,4.552,4.5977,4.6577,4.7088,4.7583,4.82,4.8315,4.8315,4.8315,4.8315,4.8296,4.8223,4.7434,4.6608,4.5782,4.4984,4.4287,4.3653,4.3524,4.3488,4.3488,4.3621,4.4057,4.4554,4.5142,4.5466,4.5573,4.5594,4.5594,4.5594,4.5594,4.5594,4.5594,4.5594,4.5631,4.5763,4.6055,4.6422]}]]